[[{"header":{"parameterUnit":"m.s-1","parameterCategory":1,"la1":30.6,"la2":29.2853,"lo1":-89.7004,"lo2":-87.6739,"dy":0.0162,"dx":0.0183,"nx":112,"ny":82,"refTime":"2023-04-11T18:00:00:Z","depth":0,"parameterNumber":2,"parameterNumberName":"U-component_of_WINDS"},"data":[0.0,0.0,0.0,0.0,0.0,0.0,0.0,0.0,0.0,0.0,0.0,0.0,0.0,0.0,0.0,0.0,0.0,0.0,0.0,0.0,0.0,0.0,0.0,0.0,0.0,0.0,0.0,0.0,0.0,0.0,0.0,0.0,0.0,0.0,0.0,0.0,0.0,0.0,0.0,0.0,0.0,0.0,0.0,0.0,0.0,0.0,0.0,0.0,0.0,0.0,0.0,0.0,0.0,0.0,0.0,0.0,0.0,0.0,0.0,0.0,0.0,0.0,0.0,0.0,0.0,0.0,0.0,0.0,0.0,0.0,0.0,0.0,0.0,0.0,0.0,0.0,0.0,0.0,0.0,0.0,0.0,0.0,0.0,0.0,0.0,0.0,0.0,0.0,0.0,0.0,4.0505,4.0505,4.0505,4.0505,4.0505,4.0505,4.08,4.1459,0.0,0.0,0.0,0.0,0.0,0.0,0.0,0.0,0.0,0.0,0.0,0.0,0.0,0.0,0.0,0.0,0.0,0.0,0.0,0.0,0.0,0.0,0.0,0.0,0.0,0.0,0.0,0.0,0.0,0.0,0.0,0.0,0.0,0.0,0.0,0.0,0.0,0.0,0.0,0.0,0.0,0.0,0.0,0.0,0.0,0.0,0.0,0.0,0.0,0.0,0.0,0.0,0.0,0.0,0.0,0.0,0.0,0.0,0.0,0.0,0.0,0.0,0.0,0.0,0.0,0.0,0.0,0.0,0.0,0.0,0.0,0.0,0.0,0.0,0.0,0.0,0.0,0.0,0.0,0.0,0.0,0.0,0.0,0.0,0.0,0.0,0.0,0.0,0.0,0.0,0.0,0.0,0.0,0.0,0.0,0.0,0.0,0.0,0.0,0.0,0.0,0.0,0.0,0.0,4.0505,4.0505,4.0505,4.0505,4.0505,4.0505,4.08,4.1459,0.0,0.0,0.0,0.0,0.0,0.0,0.0,0.0,0.0,0.0,0.0,0.0,0.0,0.0,0.0,0.0,0.0,0.0,0.0,0.0,0.0,0.0,0.0,0.0,0.0,0.0,0.0,0.0,0.0,0.0,0.0,0.0,0.0,0.0,0.0,0.0,0.0,0.0,0.0,0.0,0.0,0.0,0.0,0.0,0.0,0.0,0.0,0.0,0.0,0.0,0.0,0.0,0.0,0.0,0.0,0.0,0.0,0.0,0.0,0.0,0.0,0.0,0.0,0.0,0.0,0.0,0.0,0.0,0.0,0.0,0.0,0.0,0.0,0.0,0.0,0.0,0.0,0.0,0.0,0.0,0.0,0.0,0.0,0.0,0.0,0.0,0.0,0.0,0.0,0.0,0.0,0.0,0.0,0.0,0.0,0.0,0.0,0.0,0.0,0.0,0.0,0.0,0.0,4.0505,4.0505,4.0505,4.0505,4.0505,4.0505,4.0505,4.08,4.1459,4.2125,0.0,0.0,0.0,0.0,0.0,0.0,0.0,0.0,0.0,0.0,0.0,0.0,0.0,0.0,0.0,0.0,0.0,0.0,0.0,0.0,0.0,0.0,0.0,0.0,0.0,0.0,0.0,0.0,0.0,0.0,0.0,0.0,0.0,0.0,0.0,0.0,0.0,0.0,0.0,0.0,0.0,0.0,0.0,0.0,0.0,0.0,0.0,0.0,0.0,0.0,0.0,0.0,0.0,0.0,0.0,0.0,0.0,0.0,0.0,0.0,0.0,0.0,0.0,0.0,0.0,0.0,0.0,0.0,0.0,0.0,0.0,0.0,0.0,0.0,0.0,0.0,0.0,0.0,0.0,0.0,0.0,0.0,0.0,0.0,0.0,0.0,0.0,0.0,0.0,0.0,0.0,0.0,0.0,0.0,0.0,0.0,0.0,0.0,0.0,0.0,0.0,0.0,4.0078,4.0213,4.0161,4.0383,4.0505,4.047,4.0487,4.08,4.1459,4.2125,0.0,0.0,0.0,0.0,0.0,0.0,0.0,0.0,0.0,0.0,0.0,0.0,0.0,0.0,0.0,0.0,0.0,0.0,0.0,0.0,0.0,0.0,0.0,0.0,0.0,0.0,0.0,0.0,0.0,0.0,0.0,0.0,0.0,0.0,0.0,0.0,0.0,0.0,0.0,0.0,0.0,0.0,0.0,0.0,0.0,0.0,0.0,0.0,0.0,0.0,0.0,0.0,0.0,0.0,0.0,0.0,0.0,0.0,0.0,0.0,0.0,0.0,0.0,0.0,0.0,0.0,0.0,0.0,0.0,0.0,0.0,0.0,0.0,0.0,0.0,0.0,0.0,0.0,0.0,0.0,0.0,0.0,0.0,0.0,0.0,0.0,0.0,0.0,0.0,0.0,0.0,0.0,0.0,0.0,0.0,0.0,0.0,0.0,0.0,0.0,0.0,0.0,3.8909,3.9349,3.9199,3.9968,4.0453,4.0314,4.0436,4.08,4.1459,4.2125,0.0,0.0,0.0,0.0,0.0,0.0,0.0,0.0,0.0,0.0,0.0,0.0,0.0,0.0,0.0,0.0,0.0,0.0,0.0,0.0,0.0,0.0,0.0,0.0,0.0,0.0,0.0,0.0,0.0,0.0,0.0,0.0,0.0,0.0,0.0,0.0,0.0,0.0,0.0,0.0,0.0,0.0,0.0,0.0,0.0,0.0,0.0,0.0,0.0,0.0,0.0,0.0,0.0,0.0,0.0,0.0,0.0,0.0,0.0,0.0,0.0,0.0,0.0,0.0,0.0,0.0,0.0,0.0,0.0,0.0,0.0,0.0,0.0,0.0,0.0,0.0,0.0,0.0,0.0,0.0,0.0,0.0,0.0,0.0,0.0,0.0,0.0,0.0,0.0,0.0,0.0,0.0,0.0,0.0,0.0,0.0,0.0,0.0,0.0,0.0,0.0,0.0,3.8708,3.9157,0.0,4.0003,4.0487,4.0436,4.0487,4.08,4.1459,0.0,0.0,0.0,0.0,0.0,0.0,0.0,0.0,0.0,0.0,0.0,0.0,0.0,0.0,0.0,0.0,0.0,0.0,0.0,0.0,0.0,0.0,0.0,0.0,0.0,0.0,0.0,0.0,0.0,0.0,0.0,0.0,0.0,0.0,0.0,0.0,0.0,0.0,0.0,0.0,0.0,0.0,0.0,0.0,0.0,0.0,0.0,0.0,0.0,0.0,0.0,0.0,0.0,0.0,0.0,0.0,0.0,0.0,0.0,0.0,0.0,0.0,0.0,0.0,0.0,0.0,0.0,0.0,0.0,0.0,0.0,0.0,0.0,0.0,0.0,0.0,0.0,0.0,0.0,0.0,0.0,0.0,0.0,0.0,0.0,0.0,0.0,0.0,0.0,0.0,0.0,0.0,0.0,0.0,0.0,0.0,0.0,0.0,0.0,0.0,0.0,0.0,3.7319,3.7842,3.8302,0.0,3.9229,3.9814,4.0038,4.0091,4.0426,4.1141,0.0,0.0,0.0,0.0,0.0,0.0,0.0,0.0,0.0,0.0,0.0,0.0,0.0,0.0,0.0,0.0,0.0,0.0,0.0,0.0,0.0,0.0,0.0,0.0,0.0,0.0,0.0,0.0,0.0,0.0,0.0,0.0,0.0,0.0,0.0,0.0,0.0,0.0,0.0,0.0,0.0,0.0,0.0,0.0,0.0,0.0,0.0,0.0,0.0,0.0,0.0,0.0,0.0,0.0,0.0,0.0,0.0,0.0,0.0,0.0,0.0,0.0,0.0,0.0,0.0,0.0,0.0,0.0,0.0,0.0,0.0,0.0,0.0,0.0,0.0,0.0,0.0,0.0,0.0,0.0,0.0,0.0,0.0,0.0,0.0,0.0,0.0,0.0,0.0,0.0,0.0,0.0,0.0,0.0,0.0,0.0,0.0,0.0,0.0,0.0,0.0,0.0,3.5669,3.6223,3.6638,3.6685,3.7558,3.8376,3.9035,3.9241,3.9642,0.0,0.0,0.0,0.0,0.0,0.0,0.0,0.0,0.0,0.0,0.0,0.0,0.0,0.0,0.0,0.0,0.0,0.0,0.0,0.0,0.0,0.0,0.0,0.0,0.0,0.0,0.0,0.0,0.0,0.0,0.0,0.0,0.0,0.0,0.0,0.0,0.0,0.0,0.0,0.0,0.0,0.0,0.0,0.0,0.0,0.0,0.0,0.0,0.0,0.0,0.0,0.0,0.0,0.0,0.0,0.0,0.0,0.0,0.0,0.0,0.0,0.0,0.0,0.0,0.0,0.0,0.0,0.0,0.0,0.0,0.0,0.0,0.0,0.0,0.0,0.0,0.0,0.0,0.0,0.0,0.0,0.0,0.0,0.0,0.0,0.0,0.0,0.0,0.0,0.0,0.0,0.0,0.0,0.0,0.0,0.0,0.0,0.0,0.0,0.0,0.0,0.0,0.0,3.5649,3.6103,3.6492,3.6814,3.8096,3.9048,3.9211,3.9796,4.0248,4.0505,0.0,0.0,0.0,0.0,0.0,0.0,0.0,0.0,0.0,0.0,0.0,0.0,0.0,0.0,0.0,0.0,0.0,0.0,0.0,0.0,0.0,0.0,0.0,0.0,0.0,0.0,0.0,0.0,0.0,0.0,0.0,0.0,0.0,0.0,0.0,0.0,0.0,0.0,0.0,0.0,0.0,0.0,0.0,0.0,0.0,0.0,0.0,0.0,0.0,0.0,0.0,0.0,0.0,0.0,0.0,0.0,0.0,0.0,0.0,0.0,0.0,0.0,0.0,0.0,0.0,0.0,0.0,0.0,0.0,0.0,0.0,0.0,0.0,0.0,0.0,0.0,0.0,0.0,0.0,0.0,0.0,0.0,0.0,0.0,0.0,0.0,0.0,0.0,0.0,0.0,0.0,0.0,0.0,0.0,0.0,0.0,0.0,0.0,0.0,0.0,0.0,0.0,3.5528,3.5669,3.5823,3.6143,3.7338,3.8227,3.8543,3.9421,4.0073,4.0401,0.0,0.0,0.0,0.0,0.0,0.0,0.0,0.0,0.0,0.0,0.0,0.0,0.0,0.0,0.0,0.0,0.0,0.0,0.0,0.0,0.0,0.0,0.0,0.0,0.0,0.0,0.0,0.0,0.0,0.0,0.0,0.0,0.0,0.0,0.0,0.0,0.0,0.0,0.0,0.0,0.0,0.0,0.0,0.0,0.0,0.0,0.0,0.0,0.0,0.0,0.0,0.0,0.0,0.0,0.0,0.0,0.0,0.0,0.0,0.0,0.0,0.0,0.0,0.0,0.0,0.0,0.0,0.0,0.0,0.0,0.0,0.0,0.0,0.0,0.0,0.0,0.0,0.0,0.0,0.0,0.0,0.0,0.0,0.0,0.0,0.0,0.0,0.0,0.0,0.0,0.0,0.0,0.0,0.0,0.0,0.0,0.0,0.0,0.0,0.0,0.0,0.0,3.5365,3.5044,3.488,3.5086,3.5823,3.6629,3.7453,3.849,3.9433,4.0261,0.0,0.0,0.0,0.0,0.0,0.0,0.0,0.0,0.0,0.0,0.0,0.0,0.0,0.0,0.0,0.0,0.0,0.0,0.0,0.0,0.0,0.0,0.0,0.0,0.0,0.0,0.0,0.0,0.0,0.0,0.0,0.0,0.0,0.0,0.0,0.0,0.0,0.0,0.0,0.0,0.0,0.0,0.0,0.0,0.0,0.0,0.0,0.0,0.0,0.0,0.0,0.0,0.0,0.0,0.0,0.0,0.0,0.0,0.0,0.0,2.3103,0.0,0.0,0.0,0.0,0.0,0.0,0.0,0.0,0.0,0.0,0.0,0.0,0.0,0.0,0.0,0.0,0.0,0.0,0.0,0.0,0.0,0.0,0.0,0.0,0.0,0.0,0.0,0.0,0.0,0.0,0.0,0.0,0.0,0.0,0.0,0.0,0.0,0.0,0.0,0.0,0.0,3.5365,3.5044,3.488,3.5086,3.5823,3.668,3.7653,3.8524,3.9427,4.0418,4.0383,0.0,0.0,0.0,0.0,0.0,0.0,0.0,0.0,0.0,0.0,0.0,0.0,0.0,0.0,0.0,0.0,0.0,0.0,0.0,0.0,0.0,0.0,0.0,0.0,0.0,0.0,0.0,0.0,0.0,0.0,0.0,0.0,0.0,0.0,0.0,0.0,0.0,0.0,0.0,0.0,0.0,0.0,0.0,0.0,0.0,0.0,0.0,0.0,0.0,0.0,0.0,0.0,0.0,0.0,0.0,0.0,0.0,0.0,0.0,0.0,2.3445,0.0,0.0,0.0,0.0,0.0,0.0,0.0,0.0,0.0,0.0,0.0,0.0,0.0,0.0,0.0,0.0,0.0,0.0,0.0,0.0,0.0,0.0,0.0,0.0,0.0,0.0,0.0,0.0,0.0,0.0,0.0,0.0,0.0,0.0,0.0,0.0,0.0,0.0,0.0,0.0,3.5249,3.488,3.4673,3.475,3.5602,3.6503,3.7425,3.845,3.9439,4.0349,4.0331,0.0,0.0,0.0,0.0,0.0,0.0,0.0,0.0,0.0,0.0,0.0,0.0,0.0,0.0,0.0,0.0,0.0,0.0,0.0,0.0,0.0,0.0,0.0,0.0,0.0,0.0,0.0,0.0,0.0,0.0,0.0,0.0,0.0,0.0,0.0,0.0,0.0,0.0,0.0,0.0,0.0,0.0,0.0,0.0,0.0,0.0,0.0,0.0,0.0,0.0,0.0,0.0,0.0,1.6471,1.6604,1.663,1.6736,1.7463,1.88,2.1489,2.2845,2.3138,2.2669,0.0,0.0,0.0,0.0,0.0,0.0,0.0,0.0,0.0,0.0,0.0,0.0,0.0,0.0,0.0,0.0,0.0,0.0,0.0,0.0,0.0,0.0,0.0,0.0,2.8981,2.8924,0.0,0.0,0.0,0.0,0.0,0.0,0.0,0.0,0.0,0.0,0.0,0.0,3.5044,3.4667,3.4397,3.4397,3.5338,3.6294,3.7127,3.8275,3.9343,4.0174,4.0209,4.0279,0.0,0.0,0.0,0.0,0.0,0.0,0.0,0.0,0.0,0.0,0.0,0.0,0.0,0.0,0.0,0.0,0.0,0.0,0.0,0.0,0.0,0.0,0.0,0.0,0.0,0.0,0.0,0.0,0.0,0.0,0.0,0.0,1.3808,1.277,0.0,0.0,0.0,0.0,0.0,0.0,0.0,0.0,0.0,0.0,0.0,0.0,0.0,1.181,1.321,1.404,1.5083,1.6297,1.6099,1.6125,1.6377,1.6895,1.7503,1.8174,1.9513,0.0,2.2593,2.2535,0.0,0.0,0.0,0.0,0.0,0.0,0.0,0.0,0.0,0.0,0.0,0.0,0.0,0.0,0.0,0.0,0.0,0.0,0.0,0.0,0.0,0.0,2.7731,2.7826,2.8346,2.8814,0.0,2.8902,2.8903,2.8977,2.9024,0.0,0.0,0.0,0.0,0.0,0.0,0.0,3.4839,3.4564,3.4397,3.4397,3.5196,3.6136,3.7127,3.8003,3.8921,3.9963,3.9874,3.9945,4.0296,4.0152,0.0,0.0,0.0,0.0,0.0,0.0,0.0,0.0,0.0,0.0,0.0,0.0,0.0,0.0,0.0,0.0,0.0,0.0,0.0,0.0,0.0,0.0,0.0,0.0,0.0,0.0,0.0,0.0,0.0,1.1664,1.1282,1.1437,0.9814,0.8478,0.0,0.0,0.0,0.0,0.0,0.0,0.0,0.0,0.0,0.9864,1.0433,1.1292,1.2571,1.3673,1.4519,1.5137,1.5645,1.5965,1.6084,1.6365,1.6763,1.7292,1.7779,1.898,2.0647,2.0647,2.103,2.148,0.0,0.0,0.0,0.0,2.2286,2.4077,2.4314,2.4882,0.0,2.5773,0.0,0.0,0.0,0.0,0.0,0.0,0.0,0.0,0.0,0.0,2.7102,2.7484,2.8211,2.8792,2.8792,2.8792,2.8792,0.0,2.9001,2.9646,3.1043,0.0,0.0,0.0,0.0,3.4797,3.4797,3.4569,3.4397,3.4397,3.4874,3.5743,3.7088,3.7625,3.8554,4.0069,3.9963,3.9998,4.0279,4.024,4.0226,0.0,0.0,0.0,0.0,0.0,0.0,0.0,0.0,0.0,0.0,0.0,0.0,0.0,0.0,0.0,0.0,0.0,0.0,0.0,0.0,0.0,0.0,0.0,0.0,0.0,0.0,0.0,0.0,0.9911,0.9588,1.0171,0.8665,0.7432,0.0,0.0,0.0,0.0,0.0,0.0,0.8885,0.8602,0.8982,1.0213,1.0535,1.1109,1.1955,1.3159,1.3889,1.4223,1.5057,1.5618,1.5885,1.5965,1.6205,1.6604,1.6683,1.7463,1.8722,1.9072,1.9694,2.0287,1.8643,1.9332,2.1113,2.0042,2.1414,2.373,2.3151,2.3705,2.4599,2.4312,0.0,2.4202,2.4202,0.0,0.0,0.0,0.0,2.4325,2.4898,2.5611,2.6336,2.6867,2.7765,2.849,2.849,2.8762,2.8922,0.0,2.9071,2.9578,3.0373,0.0,0.0,0.0,0.0,3.5115,3.5115,3.4968,3.4842,3.4842,3.5199,3.6062,3.7568,3.8015,3.8959,4.0621,4.0532,4.055,4.0799,4.0332,4.0104,4.0211,0.0,0.0,0.0,0.0,0.0,0.0,0.0,0.0,0.0,0.0,0.0,0.0,0.0,0.0,0.0,0.0,0.0,0.0,0.0,0.0,0.0,0.0,0.0,0.0,0.0,0.0,0.0,0.0,0.0,0.9113,0.8892,0.0,0.0,0.0,0.0,0.8802,0.7792,0.7681,0.883,0.782,0.7737,0.8961,1.0104,1.0726,1.0781,1.1928,1.3068,1.4196,1.425,1.4842,1.5912,1.6164,1.6297,1.6324,1.6577,1.6922,1.7411,1.867,1.9228,1.928,1.915,1.8603,1.7977,1.8893,2.0034,2.1241,2.2198,2.3273,2.4238,2.4202,2.4202,2.4202,2.4202,2.4202,0.0,0.0,2.4202,2.4202,2.4251,2.4799,2.5367,2.5416,2.6556,2.7649,2.7649,2.8599,2.9338,0.0,2.8816,2.9187,3.0328,0.0,3.291,3.399,3.524,3.604,3.604,3.6018,3.6018,3.6018,3.6775,3.7743,3.892,3.9727,4.0653,4.1837,4.1714,4.1789,4.2187,4.0409,3.9622,4.0014,3.8612,0.0,0.0,0.0,0.0,0.0,0.0,0.0,0.0,0.0,0.0,0.0,0.0,0.0,0.0,0.0,0.0,0.0,0.0,0.0,0.0,0.0,0.0,0.0,0.0,0.0,0.0,0.0,0.0,0.8947,0.8208,0.0,0.7154,0.7487,0.7737,0.7737,0.8076,0.8436,0.8885,0.8491,0.8463,0.8885,0.932,0.9533,0.9533,1.1437,1.2607,1.3068,1.4562,1.5512,1.5885,1.6004,1.6137,1.6297,1.6404,1.6616,1.6922,1.7635,1.8408,1.9124,1.8434,1.8826,1.9591,1.8565,1.9772,2.1886,2.1582,2.2669,2.4202,2.4202,2.4202,2.4202,2.4202,2.4202,2.4202,2.4202,2.4202,2.4202,2.4202,2.4932,2.5841,2.6389,2.7496,2.8603,2.9134,2.9623,2.9904,2.9729,2.9685,2.9829,3.0236,3.1763,3.3107,3.3518,3.4994,3.6096,3.6096,3.6096,3.6096,3.6096,3.638,3.7192,3.8769,3.9155,4.004,4.1686,4.1723,4.1817,4.2095,4.1414,4.0823,4.0396,3.9353,3.862,0.0,0.0,0.0,0.0,0.0,0.0,0.0,0.0,0.0,0.0,0.0,0.0,0.0,0.0,0.0,0.0,0.0,0.0,0.0,0.0,0.0,0.0,0.0,0.0,0.0,0.0,0.8747,0.8353,0.7937,0.7543,0.7154,0.746,0.7709,0.7709,0.8436,0.8912,0.8912,0.8912,0.8912,0.8912,0.8912,0.8912,0.8912,1.0433,1.1628,1.2417,1.3986,1.5125,1.5885,1.6004,1.6084,1.6164,1.6271,1.6444,1.6736,1.6948,1.7687,1.8591,1.7898,1.8513,1.9642,1.8565,1.9772,2.1962,2.2013,2.297,2.4202,2.4202,2.4202,2.4238,2.4367,2.4379,2.4415,2.4587,2.4581,2.4581,2.4581,2.539,2.6286,2.6868,2.8012,2.9133,2.9698,3.0169,3.045,3.045,3.0319,3.0307,3.0674,3.2275,3.3592,3.3941,3.5534,3.6698,3.6698,3.6698,3.6698,3.6698,3.6698,3.7464,3.9346,3.9284,4.0134,4.233,4.2177,4.21,4.2204,4.1639,4.09,4.0063,3.9045,3.8283,3.7853,0.0,0.0,0.0,0.0,0.0,0.0,0.0,0.0,0.0,0.0,0.0,0.0,0.0,0.0,0.0,0.0,0.0,0.0,0.0,0.0,0.0,0.0,0.0,1.0699,0.9671,0.8463,0.7293,0.8186,0.8436,0.7265,0.8214,0.8912,0.8912,0.8912,0.8912,0.8912,0.8912,0.8912,0.8912,0.8912,0.8912,0.8968,0.8995,1.0159,1.2472,1.2499,1.369,1.5912,1.6164,1.6164,1.5912,1.6164,1.6457,1.6683,1.671,1.7054,1.7595,1.7608,1.7608,1.7766,1.8786,1.9901,2.1225,2.3406,2.4195,2.4238,2.4238,2.4238,2.4312,2.4709,2.4819,2.4911,2.5297,2.5388,2.5388,2.5388,2.5992,2.6615,2.6641,2.793,2.9168,2.9168,3.0106,3.0908,3.0908,3.0559,3.0595,3.1682,3.3078,3.4407,3.5458,3.6936,0.0,3.79,3.79,3.79,3.79,3.79,3.8706,4.0675,4.0253,4.1042,4.3723,4.309,4.2618,4.2559,4.097,3.9767,3.9029,3.7591,3.6849,3.6849,0.0,0.0,0.0,0.0,0.0,0.0,0.0,0.0,0.0,0.0,0.0,0.0,0.0,0.0,0.0,0.0,0.0,0.0,0.0,0.0,0.0,1.1928,1.1655,1.0809,0.9671,0.8768,0.8436,0.8685,0.8768,0.8436,0.8712,0.8912,0.8912,0.8912,0.8912,0.8912,0.8912,0.8912,0.8912,0.8912,0.932,1.0213,1.1027,1.22,1.3727,1.4535,1.5286,1.5885,1.5977,1.5965,1.5885,1.5977,1.6152,1.643,1.663,1.7064,1.7594,1.7596,1.8068,1.8681,1.8225,1.9426,2.1544,2.2912,2.412,2.5058,2.5058,2.5058,2.5076,2.5205,2.5242,2.526,2.537,2.5388,2.5388,2.5388,2.6217,2.7182,2.7809,2.9024,3.0193,3.0805,3.1171,3.1407,3.1407,3.1298,3.1564,3.2615,3.3809,3.4943,3.594,3.7147,0.0,3.79,3.79,3.7969,3.8099,3.8099,3.8616,3.9847,3.9809,4.0216,4.147,4.1302,4.1239,4.135,4.0767,4.0052,3.9164,3.8283,3.7828,0.0,0.0,0.0,0.0,0.0,0.0,0.0,0.0,0.0,0.0,0.0,0.0,0.0,0.0,0.0,0.0,0.0,0.0,0.0,0.0,0.0,0.0,1.239,1.2173,1.1519,1.0406,0.9451,0.8968,0.8912,0.8912,0.8912,0.8912,0.8912,0.8912,0.8912,0.8912,0.8912,0.9375,0.9644,0.9644,1.0104,1.0707,1.141,1.2064,1.3014,1.4223,1.4869,1.5431,1.5897,1.6033,1.6081,0.0,1.6175,1.6481,1.6861,1.7011,1.7439,0.0,0.0,0.0,0.0,0.0,2.0986,2.3201,2.3843,2.4669,2.5388,2.5388,2.5388,2.5425,2.559,2.5645,2.5682,2.5866,2.6167,2.6413,2.6413,2.7479,2.8677,2.9171,3.0129,3.1039,3.1501,3.1604,3.1604,3.1604,3.1964,0.0,3.3697,3.4385,3.5283,3.6732,3.7505,3.79,3.79,3.79,3.7946,3.8057,3.808,3.844,3.937,3.9171,0.0,0.0,0.0,4.0238,4.0339,3.9869,0.0,0.0,0.0,3.8145,3.808,0.0,0.0,0.0,3.7643,3.7661,0.0,0.0,0.0,0.0,0.0,0.0,0.0,0.0,0.0,0.0,0.0,0.0,0.0,0.0,0.0,0.0,1.2553,1.2716,1.2445,1.1655,1.0644,0.943,0.9292,0.9292,0.9292,0.9292,0.9292,0.9292,0.9182,0.9099,0.9099,0.0,0.0,0.0,0.0,1.2472,1.2607,1.2627,1.3244,1.4456,1.4478,1.5002,1.5994,1.6251,1.6359,1.6371,1.6653,1.7086,1.7601,1.7644,1.8087,1.8725,1.8523,1.855,1.8975,2.1264,2.3436,2.5279,2.5279,0.0,0.0,2.5535,2.5535,2.559,2.5958,2.6068,2.6141,2.6508,2.7098,2.7699,2.778,2.9032,3.0287,3.0391,3.1013,3.1604,3.1604,3.1604,3.1604,3.1604,3.2471,3.3549,3.4605,3.4896,3.5643,3.7598,3.79,3.79,3.79,3.79,3.79,3.7923,0.0,0.0,3.901,3.8522,3.8819,4.0216,3.9744,3.9419,3.9419,3.8594,3.8167,3.8167,3.822,3.8159,3.8004,3.8057,3.8083,3.8083,3.8387,3.8398,0.0,0.0,0.0,0.0,0.0,0.0,0.0,0.0,0.0,0.0,0.0,0.0,0.0,0.0,0.0,1.1191,1.3383,1.4551,1.2662,1.3041,1.3078,1.1873,1.171,1.171,1.171,1.171,1.171,1.171,1.0863,1.0351,1.0351,1.0562,1.0699,1.0699,1.1819,1.2879,1.3835,1.4079,1.474,1.59,0.0,0.0,1.6549,1.6598,1.6622,1.665,1.695,1.7281,1.7629,1.7894,1.8917,2.0324,2.0931,2.065,2.0236,2.2499,2.3846,2.4514,2.4514,2.5335,2.638,2.638,2.638,2.6398,2.6472,2.6463,0.0,2.6573,2.6727,2.6981,2.7618,2.8562,2.9513,3.0235,3.1013,3.1604,3.1604,3.1604,3.1604,3.1604,3.2471,3.3549,3.4605,3.5475,3.645,3.7716,3.79,3.79,3.79,3.79,3.7969,3.8122,3.8145,3.8213,3.8368,3.8255,3.8258,3.8421,3.8308,3.8217,3.8217,3.8034,3.7969,3.7969,3.8388,3.86,3.8553,3.905,3.9285,3.9259,3.8411,3.8015,0.0,0.0,0.0,0.0,0.0,0.0,0.0,0.0,0.0,0.0,0.0,1.0844,1.1446,0.0,1.3095,1.2526,1.3916,1.4654,1.3484,1.3808,1.3754,1.2553,1.239,1.239,1.239,1.239,1.239,1.239,1.1873,1.1546,1.1546,1.2238,1.2651,1.2651,1.3899,1.4845,1.5446,1.5588,1.5934,1.6489,1.6634,1.6706,1.6706,1.7008,1.7469,1.8088,1.8514,1.9217,2.0075,2.0397,2.1059,2.1951,2.2954,2.3026,2.2686,2.3816,2.4767,2.5449,2.5449,2.5973,2.6591,2.6591,2.6591,2.6591,2.6591,2.6872,2.7206,2.7206,2.7826,2.8601,2.9006,2.9723,3.0453,3.0909,3.1322,3.1669,3.1957,3.2001,3.2247,3.3063,3.4037,3.5096,3.6211,3.7282,3.794,3.7909,3.79,3.8004,3.8266,3.8318,3.8469,3.8848,3.89,3.89,3.89,3.89,3.8853,3.8762,3.8762,3.8762,3.8762,3.8762,3.8762,3.8762,3.9,3.9155,3.9155,3.9444,3.9599,3.9599,3.9024,3.8762,0.0,0.0,0.0,0.0,0.0,0.0,0.0,0.0,1.1574,1.2254,1.239,1.2689,1.3673,1.4035,1.4116,1.3889,1.4223,1.4439,1.4223,1.4385,1.4159,1.3204,1.3068,1.3068,1.3068,1.3068,1.3115,1.3155,1.2937,1.2848,1.2887,1.403,1.4662,1.4662,1.5988,1.6706,1.6706,1.6754,1.6863,1.706,1.7109,1.7218,1.7416,1.8027,1.8816,1.9766,2.0387,2.1387,2.2605,2.289,2.3143,2.3452,2.4417,2.4944,2.5138,2.5138,2.5761,2.6591,2.6591,2.6591,2.6591,2.6591,2.6591,2.6646,2.6791,2.7287,2.7833,2.8002,2.9146,3.0308,3.0491,3.1076,3.1685,3.184,3.1887,3.2022,3.2437,3.2713,3.3268,3.4546,3.5803,3.692,3.7841,3.8897,3.9285,3.837,3.824,3.8397,3.8841,3.8893,3.9076,3.9547,3.9599,3.9599,3.9599,3.9599,3.9599,3.9599,3.9599,3.9599,3.9599,3.9599,3.9599,3.9599,3.9679,3.9756,3.9782,3.9862,3.9939,3.9939,3.9939,3.981,1.2417,1.3095,1.4024,1.4884,1.5125,1.4884,0.0,0.0,1.3538,1.258,1.239,1.2445,1.258,1.3484,1.3835,1.277,1.4347,1.5351,1.4331,1.5083,1.5645,1.5512,1.5512,1.5512,1.5512,1.5512,1.5606,1.5857,1.4938,1.4457,1.4688,1.4861,1.4967,1.4967,1.6081,1.6706,1.6706,1.6936,1.7473,1.8298,1.8544,1.9094,1.9914,2.0444,2.0787,2.0958,2.1839,2.2492,2.2946,2.2974,2.362,2.4612,2.475,2.5459,2.64,2.64,2.6482,2.6591,2.6591,2.6591,2.6591,2.6591,2.6591,2.6736,2.743,2.7726,2.7948,2.8748,2.94,3.0045,3.0819,3.1401,3.1986,3.2736,3.2923,3.2945,3.301,3.381,3.4595,3.4771,3.644,3.7841,3.7989,3.8897,3.9573,3.9442,3.9416,3.9442,3.9494,3.952,3.9547,3.9599,3.9599,3.9599,3.9599,3.9599,3.9599,3.9599,3.9599,3.9599,3.9599,3.9599,3.9599,3.9599,4.0071,4.0306,4.0306,4.0829,4.109,4.109,4.109,4.0592,1.3677,1.3808,1.4132,0.0,1.3852,1.3906,1.4132,1.4196,1.425,1.4401,1.4455,1.4455,1.4455,1.4857,1.503,0.0,1.5259,1.5725,1.5271,1.5722,1.6115,1.6115,1.626,1.6296,1.6151,1.6272,1.6404,1.6513,1.6081,1.5865,1.598,1.6148,1.6229,1.6229,1.7383,1.7986,1.7986,1.8646,1.9158,1.9531,1.9667,2.0083,2.0773,2.1202,2.2083,2.3323,2.4428,2.4972,2.51,2.51,2.5404,2.5844,2.5844,2.6163,2.6591,2.6591,2.6591,2.6591,2.6591,2.6591,2.6628,2.6875,2.6967,2.717,2.8287,2.8949,2.9503,3.0417,3.1159,3.1811,3.2158,3.2416,3.2647,3.3017,3.3098,3.3163,3.3447,3.4405,3.5459,3.6423,3.7873,3.9146,3.9798,4.0296,4.0567,4.0567,4.0043,3.9705,4.0043,4.0069,4.02,4.0566,4.0567,4.0567,4.0567,4.0567,4.0567,4.0567,4.0567,4.0567,4.0567,4.0567,4.0567,4.0567,4.0803,4.0907,4.0907,4.1193,4.1299,4.1299,4.1299,4.1038,1.4483,0.0,0.0,1.3501,1.3366,1.3582,1.4466,1.4681,1.4896,1.5725,1.5885,1.5885,1.5885,1.5885,1.591,1.6009,1.5994,1.6045,1.6103,1.6272,1.6392,1.6392,1.6646,1.673,1.6549,1.6634,1.673,1.6803,1.6803,1.6952,1.728,1.7236,1.7461,1.7966,1.8561,1.9026,1.9287,1.9953,2.0414,2.0658,2.0658,2.1002,2.1629,2.224,2.3508,2.5348,2.6218,2.6591,2.6591,2.6701,2.6784,2.6784,2.6894,2.6949,2.6949,2.6949,2.6875,2.6784,2.6885,2.6949,2.7013,2.7586,2.7744,2.8023,2.9481,3.0309,3.0997,3.1897,3.2701,3.3294,3.3294,3.3382,3.3491,3.3491,3.3734,3.4065,3.4393,3.56,3.6996,3.8146,3.9287,4.0313,4.1147,4.1299,4.1299,4.1299,4.0618,4.0226,4.0594,4.0646,4.0827,4.1247,4.1299,4.1299,4.1299,4.1299,4.1299,4.1299,4.1299,4.1299,4.1299,4.1299,4.1299,4.1299,4.1299,4.1299,4.1299,4.1299,4.1299,4.1299,4.1481,4.1559,1.4223,0.0,1.4466,1.5538,1.5779,1.5805,1.5832,1.5832,1.5859,1.5885,1.5885,1.5885,1.5885,1.5885,1.5997,1.6251,1.6299,1.6396,1.6634,1.6682,1.6682,1.6682,1.6923,1.708,0.0,1.6839,1.6803,1.7056,1.708,1.7592,1.8784,1.7994,1.8315,2.0141,1.9361,1.9345,2.0241,2.0299,2.0716,2.1559,2.1559,2.2057,2.2978,2.4167,2.5376,2.6564,2.6591,2.6591,2.6628,2.7022,2.7187,2.7224,2.761,2.7757,2.7757,2.7757,2.7518,2.7243,2.7628,2.7757,2.7927,2.8831,2.914,2.9447,3.1189,3.1755,3.1945,3.2808,3.3399,3.377,3.377,3.4119,3.4441,3.4441,3.5306,3.6104,3.6127,3.7902,3.9469,3.9545,4.0465,4.1274,4.1299,4.1299,4.1299,4.1299,4.1273,4.1247,4.1273,4.1273,4.1273,4.1299,4.1299,4.1299,4.1299,4.1299,4.1299,4.1299,4.1299,4.1299,4.1299,4.1299,4.1299,4.1299,4.1299,4.1299,4.1299,4.1299,4.1299,4.1299,4.1898,4.216,1.5324,1.5324,1.5431,1.5805,1.5885,1.5885,1.5885,1.5885,1.5885,1.5885,1.6057,1.6178,1.6178,1.6308,1.6453,1.6549,1.6561,1.6585,1.6682,1.6851,1.7216,1.784,1.8138,0.0,0.0,0.0,0.0,1.8233,1.8304,1.8748,1.9766,1.9519,1.9664,2.027,2.0544,2.0845,2.1174,2.1788,2.2243,2.2526,2.295,2.3642,2.4608,2.5436,2.6379,2.7389,2.7389,2.7389,2.7408,2.7536,2.7591,2.7666,2.8446,2.8709,2.8832,2.9694,2.9891,2.9698,2.8992,2.9103,2.9702,3.0257,3.0469,3.0754,3.219,3.2658,3.2853,3.3784,3.4141,3.4245,3.4245,3.4376,3.468,3.5461,3.5904,3.6421,3.718,3.8507,3.9597,3.9597,4.0516,4.1299,4.1299,4.1299,4.1455,4.1846,4.1559,4.1299,4.1299,4.1299,4.1299,4.1299,4.1299,4.1299,4.1299,4.1299,4.1299,4.1299,4.1299,4.1299,4.1299,4.1664,4.1898,4.1898,4.2265,4.2422,4.2422,4.2422,4.2422,4.2422,4.2657,4.2735,1.5885,1.5885,1.5885,1.5885,1.5885,1.5885,1.5885,1.5958,1.603,1.603,1.6275,1.6429,1.6429,1.6573,1.673,1.6827,1.6839,1.6988,1.7415,1.7633,1.809,1.9036,1.9283,1.9635,0.0,0.0,0.0,1.9345,1.9403,1.9795,2.0716,2.0472,2.0587,2.1246,2.1488,2.1758,2.2114,2.2696,2.3183,2.3537,2.4291,2.5099,2.5937,2.6335,2.697,2.7793,2.7793,2.7992,2.8276,2.8102,2.8414,2.9022,2.945,2.9849,3.0237,3.1054,3.1532,3.1632,3.0523,3.0509,3.1055,3.162,3.1815,3.2046,3.3233,3.3593,3.3734,3.4317,3.4507,3.4507,3.4507,3.4791,3.5295,3.6013,3.6994,3.7947,3.8668,3.9866,4.0797,4.0797,4.1415,4.19,4.19,4.19,4.2056,4.2422,4.216,4.19,4.19,4.19,4.19,4.19,4.19,4.19,4.19,4.19,4.19,4.19,4.19,4.19,4.19,4.2265,4.25,4.25,4.284,4.2997,4.2997,4.2997,4.2997,4.2997,4.3232,4.3337,1.5885,1.5885,1.5885,1.5885,1.5897,1.5936,1.599,1.6169,1.6363,1.6432,1.6636,1.6802,0.0,0.0,1.6956,1.7212,1.7248,1.7662,1.8813,1.8968,1.9316,0.0,0.0,0.0,0.0,0.0,0.0,2.0471,0.0,2.0759,2.1616,2.0888,2.1217,2.2981,2.2173,2.2116,2.3041,2.307,2.3541,2.4539,2.5478,2.629,2.6913,2.6913,2.7276,2.7848,2.7848,2.8389,2.9199,2.8723,2.9546,3.1087,3.0684,3.1102,3.1862,3.192,3.2465,3.3063,3.2236,3.1949,3.2064,3.2892,3.3176,3.3346,3.4233,3.4507,3.4507,3.4528,3.4528,3.4528,3.4572,3.544,3.6323,3.6355,3.8514,4.0553,4.0606,4.1877,4.2997,4.2997,4.2997,4.2997,4.2997,4.2997,4.2997,4.3023,4.3049,4.3023,4.2997,4.2997,4.2997,4.2997,4.2997,4.2997,4.2997,4.2997,4.2997,4.2997,4.2997,4.2997,4.2997,4.3023,4.3049,4.3049,4.3075,4.3075,4.3075,4.3075,4.3075,4.3101,4.365,4.3938,1.5885,1.5885,1.5885,1.5885,1.6057,1.6365,1.7068,1.6914,1.7003,1.8398,1.8333,1.8261,0.0,0.0,0.0,1.9484,1.9498,0.0,1.991,1.9953,0.0,2.1174,0.0,2.1545,2.2243,2.2299,0.0,0.0,2.1794,2.1659,2.2582,2.2441,2.265,2.3346,2.3145,2.3255,2.3814,2.3814,2.4182,2.4891,2.5119,2.5975,2.7351,2.7351,2.7833,2.8693,2.8693,2.922,3.0065,2.9947,3.0568,3.1672,3.2195,3.255,3.2835,3.3537,3.3952,3.4121,3.3896,3.379,3.3868,3.4065,3.4149,3.4205,3.4429,3.4507,3.4572,3.4928,3.5009,3.5124,3.5496,3.6504,3.7608,3.8449,3.9908,4.1319,4.2188,4.271,4.2997,4.2997,4.2997,4.2997,4.2997,4.2997,4.3127,4.3598,4.3677,4.3493,4.3049,4.2997,4.2997,4.2997,4.2997,4.2997,4.2997,4.2997,4.2997,4.2997,4.2997,4.2997,4.2997,4.3415,4.3677,4.3677,4.4068,4.4277,4.4277,4.4277,4.4277,4.4277,4.4407,4.4486,1.5885,1.5982,1.6079,1.6079,1.6272,1.6713,1.7663,1.7674,1.7907,1.9362,1.9484,0.0,0.0,0.0,0.0,0.0,0.0,0.0,2.0831,2.0859,2.1203,0.0,2.2337,0.0,2.3159,2.3387,2.3546,0.0,2.2946,2.2749,2.3467,2.3467,2.3562,2.3769,2.3769,2.3864,2.4114,2.4553,2.5048,2.5667,2.6101,2.6969,2.8156,2.8568,2.9079,2.9656,0.0,3.0733,3.1545,3.1189,3.1776,3.3019,3.3322,3.3691,3.4111,3.486,3.5146,3.5146,3.5146,3.5146,3.5124,3.4884,3.4971,3.5146,3.5146,3.5146,3.5212,3.5474,3.5539,3.5605,3.5918,3.7263,3.8708,3.9351,4.0999,4.2597,4.3257,4.3572,4.3754,4.3754,4.3754,4.3754,4.3754,4.3754,4.3859,4.4199,4.4251,4.4147,4.378,4.3754,4.3754,4.3754,4.3754,4.3754,4.3754,4.3754,4.3754,4.3754,4.3754,4.3754,4.3754,4.4068,4.4251,4.4251,4.4538,4.4695,4.4695,4.4695,4.4695,4.4695,4.4695,4.4695,1.5946,1.6232,1.6548,1.6548,1.6827,1.7359,1.831,1.8632,1.9043,2.0076,0.0,2.05,2.0644,2.0673,2.0673,2.0673,0.0,2.0916,2.1687,2.1831,2.2146,2.2972,2.3375,2.3581,2.3581,2.3909,2.4129,2.4148,2.3848,2.3785,2.4068,2.4114,2.4129,2.4148,2.4195,2.4227,2.4227,2.5261,2.6096,2.6707,2.7783,2.8677,2.9331,3.0197,3.0616,3.0733,3.1558,0.0,3.3251,3.2477,3.3166,3.4669,3.431,3.4632,3.5364,3.583,3.6005,3.6005,3.6005,3.6027,3.6005,3.5474,3.5605,3.6005,3.6005,3.6005,3.6005,3.6071,3.6093,3.6144,3.6362,3.8067,3.9757,3.9902,4.2021,4.4017,4.4017,4.4382,4.4695,4.4695,4.4695,4.4695,4.4695,4.4695,4.4695,4.4695,4.4695,4.4695,4.4695,4.4695,4.4695,4.4695,4.4695,4.4695,4.4695,4.4695,4.4695,4.4695,4.4695,4.4695,4.4695,4.4695,4.4695,4.4695,4.4695,4.4695,4.4695,4.4695,4.4695,4.4695,4.4695,4.4695,1.6238,1.6982,1.7804,1.7804,1.8569,1.957,2.0464,2.0302,0.0,0.0,2.187,2.1602,2.2384,2.2526,2.2526,2.2526,0.0,0.0,0.0,0.0,2.3221,0.0,0.0,0.0,0.0,0.0,0.0,0.0,0.0,2.4323,2.4129,2.4114,2.4241,2.4514,2.477,2.4928,2.4928,2.6147,2.7099,2.7758,2.9209,3.0246,3.0908,3.1372,3.1774,3.2134,3.229,0.0,3.4311,3.4186,3.4742,3.5714,3.5656,3.5729,3.5874,3.5961,3.6005,3.6005,3.6005,3.6268,3.6479,3.6027,3.5918,3.6005,3.6005,3.6005,3.6071,3.6457,3.6566,3.692,3.8286,3.972,4.1067,4.2056,4.3482,4.4564,4.4564,4.4616,4.4695,4.4695,4.4695,4.4695,4.4695,4.4695,4.4695,4.4695,4.4695,4.4695,4.4695,4.4695,4.4695,4.4695,4.4695,4.4695,4.4695,4.4695,4.4695,4.4695,4.4695,4.4695,4.4695,4.4695,4.4695,4.4695,4.4695,4.4695,4.4695,4.4695,4.4695,4.4695,4.4695,4.4695,1.7924,1.8506,1.9027,1.9027,1.9583,2.0345,2.1222,0.0,0.0,0.0,2.2639,2.2469,2.2921,0.0,0.0,0.0,0.0,0.0,0.0,0.0,0.0,0.0,0.0,0.0,0.0,0.0,0.0,0.0,0.0,2.4785,2.4641,2.4625,2.4674,2.4849,2.5024,2.5103,2.5103,2.57,2.679,2.8376,2.9112,3.0271,3.1801,3.2451,3.2956,3.3366,3.3838,0.0,3.532,3.532,3.5605,3.6027,3.6268,3.6377,3.6399,3.6639,3.6727,3.6727,3.6727,3.688,3.7033,3.6814,3.6727,3.6727,3.6727,3.7178,3.7722,3.7917,3.8485,3.9174,3.9989,4.1105,4.2185,4.2774,4.3824,4.4695,4.4695,4.4695,4.4695,4.4695,4.4695,4.4695,4.4695,4.4695,4.4695,4.4695,4.4695,4.4695,4.4695,4.4695,4.4695,4.4695,4.4695,4.4695,4.4695,4.4695,4.4695,4.4695,4.4695,4.4695,4.4695,4.4695,4.4695,4.4695,4.4695,4.4695,4.4695,4.5008,4.5165,4.5191,4.5506,4.5637,1.9498,1.9933,2.0245,2.0245,2.0558,2.1074,2.1744,2.1915,0.0,0.0,2.2994,2.2994,2.2994,0.0,2.301,0.0,2.3327,0.0,0.0,0.0,0.0,0.0,0.0,0.0,0.0,0.0,0.0,0.0,0.0,0.0,2.5119,2.5183,2.523,2.523,2.5572,2.5759,2.5759,2.6329,2.7551,2.9441,2.9775,3.0944,3.2804,3.3545,3.4143,3.4604,3.5344,0.0,0.0,3.626,3.6289,3.6333,3.6727,3.685,3.6894,3.7243,3.7404,3.7404,3.7404,3.7404,3.7404,3.7404,3.7404,3.7404,3.7404,3.8074,3.8885,3.9128,3.9919,4.0841,4.1358,4.2185,4.2969,4.3219,4.4015,4.4695,4.4695,4.4695,4.4695,4.4695,4.4695,4.4695,4.4695,4.4695,4.4747,4.4878,4.4878,4.493,4.506,4.5087,4.5087,4.5087,4.4852,4.4695,4.4695,4.4695,4.4747,4.4878,4.4878,4.4956,4.506,4.5087,4.5087,4.5087,4.5087,4.5087,4.5087,4.5557,4.5792,4.5792,4.6264,4.6501,1.985,2.0641,2.1429,2.1429,2.2099,2.2752,2.2837,0.0,0.0,2.2994,2.2994,2.2994,2.2994,2.2994,0.0,0.0,0.0,2.3628,0.0,0.0,0.0,0.0,0.0,0.0,0.0,0.0,0.0,0.0,0.0,0.0,2.5135,2.539,2.5564,2.5564,2.7096,2.7923,2.7923,3.034,3.164,3.191,3.3294,3.4226,3.4762,3.4821,3.5312,3.6015,3.6105,0.0,0.0,3.7144,3.7273,3.7273,3.7317,3.7339,3.7361,3.7382,3.7404,3.7404,3.7404,3.7404,3.7404,3.7404,3.7404,3.7404,3.7404,3.7465,3.7774,3.8885,3.9275,3.989,4.2157,4.283,4.3189,4.4261,4.4613,4.4695,4.4695,4.4695,4.4695,4.4695,4.4695,4.4695,4.4695,4.4695,4.4878,4.5426,4.5531,4.5714,4.6238,4.6316,4.6316,4.6316,4.5349,4.4695,4.4695,4.4695,4.493,4.5478,4.5531,4.574,4.6318,4.6316,4.6316,4.6316,4.6316,4.6316,4.6316,4.6397,4.6423,4.6423,4.6475,4.6501,2.1729,2.2107,2.2441,2.2441,2.2724,2.2994,2.2994,0.0,2.2994,2.2994,2.2994,2.2994,2.2994,2.3168,2.3359,0.0,0.0,0.0,2.4386,0.0,0.0,0.0,0.0,0.0,0.0,0.0,0.0,0.0,0.0,0.0,2.6946,2.7079,2.7554,2.8397,2.9097,2.9448,2.9448,3.0531,3.1566,3.2634,3.3244,3.4136,3.5244,3.5456,3.5834,3.6328,3.6328,0.0,0.0,3.6819,3.6911,3.7093,3.7093,3.7214,3.7404,3.7404,3.7404,3.7404,3.7404,3.7404,3.7404,3.7404,3.7404,3.7404,3.7404,3.7894,3.8737,3.9978,4.0875,4.1821,4.3549,4.4245,4.4666,4.5133,4.5532,4.5767,4.5767,4.5767,4.5767,4.5767,4.5767,4.5767,4.5767,4.5767,4.5846,4.6107,4.6133,4.6212,4.6475,4.6501,4.6501,4.6501,4.6055,4.5767,4.5767,4.5767,4.5898,4.6133,4.6133,4.6238,4.6501,4.6501,4.6501,4.6501,4.6501,4.6501,4.6501,4.6813,4.6996,4.6996,4.7336,4.7521,2.2942,2.2994,2.2994,2.2994,2.2994,2.2994,0.0,2.2994,2.3025,2.3121,2.3136,2.3168,2.3308,2.353,2.3692,2.3803,2.4261,2.4611,2.4722,0.0,0.0,0.0,0.0,0.0,0.0,0.0,0.0,0.0,0.0,0.0,2.9663,2.9726,2.9955,3.0438,3.0953,3.1214,3.1214,3.1617,3.2401,3.3642,3.3642,3.4318,3.5541,3.5695,3.5963,3.6239,3.6239,0.0,0.0,3.6453,3.6545,3.6728,3.6728,3.6972,3.7275,3.7427,3.7532,3.7614,3.7767,3.7811,3.7811,3.7811,3.8064,3.8428,3.8428,3.8897,3.9758,4.116,4.2736,4.417,4.4999,4.5558,4.5872,4.5872,4.6186,4.6501,4.6501,4.6501,4.6501,4.6501,4.6501,4.6501,4.6501,4.6501,4.6554,4.6708,4.6734,4.6787,4.6998,4.6998,4.6998,4.6998,4.6998,4.6867,4.6527,4.6501,4.658,4.6708,4.6734,4.6813,4.6998,4.6998,4.6998,4.6998,4.6998,4.6998,4.6998,4.7388,4.7568,4.7568,4.7989,4.8376,2.2994,2.2994,2.2994,2.2994,2.2994,2.2994,0.0,2.2994,2.3089,2.3438,2.3488,2.3613,2.4005,2.4098,2.4195,2.4545,2.4609,0.0,2.5056,2.5103,0.0,0.0,0.0,0.0,0.0,0.0,0.0,0.0,0.0,0.0,3.3245,3.3359,3.2567,3.0843,3.2466,3.3359,3.3359,3.4663,3.5356,3.5387,3.5387,3.5541,3.588,3.5541,3.5572,0.0,0.0,0.0,0.0,3.627,3.6392,3.6392,3.6392,3.6606,3.6945,3.7428,3.7817,3.816,3.861,3.8784,3.8784,3.8784,3.9676,4.077,4.077,4.0448,4.0449,4.2192,4.451,4.6447,4.6475,4.6501,4.6501,4.6501,4.6501,4.6501,4.6501,4.6501,4.6501,4.6501,4.6501,4.6501,4.6501,4.6501,4.6682,4.7202,4.7307,4.7516,4.8123,4.8172,4.8172,4.8172,4.8172,4.773,4.6606,4.6501,4.6708,4.7255,4.7307,4.7542,4.8146,4.8172,4.8172,4.8172,4.8172,4.8172,4.8172,4.8201,4.8201,4.8201,4.8201,4.8813,2.2994,2.3168,2.3343,2.3343,2.3546,2.375,2.375,2.375,2.3782,2.3893,2.3925,2.3957,2.4098,2.4275,2.4482,2.4593,2.4785,2.5071,0.0,0.0,0.0,0.0,0.0,0.0,0.0,0.0,0.0,0.0,0.0,0.0,3.3265,3.341,3.3572,3.3933,3.4478,3.4777,3.4777,3.5201,3.5387,3.5387,3.5387,3.5448,3.5541,3.5695,3.5788,0.0,0.0,0.0,0.0,3.6593,3.6813,3.7002,3.7002,3.7244,3.7527,3.7676,3.7803,3.7919,3.8069,3.827,3.846,3.846,3.9521,4.0862,4.1176,4.1595,4.2239,4.3595,4.5202,4.6501,4.6501,4.6761,4.7074,4.7074,4.7362,4.7678,4.7678,4.7678,4.7678,4.7678,4.7678,4.7678,4.7678,4.7678,4.7702,4.7885,4.7911,4.7989,4.8172,4.8201,4.8201,4.8201,4.8201,4.8041,4.7704,4.7678,4.7728,4.7911,4.7911,4.7989,4.8201,4.8201,4.8201,4.8201,4.8201,4.8201,4.8201,4.8201,4.8201,4.8201,4.8201,4.8813,0.0,2.3343,2.3549,2.3676,2.3925,2.4114,2.4114,2.4114,2.4145,2.4259,2.4275,2.4323,2.445,2.4657,2.4785,2.4785,2.5071,2.5358,0.0,0.0,0.0,0.0,0.0,0.0,0.0,0.0,0.0,0.0,0.0,0.0,3.4039,3.4133,3.4608,3.5635,3.549,3.5387,3.5387,3.5387,3.5469,3.5656,3.5656,3.5769,3.5956,3.6123,3.6238,0.0,0.0,0.0,0.0,3.6776,3.6933,3.7093,3.7093,3.7381,3.7816,3.7986,3.8231,3.8508,3.868,3.8873,3.9043,3.9043,4.0424,4.2223,4.3014,4.3626,4.4343,4.5581,4.653,4.7155,4.7155,4.7388,4.762,4.762,4.7937,4.8201,4.8201,4.8201,4.8201,4.8201,4.8201,4.8201,4.8201,4.8201,4.8201,4.8201,4.8201,4.8201,4.8201,4.8201,4.8201,4.8201,4.8201,4.8201,4.8201,4.8201,4.8201,4.8201,4.8201,4.8201,4.8201,4.8201,4.8201,4.8201,4.8201,4.8201,4.8201,4.8201,4.8434,4.8842,4.8405,4.9274,0.0,2.3581,2.366,2.4036,2.4132,2.4164,2.4164,2.4164,0.0,2.4577,2.4657,2.4722,2.504,2.5135,2.5151,2.5151,2.5406,2.5644,0.0,2.6104,0.0,0.0,0.0,0.0,0.0,0.0,0.0,0.0,0.0,0.0,3.5428,3.5469,3.5676,3.6142,3.5749,3.549,3.549,3.549,3.5697,3.6163,3.6163,3.639,3.6804,3.6804,3.6804,0.0,0.0,0.0,0.0,3.6887,3.6908,3.6908,3.6908,3.7273,3.7891,3.8337,3.8906,3.9571,3.9996,4.0182,4.0247,4.0453,4.2247,4.4565,4.5929,4.6345,4.6585,4.785,4.8201,4.8201,4.8201,4.8201,4.8201,4.8201,4.8201,4.8201,4.8201,4.8201,4.8201,4.8201,4.8201,4.8201,4.8201,4.8201,4.8201,4.8201,4.8201,4.8201,4.8201,4.8201,4.8201,4.8201,4.8201,4.8201,4.8201,4.8201,4.8201,4.8201,4.8201,4.8201,4.8201,4.8201,4.8201,4.8201,4.8201,4.8201,4.8201,4.8201,4.8755,4.9759,4.8784,5.0097,2.4198,0.0,2.4356,2.4466,2.4689,2.4865,0.0,2.4865,0.0,0.0,0.0,2.5008,2.5103,2.5295,2.5485,2.5485,2.5802,2.6152,2.6422,0.0,0.0,0.0,0.0,0.0,0.0,0.0,0.0,0.0,0.0,3.4842,3.5893,3.6287,3.6535,3.6639,3.6535,3.6473,3.6473,3.6473,3.6535,3.6639,3.6639,3.6701,3.6804,3.6804,3.6804,0.0,0.0,0.0,3.7363,3.7715,3.786,3.786,3.786,3.7959,3.8124,3.8228,3.839,3.8522,3.8681,3.8868,3.9484,4.2065,4.401,4.5657,4.7265,4.7733,4.7821,4.8114,4.8201,4.8201,4.8201,4.8201,4.8201,4.8201,4.8201,4.8201,4.8201,4.8201,4.8201,4.8201,4.8201,4.8201,4.8201,4.8201,4.8201,4.8201,4.8201,4.8201,4.8201,4.8201,4.8201,4.8201,4.8201,4.8201,4.8201,4.8201,4.8201,4.8201,4.8201,4.8201,4.8201,4.8201,4.8201,4.8201,4.8201,4.8201,4.8201,4.8201,4.8347,4.8611,4.9217,5.0434,2.4466,2.4609,2.4657,2.4785,2.4976,2.5103,2.5103,0.0,0.0,0.0,0.0,2.5326,2.5326,2.5628,2.5866,2.5866,2.6695,0.0,0.0,0.0,0.0,0.0,0.0,0.0,0.0,0.0,0.0,0.0,0.0,3.5645,3.6368,3.666,3.6908,3.7115,3.7115,3.7011,3.6804,3.6804,3.6908,3.7115,3.7115,3.7239,3.7446,3.7446,3.7446,0.0,0.0,0.0,3.7839,3.8088,3.8191,3.8191,3.8191,3.8271,3.8437,3.8437,3.8536,3.8669,3.8669,3.8802,3.932,4.1802,4.3482,4.4866,4.6405,4.7265,4.7821,4.8114,4.8201,4.8201,4.8201,4.8201,4.8201,4.8201,4.8201,4.8201,4.8201,4.8201,4.8201,4.8201,4.8201,4.8201,4.8201,4.8201,4.8201,4.8201,4.8201,4.8201,4.8201,4.8201,4.8201,4.8201,4.8201,4.8201,4.8201,4.8201,4.8201,4.8201,4.8201,4.8201,4.8201,4.8201,4.8201,4.8201,4.8201,4.8201,4.8201,4.8201,4.8463,4.8959,4.9074,5.035,2.4593,2.4689,2.4738,2.504,2.5103,2.5103,2.5103,0.0,0.0,0.0,0.0,0.0,0.0,2.6152,0.0,0.0,0.0,0.0,2.9246,2.8625,0.0,0.0,0.0,0.0,0.0,0.0,0.0,0.0,0.0,3.6908,3.6908,3.697,3.7198,3.7591,3.7612,3.7405,3.7011,3.7011,3.7218,3.7612,3.7612,3.7819,3.8191,3.8191,3.8191,3.8191,0.0,0.0,3.8191,3.8191,3.8191,3.8191,3.8191,3.837,3.8615,3.8615,3.8781,3.9078,3.9276,3.9506,3.991,4.1344,4.2721,4.4041,4.5287,4.6461,4.7471,4.8026,4.8143,4.8143,4.8172,4.8201,4.8201,4.8201,4.8201,4.8201,4.8201,4.8201,4.8201,4.8201,4.8201,4.8201,4.8201,4.8201,4.8201,4.8201,4.8201,4.8201,4.8201,4.8201,4.8201,4.8201,4.8201,4.8201,4.8201,4.8201,4.8201,4.8201,4.8201,4.8201,4.8201,4.8201,4.8201,4.8201,4.8201,4.8201,4.8201,4.8201,4.8784,4.9873,4.9103,5.0434,2.4928,2.5024,2.504,2.5103,2.5103,2.5103,2.5103,0.0,0.0,0.0,0.0,0.0,0.0,2.7147,2.7003,0.0,0.0,2.9229,0.0,0.0,0.0,0.0,0.0,0.0,0.0,0.0,0.0,0.0,0.0,3.7384,3.7384,3.7757,3.8005,3.8088,3.8088,3.8046,3.7964,3.7964,3.8005,3.8088,3.8088,3.8109,3.8191,3.8191,3.8191,3.8191,0.0,3.8191,3.8191,3.8191,3.8191,3.8191,3.8191,3.8204,3.8271,3.8271,3.8304,3.8503,3.9648,4.0807,4.2034,4.3645,4.5269,4.6675,4.7176,4.7674,4.8055,4.8172,4.7997,4.785,4.8114,4.8201,4.8201,4.8201,4.8201,4.8201,4.8201,4.8201,4.8201,4.8201,4.8201,4.8201,4.8201,4.8201,4.8201,4.8201,4.8201,4.8201,4.8201,4.8201,4.8201,4.8201,4.8201,4.8201,4.8201,4.8201,4.8201,4.8201,4.8201,4.8201,4.8201,4.8201,4.8201,4.8201,4.8201,4.8201,4.8201,4.8201,4.8784,4.9901,5.0768,5.1973,2.5008,2.5103,2.5103,2.5103,2.5103,2.5151,2.5326,0.0,0.0,0.0,0.0,0.0,0.0,0.0,2.767,2.9766,0.0,3.1034,0.0,0.0,0.0,0.0,0.0,0.0,0.0,0.0,0.0,0.0,0.0,0.0,3.786,3.8067,3.8191,3.8191,3.8191,3.8191,3.8191,3.8191,3.8191,3.8191,3.8191,3.8191,3.8191,3.8191,3.8191,3.8191,0.0,3.8191,3.8191,3.8191,3.8191,3.8191,3.8191,3.8191,3.8191,3.8191,3.8191,3.8271,3.8913,3.9517,4.0387,4.2643,4.3862,4.4811,4.6461,4.7049,4.7227,4.7405,4.77,4.7997,4.8143,4.8201,4.8201,4.8201,4.8201,4.8201,4.8201,4.8201,4.8201,4.8201,4.8201,4.8201,4.8201,4.8201,4.8201,4.8201,4.8201,4.8201,4.8201,4.8201,4.8201,4.8201,4.8201,4.8201,4.8201,4.8201,4.8201,4.8201,4.8201,4.8201,4.8201,4.8201,4.8201,4.8201,4.8201,4.8201,4.8201,4.8201,4.8784,4.9901,5.0462,5.1702,2.504,2.5103,2.5135,2.5214,2.523,2.5279,2.5549,0.0,0.0,0.0,0.0,0.0,0.0,2.7785,0.0,3.1077,3.2051,3.2911,0.0,0.0,0.0,0.0,0.0,0.0,0.0,0.0,0.0,0.0,0.0,0.0,3.8191,3.8191,3.8191,3.8191,3.8191,3.8191,3.8191,3.8191,3.8191,3.8191,3.8191,3.8191,3.8191,3.8191,3.8191,3.8191,3.8191,3.8191,3.8191,3.8191,3.8191,3.8191,3.8191,3.8191,3.8191,3.8191,3.8191,3.8271,3.8913,3.9144,3.9583,4.2287,4.3201,4.3669,4.5793,4.6451,4.6571,4.681,4.7409,4.7967,4.8055,4.8143,4.8201,4.8201,4.8201,4.8201,4.8201,4.8201,4.8201,4.8201,4.8201,4.8201,4.8201,4.8201,4.8201,4.8201,4.8201,4.8201,4.8201,4.8201,4.8201,4.8201,4.8201,4.8201,4.8201,4.8201,4.8201,4.8201,4.8201,4.8201,4.8201,4.8201,4.8201,4.8201,4.8201,4.8201,4.8201,4.8201,4.8784,4.9901,4.9901,5.1182,2.5103,2.5103,2.5152,2.5485,2.5564,0.0,2.5596,2.6136,0.0,0.0,0.0,0.0,0.0,3.0142,3.1207,3.185,3.3081,3.4096,3.4583,0.0,0.0,0.0,0.0,0.0,0.0,0.0,0.0,0.0,0.0,0.0,3.8191,3.8191,3.8191,3.8191,3.8191,3.8191,3.8191,3.8191,3.8191,3.8191,3.8191,3.8191,3.8191,3.8191,3.8191,3.8191,3.8191,3.8191,3.8191,3.8191,3.8191,3.8191,3.8191,3.8191,3.8191,3.8191,3.8191,3.857,4.1043,4.1906,4.2359,4.5129,4.621,4.6511,4.6716,4.6934,4.7146,4.7176,4.7235,4.7324,4.7674,4.7967,4.8201,4.8201,4.8201,4.8201,4.8201,4.8201,4.8201,4.8201,4.8201,4.8201,4.8201,4.8201,4.8201,4.8201,4.8201,4.8201,4.8201,4.8201,4.8201,4.8201,4.8201,4.8201,4.8201,4.8201,4.8201,4.8201,4.8201,4.8201,4.8201,4.8201,4.8201,4.8201,4.8201,4.8201,4.8201,4.8201,4.8784,4.9901,4.9901,5.1182,2.5103,2.5247,2.5437,2.5564,0.0,0.0,0.0,0.0,0.0,0.0,0.0,0.0,0.0,0.0,3.185,3.2239,3.4517,3.6266,3.6428,0.0,0.0,0.0,0.0,0.0,0.0,0.0,0.0,0.0,0.0,0.0,3.8191,3.8191,3.8191,3.8191,3.8191,3.8191,3.8191,3.8191,3.8191,3.8191,3.8191,3.8191,3.8191,3.8191,3.8191,3.8191,3.8191,3.8191,3.8191,3.8191,3.8191,3.8191,3.8191,3.8191,3.8191,3.8191,3.8191,3.8337,3.9353,4.0257,4.1267,4.3138,4.4436,4.5403,4.624,4.6571,4.6636,4.6636,4.681,4.6993,4.7294,4.7471,4.7645,4.785,4.7733,4.7645,4.785,4.788,4.788,4.788,4.8055,4.8201,4.8201,4.8201,4.8201,4.8201,4.8201,4.8201,4.8201,4.8201,4.8201,4.8201,4.8201,4.8201,4.8201,4.8201,4.8201,4.8201,4.8201,4.8201,4.8201,4.8201,4.8201,4.8201,4.8201,4.8201,4.8201,4.8201,4.916,5.1017,5.1017,5.2269,2.5215,2.5422,2.566,0.0,0.0,0.0,0.0,0.0,0.0,0.0,0.0,0.0,0.0,0.0,0.0,0.0,3.5996,3.755,3.7695,0.0,0.0,0.0,0.0,0.0,0.0,0.0,0.0,0.0,0.0,0.0,0.0,3.8191,3.8191,3.8191,3.8191,3.8191,3.8191,3.8191,3.8191,3.8191,3.8191,3.8191,3.8191,3.8191,3.8191,3.8191,3.8191,3.8191,3.8191,3.8191,3.8191,3.8191,3.8191,3.8191,3.8191,3.8191,3.847,3.888,3.932,4.0354,4.1715,4.3075,4.4158,4.5098,4.6029,4.6301,4.6301,4.6301,4.6476,4.6661,4.6874,4.7116,4.7412,4.7648,4.7615,4.756,4.7821,4.785,4.785,4.785,4.8026,4.8201,4.8201,4.8201,4.8201,4.8201,4.8201,4.8201,4.8201,4.8201,4.8201,4.8201,4.8201,4.8201,4.8201,4.8201,4.8201,4.8201,4.8201,4.8201,4.8201,4.8201,4.8201,4.8201,4.8201,4.8201,4.8201,4.8201,4.9043,5.0601,5.0601,5.1837,2.5517,2.5612,2.5787,0.0,0.0,0.0,0.0,0.0,0.0,0.0,0.0,0.0,0.0,0.0,0.0,0.0,0.0,0.0,0.0,0.0,0.0,0.0,0.0,0.0,0.0,0.0,0.0,0.0,0.0,0.0,0.0,3.8191,3.8191,3.8191,3.8191,3.8191,3.8191,3.8191,3.8191,3.8191,3.8191,3.8191,3.8191,3.8191,3.8191,3.8191,3.8191,3.8191,3.8191,3.8191,3.8191,3.8191,3.8191,3.8191,3.8191,3.8191,3.9045,4.0354,4.1715,4.3107,4.4497,4.5823,4.6271,4.6301,4.6301,4.6301,4.6301,4.6301,4.6301,4.6301,4.6301,4.6993,4.7703,4.7703,4.7938,4.8198,4.8172,4.8172,4.8172,4.8172,4.8172,4.8201,4.8201,4.8201,4.8201,4.8201,4.8201,4.8201,4.8201,4.8201,4.8201,4.8201,4.8201,4.8201,4.8201,4.8201,4.8201,4.8201,4.8201,4.8201,4.8201,4.8201,4.8201,4.8201,4.8201,4.8201,4.8201,4.8201,4.8201,4.8201,4.8201,4.9474,2.558,2.5993,0.0,2.6661,0.0,0.0,0.0,0.0,0.0,0.0,0.0,0.0,0.0,0.0,0.0,0.0,0.0,0.0,0.0,0.0,0.0,0.0,0.0,0.0,0.0,0.0,0.0,0.0,0.0,0.0,0.0,3.8191,3.8191,3.8191,3.8191,3.8191,3.8191,3.8191,3.8191,3.8191,3.8191,3.8191,3.8191,3.8191,3.8191,3.8191,3.8191,3.8191,3.8191,3.8191,3.8191,3.8191,3.8191,3.8191,3.8191,3.8191,3.8437,3.8847,3.9254,4.0904,4.2887,4.3294,4.4737,4.6301,4.6301,4.6301,4.6301,4.6301,4.6301,4.6301,4.6301,4.6661,4.7078,4.7078,4.6959,4.693,4.7168,4.7227,4.7227,4.7227,4.7556,4.785,4.785,4.8026,4.8201,4.8201,4.8201,4.8201,4.8201,4.8201,4.8201,4.8201,4.8201,4.8201,4.8201,4.8201,4.8201,4.8201,4.8201,4.8201,4.8201,4.8201,4.8201,4.8201,4.8201,4.8201,4.8201,4.8201,4.8611,4.939,4.939,5.0657,2.5945,2.6358,0.0,2.6884,2.7042,2.72,2.72,0.0,0.0,0.0,0.0,0.0,0.0,0.0,0.0,0.0,0.0,0.0,0.0,0.0,0.0,0.0,0.0,0.0,0.0,0.0,0.0,0.0,0.0,0.0,0.0,3.8191,3.8191,3.8191,3.8191,3.8191,3.8191,3.8191,3.8191,3.8191,3.8191,3.8191,3.8191,3.8191,3.8191,3.8191,3.8191,3.8191,3.8191,3.8191,3.8191,3.8191,3.8191,3.8191,3.8191,3.8191,3.8536,3.9012,3.9012,4.0775,4.3044,4.3044,4.4521,4.6301,4.6301,4.6301,4.6301,4.6301,4.6301,4.6301,4.6301,4.6476,4.6626,4.6776,4.684,4.693,4.7108,4.7257,4.7346,4.7346,4.7645,4.7909,4.7909,4.8055,4.8201,4.8201,4.8201,4.8201,4.8201,4.8201,4.8201,4.8201,4.8201,4.8201,4.8201,4.8201,4.8201,4.8201,4.8201,4.8201,4.8201,4.8201,4.8201,4.8201,4.8201,4.8201,4.8201,4.8201,4.8524,4.9217,4.9217,5.021,2.6534,2.6725,0.0,2.7121,2.7232,0.0,2.7415,2.7464,2.7995,2.9728,0.0,3.3467,0.0,0.0,0.0,0.0,0.0,0.0,0.0,0.0,0.0,0.0,0.0,0.0,0.0,0.0,0.0,0.0,0.0,0.0,0.0,3.8191,3.8191,3.8191,3.8191,3.8191,3.8191,3.8191,3.8191,3.8191,3.8191,3.8191,3.8191,3.8191,3.8191,3.8191,3.8191,3.8191,3.8191,3.8191,3.8191,3.8191,3.8191,3.8191,3.8191,3.8191,3.8979,4.0018,4.0018,4.1811,4.4127,4.4127,4.5098,4.6301,4.6301,4.6301,4.6301,4.6301,4.6301,4.6301,4.6301,4.6301,4.6386,4.6686,4.7168,4.7586,4.7586,4.7821,4.8052,4.8081,4.8084,4.8114,4.8143,4.8198,4.8201,4.8201,4.8201,4.8201,4.8201,4.8201,4.8201,4.8201,4.8201,4.8201,4.8201,4.8201,4.8201,4.8201,4.8201,4.8201,4.8201,4.8201,4.8201,4.8201,4.8201,4.8201,4.8201,4.8201,4.8201,4.8201,4.8201,4.8813,2.6661,2.6883,0.0,0.0,2.7407,2.7918,2.9044,2.9547,3.0137,3.1325,3.3246,3.5215,3.6757,3.7662,3.8191,0.0,0.0,0.0,0.0,0.0,0.0,0.0,0.0,0.0,0.0,0.0,0.0,0.0,0.0,0.0,3.8191,3.8191,3.8191,3.8191,3.8191,3.8191,3.8191,3.8191,3.8191,0.0,3.8191,3.8191,3.8191,3.8191,3.8191,3.8191,3.8191,3.8191,3.8191,3.8191,3.8191,3.8191,3.8191,3.8191,3.8191,3.8191,3.837,3.8636,3.8636,4.0387,4.2643,4.2643,4.4312,4.6301,4.6301,4.6301,4.6301,4.6301,4.6301,4.6301,4.6301,4.6301,4.6326,4.6416,4.6511,4.6601,4.6601,4.6661,4.678,4.7049,4.7261,4.7501,4.7762,4.8026,4.8201,4.8201,4.8201,4.8201,4.8201,4.8201,4.8201,4.8201,4.8201,4.8201,4.8201,4.8201,4.8201,4.8201,4.8201,4.8201,4.8201,4.8201,4.8201,4.8201,4.8201,4.8201,4.8201,4.8201,4.8201,4.8201,4.8201,4.8813,2.6916,0.0,0.0,2.7407,0.0,2.9026,2.9969,3.1039,3.2131,3.3383,3.4569,3.5858,3.7546,3.8026,3.8191,0.0,0.0,0.0,0.0,0.0,0.0,0.0,0.0,0.0,0.0,0.0,0.0,0.0,0.0,3.8191,3.8191,3.8191,3.8191,3.8191,3.8191,3.8191,3.8191,3.8191,3.8191,3.8191,3.8191,3.8191,3.8191,3.8191,3.8191,3.8191,3.8191,3.8191,3.8191,3.8191,3.8191,3.8191,3.8191,3.8191,3.8191,3.8191,3.8603,3.9155,3.9155,4.0936,4.3201,4.3201,4.4614,4.6301,4.6301,4.6301,4.6301,4.6301,4.6301,4.6301,4.6301,4.6301,4.6301,4.6301,4.6421,4.6536,4.6536,4.678,4.6993,4.7197,4.7468,4.7733,4.7909,4.8084,4.8201,4.8201,4.8201,4.8201,4.8201,4.8201,4.8201,4.8201,4.8463,4.8616,4.8616,4.8881,4.9008,4.9008,4.9008,4.9008,4.9008,4.9008,4.8878,4.8646,4.8616,4.8777,4.9008,4.9008,4.9008,4.9008,4.9008,4.9337,2.7121,0.0,2.7393,2.795,2.9093,0.0,3.1158,3.2548,3.4098,3.5597,3.5664,3.6049,3.7875,3.8191,3.8191,3.8191,0.0,0.0,0.0,0.0,0.0,0.0,0.0,0.0,0.0,0.0,0.0,0.0,0.0,3.8191,3.8191,3.8191,3.8191,3.8191,3.8191,3.8191,3.8191,3.8191,3.8191,3.8191,3.8191,3.8191,3.8191,3.8191,3.8191,3.8191,3.8191,3.8191,3.8191,3.8191,3.8191,3.8191,3.8191,3.8191,3.8225,3.847,3.9254,4.0224,4.0452,4.2192,4.4312,4.4312,4.522,4.6301,4.6301,4.6376,4.6451,4.6451,4.6496,4.6577,4.6577,4.6577,4.6577,4.6577,4.6814,4.6944,4.6741,4.7108,4.7497,4.7527,4.7928,4.827,4.827,4.8378,4.8486,4.8486,4.8486,4.8486,4.8486,4.8486,4.8486,4.8486,4.896,4.9218,4.9218,4.9636,4.9897,4.9897,4.9897,4.9897,4.9897,4.9897,4.974,4.9401,4.93,4.9483,4.9897,4.9897,4.9897,4.9897,4.9897,4.9897,2.7185,0.0,2.7966,0.0,3.0241,3.1544,0.0,0.0,3.598,0.0,3.6776,3.6305,3.7904,3.8191,3.8191,3.8191,0.0,0.0,0.0,0.0,0.0,0.0,0.0,0.0,0.0,0.0,0.0,0.0,3.8191,3.8191,3.8191,3.8191,3.8191,3.8191,3.8191,3.8191,3.8191,3.8191,3.8191,3.8191,3.8191,3.8191,3.8191,3.8191,3.8191,3.8191,3.8191,3.8191,3.8191,3.8191,3.8191,3.8191,3.8191,3.8191,3.8337,3.9517,4.0051,4.0354,4.1524,4.2981,4.4312,4.4312,4.522,4.6301,4.6301,4.6622,4.6998,4.6998,4.7324,4.7707,4.7707,4.7707,4.7707,4.7707,4.7738,4.7492,4.6562,4.6421,4.6571,4.684,4.7816,4.8569,4.8569,4.9169,4.9662,4.9662,4.9662,4.9662,4.9662,4.9662,4.9662,4.9662,4.974,4.9793,4.9793,4.9845,4.9897,4.9897,4.9897,4.9897,4.9897,4.9897,5.0106,5.0551,5.0054,4.9819,4.9897,4.9897,4.9897,4.9897,4.9897,4.9897,2.8444,2.881,2.9396,0.0,3.2627,3.3853,3.5336,0.0,3.7381,3.8037,3.767,3.7381,3.8091,3.8191,3.8191,3.8191,0.0,0.0,0.0,0.0,0.0,0.0,0.0,0.0,0.0,0.0,0.0,0.0,3.8191,3.8191,3.8191,3.8191,3.8191,3.8191,3.8191,3.8191,3.8191,3.8191,3.8191,3.8191,3.8191,3.8191,3.8191,3.8191,3.8191,3.8191,3.8191,3.8191,3.8191,3.8191,3.8191,3.8191,3.8191,3.8191,3.8291,3.8847,3.9721,4.0673,4.1272,4.3101,4.514,4.514,4.6073,4.7205,4.7205,4.738,4.7525,4.7525,4.7732,4.7908,4.7908,4.7908,4.7908,4.7908,4.7908,4.7782,4.7305,4.7327,4.7633,4.8144,4.8683,4.911,4.9291,4.965,4.9897,4.9897,4.9897,4.9897,4.9897,4.9897,4.9897,4.9897,5.0185,5.0394,5.0394,5.0681,5.0838,5.0838,5.0838,5.0838,5.0838,5.0838,5.0969,5.123,5.0681,5.0551,5.0838,5.0838,5.0838,5.0838,5.0838,5.0838,0.0,0.0,3.1218,3.3262,3.4652,3.5701,0.0,0.0,3.8191,0.0,3.8191,3.8191,3.8191,3.8191,3.8191,3.8191,3.8191,0.0,0.0,0.0,0.0,0.0,0.0,0.0,0.0,0.0,0.0,0.0,3.8191,3.8191,3.8191,3.8191,3.8191,3.8191,3.8191,3.8191,3.8191,3.8191,3.8191,3.8191,3.8191,3.8253,3.8357,3.8357,3.8419,3.8523,3.8295,3.8191,3.8225,3.8316,3.8357,3.8357,3.8481,3.8523,3.8556,3.8925,3.9896,4.1176,4.1881,4.3743,4.587,4.6221,4.7037,4.7908,4.7908,4.8008,4.8134,4.8134,4.8234,4.8335,4.8335,4.8335,4.8335,4.8335,4.8335,4.8291,4.8076,4.8244,4.8584,4.9193,4.948,4.9706,4.9954,5.0207,5.0315,5.0315,5.0315,5.0315,5.0315,5.0315,5.0315,5.0315,5.0734,5.0995,5.0995,5.1361,5.1596,5.1596,5.1596,5.1596,5.1596,5.1596,5.1596,5.1596,5.1204,5.1204,5.1596,5.1596,5.1596,5.1596,5.1596,5.1596,0.0,3.1425,0.0,3.4926,3.5572,3.6276,0.0,0.0,3.8191,3.8191,3.8191,3.8191,3.8191,3.8191,3.8191,3.8191,3.8191,0.0,0.0,0.0,0.0,0.0,0.0,0.0,0.0,0.0,0.0,0.0,3.8191,3.8191,3.8191,3.8191,3.8191,3.8191,3.8191,3.8191,3.8191,3.8191,3.8191,3.8191,3.8191,3.8398,3.8778,3.8778,3.9027,3.9378,3.8564,3.8191,3.8212,3.8613,3.8778,3.882,3.9254,3.944,3.9592,4.0915,4.1489,4.1948,4.463,4.5654,4.603,4.7351,4.7845,4.7908,4.7908,4.8284,4.8768,4.8768,4.9113,4.9515,4.9515,4.9515,4.9515,4.9515,4.9515,4.9309,4.8621,4.8486,4.8609,4.8948,4.9693,5.0271,5.0302,5.0966,5.1518,5.1518,5.1518,5.1518,5.1518,5.1518,5.1518,5.1518,5.1544,5.1544,5.1544,5.157,5.1596,5.1596,5.1596,5.1596,5.1596,5.1596,5.1596,5.1596,5.157,5.157,5.1596,5.1596,5.1596,5.1596,5.1596,5.1596,0.0,0.0,0.0,3.6757,3.7293,3.7515,3.8071,3.8191,3.8191,3.8191,3.8191,3.8191,3.8191,3.8191,3.8191,3.8191,3.8191,0.0,0.0,0.0,0.0,0.0,0.0,0.0,0.0,0.0,0.0,0.0,0.0,3.8191,3.8191,3.8191,3.8191,3.8191,3.8191,3.8191,3.8191,3.8191,3.8336,3.8572,3.8572,3.882,3.9254,3.9254,3.9358,3.9482,3.9151,3.9027,3.9061,3.9192,3.9254,3.9275,3.944,3.9502,3.9571,4.0067,4.0428,4.0853,4.1841,4.3004,4.4289,4.5704,4.6815,4.775,4.8675,4.9138,4.9289,4.9289,4.9439,4.959,4.959,4.959,4.959,4.959,4.959,4.9586,4.9558,4.9362,4.9362,4.9905,5.0273,5.0621,5.1059,5.1403,5.1596,5.1596,5.1596,5.1596,5.1596,5.1596,5.1596,5.1596,5.1596,5.1596,5.1596,5.1596,5.1596,5.1596,5.1596,5.1596,5.1596,5.1596,5.1596,5.1596,5.1596,5.1596,5.1596,5.1596,5.1596,5.1596,5.1596,5.1596,3.4648,0.0,0.0,0.0,3.8191,3.8191,3.8191,0.0,3.8191,3.8191,3.8191,3.8191,3.8191,3.8191,3.8191,3.8191,3.8191,3.8191,0.0,0.0,0.0,0.0,0.0,0.0,0.0,0.0,0.0,0.0,0.0,0.0,3.8191,3.8191,3.8191,3.8191,3.8191,3.8253,3.8398,3.8398,3.8592,3.9047,3.9047,3.9296,3.973,3.973,3.9813,3.9992,3.9992,3.9792,3.9523,3.9668,3.973,3.9751,3.9895,3.9992,3.9992,3.9992,4.0179,4.0518,4.099,4.2314,4.4045,4.5492,4.6936,4.8338,4.9299,4.959,4.959,4.959,4.959,4.959,4.959,4.959,4.959,4.959,4.959,4.9654,4.9879,4.9912,5.0104,5.0677,5.0842,5.1063,5.1534,5.1596,5.1596,5.1596,5.1596,5.1596,5.1596,5.1596,5.1596,5.1596,5.1596,5.1596,5.1596,5.1596,5.1596,5.1596,5.1596,5.1596,5.1596,5.1596,5.1596,5.1596,5.1596,5.1596,5.1596,5.1596,5.1596,5.1596,5.1596,5.1596,0.0,0.0,0.0,0.0,0.0,0.0,3.8191,0.0,3.8191,3.8191,3.8191,3.8191,3.8191,3.8191,3.8191,3.8191,3.8191,3.8191,3.8191,0.0,0.0,0.0,0.0,0.0,0.0,0.0,0.0,0.0,3.8191,3.8191,3.8191,3.8191,3.8225,3.8212,3.8212,3.8419,3.8841,3.8841,3.9068,3.9523,3.9523,3.9771,4.0206,4.0206,4.0468,4.0918,4.0918,4.0386,3.9585,4.0019,4.0206,4.0247,4.0717,4.0918,4.0918,4.0918,4.0954,4.1147,4.2608,4.4011,4.5435,4.6903,4.8371,4.9525,4.959,4.959,4.959,4.959,4.959,4.959,4.959,4.959,4.959,4.959,4.9622,4.9622,4.9622,5.0136,5.0715,5.1025,5.1346,5.1596,5.1596,5.1596,5.1596,5.1596,5.1596,5.1596,5.1596,5.1596,5.1596,5.1596,5.1596,5.1596,5.1596,5.1596,5.1596,5.1596,5.1596,5.1596,5.1596,5.1596,5.1596,5.1596,5.1596,5.1596,5.1596,5.1596,5.1596,5.1596,5.1596,5.1596,3.7031,0.0,0.0,0.0,0.0,0.0,0.0,0.0,3.8191,3.8191,3.8191,3.8191,3.8191,3.8191,3.8191,3.8191,3.8191,3.8191,3.8191,0.0,0.0,0.0,0.0,0.0,0.0,0.0,0.0,0.0,3.8191,3.8191,3.8191,3.8191,3.8336,3.8613,3.8634,3.8841,3.9316,3.9316,3.9544,3.9999,3.9999,4.0226,4.0696,4.0696,4.0794,4.0918,4.0918,4.0737,4.051,4.0634,4.0696,4.0717,4.0856,4.0918,4.0918,4.0918,4.1573,4.2538,4.2958,4.4011,4.5435,4.6903,4.7689,4.8207,4.9299,4.959,4.959,4.959,4.959,4.959,4.959,4.959,4.959,4.959,4.9783,4.9944,4.9944,5.0487,5.0931,5.0772,5.1025,5.134,5.1565,5.1596,5.1596,5.1596,5.1596,5.1596,5.1596,5.1596,5.1596,5.1596,5.1596,5.1596,5.1596,5.1596,5.1596,5.1596,5.1596,5.1596,5.1596,5.1596,5.1596,5.1596,5.1596,5.1596,5.1596,5.1596,5.1596,5.1596,5.1596,5.1596,0.0,0.0,0.0,0.0,0.0,0.0,3.8191,3.8191,3.8191,0.0,3.8191,3.8191,3.8191,3.8191,3.8191,3.8191,3.8191,3.8191,3.8191,3.8191,0.0,0.0,0.0,0.0,0.0,3.8191,3.8191,3.8191,3.8191,3.8191,3.8191,3.8357,3.8551,3.8799,3.9006,3.9316,3.9792,3.9771,4.0034,4.051,4.051,4.0634,4.0918,4.0918,4.0918,4.0918,4.0918,4.0918,4.0918,4.0918,4.0918,4.0918,4.0918,4.1289,4.182,4.182,4.2748,4.3976,4.3976,4.4914,4.6268,4.7103,4.7821,4.8469,4.9364,4.959,4.959,4.959,4.959,4.959,4.959,4.959,4.959,4.959,4.9751,4.9879,4.9879,5.0295,5.0709,5.0804,5.1063,5.1346,5.1565,5.1596,5.1596,5.1596,5.1596,5.1596,5.1596,5.1596,5.1596,5.1596,5.1596,5.1596,5.1596,5.1596,5.1596,5.1596,5.1596,5.1596,5.1596,5.1596,5.1596,5.1596,5.1596,5.1596,5.1596,5.1596,5.1596,5.1596,5.1596,5.1596,0.0,0.0,0.0,0.0,0.0,0.0,3.8191,3.8191,3.8191,0.0,3.8191,3.8191,3.8191,3.8191,3.8191,3.8191,3.8191,3.8191,3.8191,3.8191,0.0,0.0,0.0,0.0,3.8191,3.8191,3.8191,3.8191,3.8191,3.8212,3.8253,3.8592,3.8861,3.8965,3.9358,3.9792,4.0268,4.0282,4.0504,4.0918,4.0918,4.0918,4.0918,4.0918,4.0918,4.0918,4.0918,4.0918,4.0918,4.0918,4.0918,4.0918,4.0918,4.1714,4.2853,4.2853,4.3769,4.4983,4.4983,4.6033,4.7425,4.7425,4.8404,4.959,4.959,4.959,4.959,4.959,4.959,4.959,4.959,4.959,4.959,4.959,4.9622,4.9654,4.9654,4.9944,5.0391,5.0994,5.134,5.1565,5.1596,5.1596,5.1596,5.1596,5.1596,5.1596,5.1596,5.1596,5.1596,5.1596,5.1596,5.1596,5.1596,5.1596,5.1596,5.1596,5.1596,5.1596,5.1596,5.1596,5.1596,5.1596,5.1596,5.1596,5.1596,5.1596,5.1596,5.1596,5.1596,5.1596,0.0,0.0,0.0,0.0,0.0,0.0,3.8191,3.8191,3.8191,0.0,3.8191,3.8191,3.8191,3.8191,3.8191,3.8191,3.8191,3.8191,3.8191,3.8191,3.8191,0.0,0.0,0.0,3.8191,3.8191,3.8191,3.8191,3.8191,3.8336,3.8675,3.8758,3.9151,3.9895,4.0019,4.0303,4.0737,4.0773,4.0814,4.0918,4.0918,4.0918,4.0918,4.0918,4.0918,4.0918,4.0918,4.0918,4.0918,4.0918,4.0918,4.0918,4.0918,4.1096,4.1324,4.1324,4.2257,4.3492,4.3492,4.5221,4.7425,4.7425,4.8404,4.959,4.959,4.959,4.959,4.959,4.959,4.959,4.959,4.959,4.959,4.959,4.9808,5.0001,5.0001,5.0455,5.0931,5.1057,5.1151,5.1277,5.1534,5.1596,5.1596,5.1596,5.1596,5.1596,5.1596,5.1596,5.1596,5.1596,5.1596,5.1596,5.1596,5.1596,5.1596,5.1596,5.1596,5.1596,5.1596,5.1596,5.1596,5.1596,5.1596,5.1596,5.1596,5.1596,5.1596,5.1596,5.1596,5.1596,0.0,0.0,0.0,3.8191,0.0,0.0,0.0,3.8191,3.8191,3.8191,3.8191,3.8191,3.8191,3.8191,3.8191,3.8191,3.8191,3.8191,3.8191,3.8191,3.8191,3.8191,0.0,0.0,3.8191,3.8191,3.8191,3.8191,3.8398,3.8572,3.8799,3.9254,3.9709,4.0185,4.0448,4.0655,4.0918,4.0918,4.0918,4.0918,4.0918,4.0918,4.0918,4.0918,4.0918,4.0918,4.0918,4.0918,4.0918,4.0918,4.0918,4.0918,4.0918,4.136,4.1997,4.1997,4.3388,4.5255,4.5255,4.667,4.8502,4.8502,4.9015,4.959,4.959,4.959,4.959,4.959,4.959,4.959,4.959,4.959,4.959,4.959,4.9873,5.0097,5.0097,5.0487,5.0899,5.1057,5.1088,5.1214,5.1534,5.1596,5.1596,5.1596,5.1596,5.1596,5.1596,5.1596,5.1596,5.1596,5.1596,5.1596,5.1596,5.1596,5.1596,5.1596,5.1596,5.1596,5.1596,5.1596,5.1596,5.1596,5.1596,5.1596,5.1596,5.1596,5.1596,5.1596,5.1596,5.1596,0.0,0.0,0.0,0.0,0.0,3.8191,0.0,0.0,0.0,3.8191,3.8191,0.0,0.0,0.0,0.0,0.0,0.0,0.0,0.0,3.8191,0.0,3.8191,0.0,0.0,3.8191,3.8191,3.8212,3.8316,3.8613,3.8882,3.9068,3.9792,4.0226,4.0309,4.0696,4.0918,4.0918,4.0918,4.0918,4.0918,4.0918,4.0918,4.0918,4.0918,4.0918,4.0918,4.0918,4.0918,4.0918,4.0918,4.0918,4.0918,4.0918,4.1643,4.2678,4.2678,4.4333,4.6536,4.6268,4.7269,4.8755,4.8755,4.9145,4.959,4.959,4.959,4.959,4.959,4.959,4.959,4.959,4.959,4.959,4.959,4.9873,5.0097,5.0097,5.0423,5.0804,5.1057,5.1151,5.1277,5.1534,5.1596,5.1596,5.1596,5.1596,5.1596,5.1596,5.1596,5.1596,5.1596,5.1596,5.1596,5.1596,5.1596,5.1596,5.1596,5.1596,5.1596,5.1596,5.1596,5.1596,5.1596,5.1596,5.1596,5.1596,5.1596,5.1596,5.1596,5.1596,5.1596,0.0,0.0,0.0,0.0,3.8191,0.0,0.0,0.0,3.8191,3.8191,0.0,0.0,0.0,0.0,0.0,0.0,0.0,0.0,3.8191,3.8191,3.8191,3.8191,3.8191,0.0,0.0,3.8191,3.8357,3.8716,3.8778,3.9171,3.9999,4.0143,4.0406,4.0835,4.0877,4.0918,4.0918,4.0918,4.0918,4.0918,4.0918,4.0918,4.0918,4.0918,4.0918,4.0918,4.0918,4.0918,4.0918,4.0918,4.0918,4.0918,4.0918,4.1025,4.1147,4.1147,4.2187,4.3388,4.2081,4.3436,4.5695,4.5695,4.7491,4.959,4.959,4.959,4.959,4.959,4.959,4.959,4.959,4.959,4.959,4.959,4.9873,5.0097,5.0097,5.0582,5.1057,5.1088,5.134,5.1565,5.1596,5.1596,5.1596,5.1596,5.1596,5.1596,5.1596,5.1596,5.1596,5.1596,5.1596,5.1596,5.1596,5.1596,5.1596,5.1596,5.1596,5.1596,5.1596,5.1596,5.1596,5.1596,5.1596,5.1596,5.1596,5.1596,5.1596,5.1596,5.1596,5.1596,0.0,0.0,0.0,0.0,0.0,0.0,0.0,0.0,3.8191,0.0,0.0,0.0,0.0,0.0,0.0,0.0,3.8191,0.0,0.0,0.0,3.8191,0.0,0.0,0.0,0.0,0.0,0.0,0.0,3.9068,3.9502,4.0179,4.0468,4.0696,4.0897,4.0918,4.0918,4.0918,4.0918,4.0918,4.0918,4.0918,4.0918,4.0918,4.0918,4.0918,4.0918,4.0918,4.0918,4.0918,4.0918,4.0918,4.0918,4.0918,4.0918,4.0918,4.0918,4.182,4.2992,4.2398,4.4058,4.6636,4.7491,4.86,4.959,4.959,4.959,4.959,4.959,4.959,4.959,4.959,4.959,4.959,4.959,5.0008,5.0391,5.0391,5.0931,5.1377,5.1377,5.1502,5.1596,5.1596,5.1596,5.1596,5.1596,5.1596,5.1596,5.1596,5.1596,5.1596,5.1596,5.1596,5.1596,5.1596,5.1596,5.1596,5.1596,5.1596,5.1596,5.1596,5.1596,5.1596,5.1596,5.1596,5.1596,5.1596,5.1596,5.1596,5.1596,5.1596,5.1596,3.8191,0.0,0.0,0.0,0.0,0.0,0.0,0.0,0.0,0.0,0.0,0.0,0.0,0.0,0.0,0.0,0.0,3.8191,0.0,3.8191,0.0,0.0,0.0,0.0,0.0,0.0,0.0,3.8965,3.9316,3.9751,4.0379,4.0732,4.0918,4.0918,4.0918,4.0918,4.0918,4.0918,4.0918,4.0918,4.0918,4.0918,4.0918,4.0918,4.0918,4.0918,4.0918,4.0918,4.0918,4.0918,4.0918,4.0918,4.0918,4.0918,4.0918,4.0918,4.2081,4.3631,4.3236,4.4983,4.759,4.8632,4.9242,4.959,4.959,4.959,4.959,4.959,4.959,4.959,4.959,4.959,4.959,4.959,5.0104,5.0588,5.0588,5.1126,5.1596,5.1596,5.1596,5.1596,5.1596,5.1596,5.1596,5.1596,5.1596,5.1596,5.1596,5.1596,5.1596,5.1596,5.1596,5.1596,5.1596,5.1596,5.1596,5.1596,5.1596,5.1596,5.1596,5.1596,5.1675,5.1831,5.1831,5.1936,5.2093,5.2093,5.2093,5.2093,5.1753,5.1596,0.0,0.0,0.0,3.8191,0.0,0.0,0.0,0.0,3.8191,0.0,0.0,0.0,0.0,0.0,0.0,0.0,0.0,0.0,0.0,0.0,0.0,0.0,0.0,0.0,0.0,0.0,3.8564,3.942,3.9502,3.9895,4.0835,4.0897,4.0918,4.0918,4.0918,4.0918,4.0918,4.0918,4.0918,4.0918,4.0918,4.0918,4.0918,4.0918,4.0918,4.0918,4.0918,4.0918,4.0918,4.0918,4.0918,4.0918,4.0918,4.0918,4.0918,4.0918,4.2691,4.4948,4.3562,4.4983,4.7425,4.7458,4.8436,4.959,4.959,4.959,4.959,4.959,4.959,4.959,4.959,4.959,4.959,4.959,5.0104,5.0588,5.0588,5.1126,5.1596,5.1596,5.1596,5.1596,5.1596,5.1596,5.1596,5.1596,5.1596,5.1596,5.1596,5.1596,5.1596,5.1596,5.1596,5.1596,5.1596,5.1596,5.1596,5.1596,5.1596,5.1596,5.1596,5.1596,5.1884,5.2459,5.2459,5.2746,5.3347,5.3347,5.3347,5.3295,5.2145,5.1596,0.0,0.0,3.8191,3.8191,0.0,0.0,0.0,0.0,0.0,0.0,0.0,0.0,0.0,0.0,0.0,0.0,0.0,0.0,0.0,0.0,0.0,0.0,0.0,0.0,0.0,0.0,0.0,3.9461,3.9792,4.0261,4.0877,4.0918,4.0918,4.0918,4.0918,4.0918,4.0918,4.0918,4.0918,4.0918,4.0918,4.0918,4.0918,4.0918,4.0918,4.0918,4.0918,4.0918,4.0918,4.0918,4.0918,4.0918,4.0918,4.0918,4.0918,4.0918,4.1537,4.2411,4.2923,4.4355,4.6076,4.7069,4.8404,4.959,4.959,4.959,4.959,4.959,4.959,4.959,4.959,4.9751,4.9937,4.9937,5.0455,5.0931,5.0931,5.1283,5.1596,5.1596,5.1596,5.1596,5.1596,5.1596,5.1596,5.1596,5.1596,5.1596,5.1596,5.1596,5.1596,5.1596,5.1596,5.1596,5.1596,5.1962,5.2197,5.2197,5.2563,5.2772,5.2772,5.2772,5.2877,5.3086,5.3086,5.3191,5.34,5.34,5.34,5.34,5.2981,5.2772,3.8191,3.8191,0.0,3.8191,3.8191,0.0,3.8191,0.0,0.0,0.0,0.0,0.0,0.0,0.0,0.0,0.0,0.0,0.0,0.0,3.8191,0.0,0.0,0.0,0.0,0.0,0.0,3.8903,3.9688,3.9875,4.0241,0.0,0.0,4.0918,4.0918,4.0918,4.0918,4.0918,4.0918,4.0918,4.0918,4.0918,4.0918,4.0918,4.0918,4.0918,4.0918,4.0918,4.0918,4.0918,4.0918,4.0918,4.0918,4.0918,4.0918,4.0918,4.0918,4.1551,4.2656,4.4092,4.556,4.6903,4.7854,4.8853,4.959,4.959,4.959,4.9565,4.9364,4.9439,4.9572,4.9524,4.9817,5.018,5.0544,5.1017,5.1482,5.1664,5.197,5.2223,5.2223,5.2223,5.2223,5.2223,5.2223,5.2093,5.1648,5.1596,5.1675,5.1884,5.191,5.1988,5.2223,5.2223,5.2223,5.2223,5.2589,5.2825,5.2825,5.3191,5.34,5.34,5.34,5.3478,5.3687,5.3687,5.3792,5.4001,5.4001,5.4001,5.4001,5.4001,5.4001]},{"header":{"parameterUnit":"m.s-1","parameterCategory":1,"la1":30.6,"la2":29.2853,"lo1":-89.7004,"lo2":-87.6739,"dy":0.0162,"dx":0.0183,"nx":112,"ny":82,"refTime":"2023-04-11T18:00:00:Z","depth":0,"parameterNumber":3,"parameterNumberName":"V-component_of_WINDS"},"data":[0.0,0.0,0.0,0.0,0.0,0.0,0.0,0.0,0.0,0.0,0.0,0.0,0.0,0.0,0.0,0.0,0.0,0.0,0.0,0.0,0.0,0.0,0.0,0.0,0.0,0.0,0.0,0.0,0.0,0.0,0.0,0.0,0.0,0.0,0.0,0.0,0.0,0.0,0.0,0.0,0.0,0.0,0.0,0.0,0.0,0.0,0.0,0.0,0.0,0.0,0.0,0.0,0.0,0.0,0.0,0.0,0.0,0.0,0.0,0.0,0.0,0.0,0.0,0.0,0.0,0.0,0.0,0.0,0.0,0.0,0.0,0.0,0.0,0.0,0.0,0.0,0.0,0.0,0.0,0.0,0.0,0.0,0.0,0.0,0.0,0.0,0.0,0.0,0.0,0.0,3.1717,3.1717,3.1717,3.1717,3.1717,3.1717,3.1272,3.026,0.0,0.0,0.0,0.0,0.0,0.0,0.0,0.0,0.0,0.0,0.0,0.0,0.0,0.0,0.0,0.0,0.0,0.0,0.0,0.0,0.0,0.0,0.0,0.0,0.0,0.0,0.0,0.0,0.0,0.0,0.0,0.0,0.0,0.0,0.0,0.0,0.0,0.0,0.0,0.0,0.0,0.0,0.0,0.0,0.0,0.0,0.0,0.0,0.0,0.0,0.0,0.0,0.0,0.0,0.0,0.0,0.0,0.0,0.0,0.0,0.0,0.0,0.0,0.0,0.0,0.0,0.0,0.0,0.0,0.0,0.0,0.0,0.0,0.0,0.0,0.0,0.0,0.0,0.0,0.0,0.0,0.0,0.0,0.0,0.0,0.0,0.0,0.0,0.0,0.0,0.0,0.0,0.0,0.0,0.0,0.0,0.0,0.0,0.0,0.0,0.0,0.0,0.0,0.0,3.1717,3.1717,3.1717,3.1717,3.1717,3.1717,3.1272,3.026,0.0,0.0,0.0,0.0,0.0,0.0,0.0,0.0,0.0,0.0,0.0,0.0,0.0,0.0,0.0,0.0,0.0,0.0,0.0,0.0,0.0,0.0,0.0,0.0,0.0,0.0,0.0,0.0,0.0,0.0,0.0,0.0,0.0,0.0,0.0,0.0,0.0,0.0,0.0,0.0,0.0,0.0,0.0,0.0,0.0,0.0,0.0,0.0,0.0,0.0,0.0,0.0,0.0,0.0,0.0,0.0,0.0,0.0,0.0,0.0,0.0,0.0,0.0,0.0,0.0,0.0,0.0,0.0,0.0,0.0,0.0,0.0,0.0,0.0,0.0,0.0,0.0,0.0,0.0,0.0,0.0,0.0,0.0,0.0,0.0,0.0,0.0,0.0,0.0,0.0,0.0,0.0,0.0,0.0,0.0,0.0,0.0,0.0,0.0,0.0,0.0,0.0,0.0,3.1717,3.1717,3.1717,3.1717,3.1717,3.1717,3.1717,3.1272,3.026,2.9258,0.0,0.0,0.0,0.0,0.0,0.0,0.0,0.0,0.0,0.0,0.0,0.0,0.0,0.0,0.0,0.0,0.0,0.0,0.0,0.0,0.0,0.0,0.0,0.0,0.0,0.0,0.0,0.0,0.0,0.0,0.0,0.0,0.0,0.0,0.0,0.0,0.0,0.0,0.0,0.0,0.0,0.0,0.0,0.0,0.0,0.0,0.0,0.0,0.0,0.0,0.0,0.0,0.0,0.0,0.0,0.0,0.0,0.0,0.0,0.0,0.0,0.0,0.0,0.0,0.0,0.0,0.0,0.0,0.0,0.0,0.0,0.0,0.0,0.0,0.0,0.0,0.0,0.0,0.0,0.0,0.0,0.0,0.0,0.0,0.0,0.0,0.0,0.0,0.0,0.0,0.0,0.0,0.0,0.0,0.0,0.0,0.0,0.0,0.0,0.0,0.0,0.0,3.213,3.2023,3.2089,3.1871,3.1717,3.1761,3.1739,3.1272,3.026,2.9258,0.0,0.0,0.0,0.0,0.0,0.0,0.0,0.0,0.0,0.0,0.0,0.0,0.0,0.0,0.0,0.0,0.0,0.0,0.0,0.0,0.0,0.0,0.0,0.0,0.0,0.0,0.0,0.0,0.0,0.0,0.0,0.0,0.0,0.0,0.0,0.0,0.0,0.0,0.0,0.0,0.0,0.0,0.0,0.0,0.0,0.0,0.0,0.0,0.0,0.0,0.0,0.0,0.0,0.0,0.0,0.0,0.0,0.0,0.0,0.0,0.0,0.0,0.0,0.0,0.0,0.0,0.0,0.0,0.0,0.0,0.0,0.0,0.0,0.0,0.0,0.0,0.0,0.0,0.0,0.0,0.0,0.0,0.0,0.0,0.0,0.0,0.0,0.0,0.0,0.0,0.0,0.0,0.0,0.0,0.0,0.0,0.0,0.0,0.0,0.0,0.0,0.0,3.3416,3.3018,3.3258,3.2329,3.1783,3.1959,3.1805,3.1272,3.026,2.9258,0.0,0.0,0.0,0.0,0.0,0.0,0.0,0.0,0.0,0.0,0.0,0.0,0.0,0.0,0.0,0.0,0.0,0.0,0.0,0.0,0.0,0.0,0.0,0.0,0.0,0.0,0.0,0.0,0.0,0.0,0.0,0.0,0.0,0.0,0.0,0.0,0.0,0.0,0.0,0.0,0.0,0.0,0.0,0.0,0.0,0.0,0.0,0.0,0.0,0.0,0.0,0.0,0.0,0.0,0.0,0.0,0.0,0.0,0.0,0.0,0.0,0.0,0.0,0.0,0.0,0.0,0.0,0.0,0.0,0.0,0.0,0.0,0.0,0.0,0.0,0.0,0.0,0.0,0.0,0.0,0.0,0.0,0.0,0.0,0.0,0.0,0.0,0.0,0.0,0.0,0.0,0.0,0.0,0.0,0.0,0.0,0.0,0.0,0.0,0.0,0.0,0.0,3.3649,3.3186,0.0,3.2286,3.1739,3.1805,3.1739,3.1272,3.026,0.0,0.0,0.0,0.0,0.0,0.0,0.0,0.0,0.0,0.0,0.0,0.0,0.0,0.0,0.0,0.0,0.0,0.0,0.0,0.0,0.0,0.0,0.0,0.0,0.0,0.0,0.0,0.0,0.0,0.0,0.0,0.0,0.0,0.0,0.0,0.0,0.0,0.0,0.0,0.0,0.0,0.0,0.0,0.0,0.0,0.0,0.0,0.0,0.0,0.0,0.0,0.0,0.0,0.0,0.0,0.0,0.0,0.0,0.0,0.0,0.0,0.0,0.0,0.0,0.0,0.0,0.0,0.0,0.0,0.0,0.0,0.0,0.0,0.0,0.0,0.0,0.0,0.0,0.0,0.0,0.0,0.0,0.0,0.0,0.0,0.0,0.0,0.0,0.0,0.0,0.0,0.0,0.0,0.0,0.0,0.0,0.0,0.0,0.0,0.0,0.0,0.0,3.5183,3.4562,3.4111,0.0,3.31,3.2457,3.2242,3.2176,3.1691,3.0757,0.0,0.0,0.0,0.0,0.0,0.0,0.0,0.0,0.0,0.0,0.0,0.0,0.0,0.0,0.0,0.0,0.0,0.0,0.0,0.0,0.0,0.0,0.0,0.0,0.0,0.0,0.0,0.0,0.0,0.0,0.0,0.0,0.0,0.0,0.0,0.0,0.0,0.0,0.0,0.0,0.0,0.0,0.0,0.0,0.0,0.0,0.0,0.0,0.0,0.0,0.0,0.0,0.0,0.0,0.0,0.0,0.0,0.0,0.0,0.0,0.0,0.0,0.0,0.0,0.0,0.0,0.0,0.0,0.0,0.0,0.0,0.0,0.0,0.0,0.0,0.0,0.0,0.0,0.0,0.0,0.0,0.0,0.0,0.0,0.0,0.0,0.0,0.0,0.0,0.0,0.0,0.0,0.0,0.0,0.0,0.0,0.0,0.0,0.0,0.0,0.0,0.0,3.7017,3.6421,3.6004,3.6011,3.4985,3.4027,3.345,3.3147,3.2605,0.0,0.0,0.0,0.0,0.0,0.0,0.0,0.0,0.0,0.0,0.0,0.0,0.0,0.0,0.0,0.0,0.0,0.0,0.0,0.0,0.0,0.0,0.0,0.0,0.0,0.0,0.0,0.0,0.0,0.0,0.0,0.0,0.0,0.0,0.0,0.0,0.0,0.0,0.0,0.0,0.0,0.0,0.0,0.0,0.0,0.0,0.0,0.0,0.0,0.0,0.0,0.0,0.0,0.0,0.0,0.0,0.0,0.0,0.0,0.0,0.0,0.0,0.0,0.0,0.0,0.0,0.0,0.0,0.0,0.0,0.0,0.0,0.0,0.0,0.0,0.0,0.0,0.0,0.0,0.0,0.0,0.0,0.0,0.0,0.0,0.0,0.0,0.0,0.0,0.0,0.0,0.0,0.0,0.0,0.0,0.0,0.0,0.0,0.0,0.0,0.0,0.0,0.0,3.7037,3.6539,3.6096,3.5823,3.434,3.3314,3.3122,3.2479,3.1979,3.1717,0.0,0.0,0.0,0.0,0.0,0.0,0.0,0.0,0.0,0.0,0.0,0.0,0.0,0.0,0.0,0.0,0.0,0.0,0.0,0.0,0.0,0.0,0.0,0.0,0.0,0.0,0.0,0.0,0.0,0.0,0.0,0.0,0.0,0.0,0.0,0.0,0.0,0.0,0.0,0.0,0.0,0.0,0.0,0.0,0.0,0.0,0.0,0.0,0.0,0.0,0.0,0.0,0.0,0.0,0.0,0.0,0.0,0.0,0.0,0.0,0.0,0.0,0.0,0.0,0.0,0.0,0.0,0.0,0.0,0.0,0.0,0.0,0.0,0.0,0.0,0.0,0.0,0.0,0.0,0.0,0.0,0.0,0.0,0.0,0.0,0.0,0.0,0.0,0.0,0.0,0.0,0.0,0.0,0.0,0.0,0.0,0.0,0.0,0.0,0.0,0.0,0.0,3.7153,3.7017,3.6814,3.65,3.5163,3.4194,3.3838,3.2932,3.2198,3.1849,0.0,0.0,0.0,0.0,0.0,0.0,0.0,0.0,0.0,0.0,0.0,0.0,0.0,0.0,0.0,0.0,0.0,0.0,0.0,0.0,0.0,0.0,0.0,0.0,0.0,0.0,0.0,0.0,0.0,0.0,0.0,0.0,0.0,0.0,0.0,0.0,0.0,0.0,0.0,0.0,0.0,0.0,0.0,0.0,0.0,0.0,0.0,0.0,0.0,0.0,0.0,0.0,0.0,0.0,0.0,0.0,0.0,0.0,0.0,0.0,0.0,0.0,0.0,0.0,0.0,0.0,0.0,0.0,0.0,0.0,0.0,0.0,0.0,0.0,0.0,0.0,0.0,0.0,0.0,0.0,0.0,0.0,0.0,0.0,0.0,0.0,0.0,0.0,0.0,0.0,0.0,0.0,0.0,0.0,0.0,0.0,0.0,0.0,0.0,0.0,0.0,0.0,3.7308,3.7663,3.7815,3.7625,3.6814,3.5956,3.504,3.4016,3.2979,3.2025,0.0,0.0,0.0,0.0,0.0,0.0,0.0,0.0,0.0,0.0,0.0,0.0,0.0,0.0,0.0,0.0,0.0,0.0,0.0,0.0,0.0,0.0,0.0,0.0,0.0,0.0,0.0,0.0,0.0,0.0,0.0,0.0,0.0,0.0,0.0,0.0,0.0,0.0,0.0,0.0,0.0,0.0,0.0,0.0,0.0,0.0,0.0,0.0,0.0,0.0,0.0,0.0,0.0,0.0,0.0,0.0,0.0,0.0,0.0,0.0,4.5835,0.0,0.0,0.0,0.0,0.0,0.0,0.0,0.0,0.0,0.0,0.0,0.0,0.0,0.0,0.0,0.0,0.0,0.0,0.0,0.0,0.0,0.0,0.0,0.0,0.0,0.0,0.0,0.0,0.0,0.0,0.0,0.0,0.0,0.0,0.0,0.0,0.0,0.0,0.0,0.0,0.0,3.7308,3.7663,3.7815,3.7625,3.6814,3.5849,3.4768,3.3859,3.2864,3.1827,3.1871,0.0,0.0,0.0,0.0,0.0,0.0,0.0,0.0,0.0,0.0,0.0,0.0,0.0,0.0,0.0,0.0,0.0,0.0,0.0,0.0,0.0,0.0,0.0,0.0,0.0,0.0,0.0,0.0,0.0,0.0,0.0,0.0,0.0,0.0,0.0,0.0,0.0,0.0,0.0,0.0,0.0,0.0,0.0,0.0,0.0,0.0,0.0,0.0,0.0,0.0,0.0,0.0,0.0,0.0,0.0,0.0,0.0,0.0,0.0,0.0,4.5705,0.0,0.0,0.0,0.0,0.0,0.0,0.0,0.0,0.0,0.0,0.0,0.0,0.0,0.0,0.0,0.0,0.0,0.0,0.0,0.0,0.0,0.0,0.0,0.0,0.0,0.0,0.0,0.0,0.0,0.0,0.0,0.0,0.0,0.0,0.0,0.0,0.0,0.0,0.0,0.0,3.7471,3.7815,3.8005,3.7882,3.7028,3.6029,3.5014,3.3943,3.2911,3.1915,3.1937,0.0,0.0,0.0,0.0,0.0,0.0,0.0,0.0,0.0,0.0,0.0,0.0,0.0,0.0,0.0,0.0,0.0,0.0,0.0,0.0,0.0,0.0,0.0,0.0,0.0,0.0,0.0,0.0,0.0,0.0,0.0,0.0,0.0,0.0,0.0,0.0,0.0,0.0,0.0,0.0,0.0,0.0,0.0,0.0,0.0,0.0,0.0,0.0,0.0,0.0,0.0,0.0,0.0,4.8696,4.8651,4.8642,4.8605,4.8307,4.7803,4.6613,4.6008,4.5905,4.6094,0.0,0.0,0.0,0.0,0.0,0.0,0.0,0.0,0.0,0.0,0.0,0.0,0.0,0.0,0.0,0.0,0.0,0.0,0.0,0.0,0.0,0.0,0.0,0.0,4.3118,4.278,0.0,0.0,0.0,0.0,0.0,0.0,0.0,0.0,0.0,0.0,0.0,0.0,3.7663,3.7957,3.8202,3.8202,3.728,3.6294,3.5386,3.4199,3.3086,3.2135,3.2091,3.2003,0.0,0.0,0.0,0.0,0.0,0.0,0.0,0.0,0.0,0.0,0.0,0.0,0.0,0.0,0.0,0.0,0.0,0.0,0.0,0.0,0.0,0.0,0.0,0.0,0.0,0.0,0.0,0.0,0.0,0.0,0.0,0.0,4.9476,4.9714,0.0,0.0,0.0,0.0,0.0,0.0,0.0,0.0,0.0,0.0,0.0,0.0,0.0,4.9911,4.9518,4.937,4.9144,4.8796,4.882,4.8812,4.8769,4.855,4.8335,4.8128,4.7474,0.0,4.6132,4.6204,0.0,0.0,0.0,0.0,0.0,0.0,0.0,0.0,0.0,0.0,0.0,0.0,0.0,0.0,0.0,0.0,0.0,0.0,0.0,0.0,0.0,0.0,4.3424,4.3363,4.2978,4.2619,0.0,4.2748,4.27,4.2508,4.2429,0.0,0.0,0.0,0.0,0.0,0.0,0.0,3.7853,3.8052,3.8202,3.8202,3.7414,3.6452,3.5386,3.4444,3.3462,3.2397,3.2506,3.2419,3.1981,3.2225,0.0,0.0,0.0,0.0,0.0,0.0,0.0,0.0,0.0,0.0,0.0,0.0,0.0,0.0,0.0,0.0,0.0,0.0,0.0,0.0,0.0,0.0,0.0,0.0,0.0,0.0,0.0,0.0,0.0,5.0025,5.0113,5.0038,5.0341,5.0663,0.0,0.0,0.0,0.0,0.0,0.0,0.0,0.0,0.0,5.0451,5.0296,5.003,4.9725,4.9514,4.9313,4.9127,4.8968,4.8864,4.8866,4.8732,4.8596,4.8411,4.8192,4.7648,4.6992,4.6992,4.6822,4.666,0.0,0.0,0.0,0.0,4.7319,4.6873,4.6707,4.6672,0.0,4.5962,0.0,0.0,0.0,0.0,0.0,0.0,0.0,0.0,0.0,0.0,4.3636,4.335,4.2927,4.2586,4.2586,4.2586,4.2586,0.0,4.2444,4.1948,4.0778,0.0,0.0,0.0,0.0,3.7891,3.7891,3.81,3.8202,3.8202,3.7768,3.6892,3.5427,3.4856,3.3885,3.2266,3.2397,3.2354,3.2003,3.2116,3.2069,0.0,0.0,0.0,0.0,0.0,0.0,0.0,0.0,0.0,0.0,0.0,0.0,0.0,0.0,0.0,0.0,0.0,0.0,0.0,0.0,0.0,0.0,0.0,0.0,0.0,0.0,0.0,0.0,5.0402,5.0504,5.027,5.0591,5.0866,0.0,0.0,0.0,0.0,0.0,0.0,5.0712,5.0721,5.0615,5.0341,5.0235,5.0111,4.9916,4.9653,4.9454,4.9399,4.9152,4.8976,4.889,4.8864,4.8785,4.8651,4.8624,4.8307,4.7834,4.7653,4.7399,4.7149,4.7864,4.7548,4.687,4.8016,4.7677,4.6699,4.6946,4.6712,4.6203,4.5604,0.0,4.5397,4.5397,0.0,0.0,0.0,0.0,4.5331,4.4974,4.4527,4.4102,4.3735,4.3217,4.2789,4.2789,4.2842,4.2829,0.0,4.2397,4.1997,4.1329,0.0,0.0,0.0,0.0,3.8448,3.8448,3.8581,3.8696,3.8696,3.8371,3.7507,3.5885,3.5411,3.443,3.2639,3.2749,3.2727,3.2417,3.2624,3.2657,3.2526,0.0,0.0,0.0,0.0,0.0,0.0,0.0,0.0,0.0,0.0,0.0,0.0,0.0,0.0,0.0,0.0,0.0,0.0,0.0,0.0,0.0,0.0,0.0,0.0,0.0,0.0,0.0,0.0,0.0,5.0394,5.0592,0.0,0.0,0.0,0.0,5.0726,5.0812,5.0829,5.0721,5.0808,5.0821,5.0659,5.0364,5.0195,5.0183,4.9923,4.9637,4.9407,4.9391,4.9217,4.8881,4.884,4.8796,4.8787,4.866,4.8541,4.8409,4.7854,4.7591,4.7569,4.7622,4.7838,4.8161,4.7809,4.7341,4.6812,4.6409,4.5924,4.5466,4.5397,4.5397,4.5397,4.5397,4.5397,0.0,0.0,4.5397,4.5397,4.5371,4.5029,4.4666,4.4638,4.3924,4.3244,4.3244,4.3466,4.3444,0.0,4.2571,4.2269,4.1362,0.0,4.1005,4.0062,3.9963,3.9982,3.9982,4.0002,4.0002,4.0002,3.9307,3.8324,3.7015,3.6205,3.5222,3.3993,3.4082,3.3991,3.3557,3.4246,3.4443,3.3987,3.4349,0.0,0.0,0.0,0.0,0.0,0.0,0.0,0.0,0.0,0.0,0.0,0.0,0.0,0.0,0.0,0.0,0.0,0.0,0.0,0.0,0.0,0.0,0.0,0.0,0.0,0.0,0.0,0.0,5.0582,5.0747,0.0,5.0906,5.0858,5.0821,5.0821,5.0807,5.0749,5.0712,5.074,5.0744,5.0712,5.0594,5.0514,5.0514,5.0038,4.9756,4.9637,4.926,4.901,4.889,4.8892,4.8849,4.8796,4.876,4.8688,4.8541,4.8287,4.7955,4.7632,4.7945,4.7793,4.7442,4.7895,4.7367,4.6471,4.6613,4.6094,4.5397,4.5397,4.5397,4.5397,4.5397,4.5397,4.5397,4.5397,4.5397,4.5397,4.5397,4.5446,4.5385,4.5024,4.4815,4.4628,4.4331,4.4334,4.4334,4.4075,4.401,4.3913,4.3586,4.273,4.1996,4.1669,4.0747,4.0089,4.0089,4.0089,4.0089,4.0089,3.9832,3.9021,3.7398,3.6994,3.6092,3.4363,3.4318,3.4204,3.386,3.4139,3.4483,3.4922,3.5629,3.6251,0.0,0.0,0.0,0.0,0.0,0.0,0.0,0.0,0.0,0.0,0.0,0.0,0.0,0.0,0.0,0.0,0.0,0.0,0.0,0.0,0.0,0.0,0.0,0.0,0.0,0.0,5.0736,5.0763,5.0829,5.085,5.0906,5.0862,5.0825,5.0825,5.0749,5.0707,5.0707,5.0707,5.0707,5.0707,5.0707,5.0707,5.0707,5.0296,4.9994,4.9803,4.9386,4.909,4.889,4.8892,4.8866,4.884,4.8804,4.8705,4.8605,4.8532,4.8267,4.7885,4.819,4.7915,4.7421,4.7895,4.7367,4.6435,4.6411,4.5945,4.5397,4.5397,4.5397,4.5466,4.5707,4.579,4.5858,4.6121,4.6169,4.6169,4.6169,4.622,4.6166,4.5784,4.5599,4.5402,4.5082,4.5097,4.5144,4.5144,4.4949,4.4721,4.4423,4.3517,4.2707,4.2431,4.1467,4.0757,4.0757,4.0757,4.0757,4.0757,4.0757,4.0,3.8038,3.8102,3.7263,3.4933,3.5117,3.5209,3.5023,3.5211,3.5711,3.659,3.7337,3.7951,3.8435,0.0,0.0,0.0,0.0,0.0,0.0,0.0,0.0,0.0,0.0,0.0,0.0,0.0,0.0,0.0,0.0,0.0,0.0,0.0,0.0,0.0,0.0,0.0,5.0201,5.0488,5.0744,5.0886,5.079,5.0749,5.089,5.0785,5.0707,5.0707,5.0707,5.0707,5.0707,5.0707,5.0707,5.0707,5.0707,5.0707,5.0697,5.0692,5.0353,4.979,4.9783,4.9469,4.8881,4.884,4.884,4.8881,4.884,4.8742,4.8624,4.8615,4.8495,4.8343,4.8296,4.8296,4.8238,4.7767,4.7313,4.6777,4.5812,4.5445,4.5466,4.5466,4.5466,4.5604,4.641,4.6617,4.6789,4.7514,4.7686,4.7686,4.7686,4.7315,4.6922,4.6908,4.6198,4.5565,4.5565,4.5701,4.5824,4.5824,4.5305,4.462,4.3807,4.3549,4.3159,4.2351,4.2164,0.0,4.2092,4.2092,4.2092,4.2092,4.2092,4.1191,3.9023,3.9514,3.8693,3.5883,3.664,3.7129,3.7078,3.7624,3.8277,3.9029,3.9396,3.9559,3.9559,0.0,0.0,0.0,0.0,0.0,0.0,0.0,0.0,0.0,0.0,0.0,0.0,0.0,0.0,0.0,0.0,0.0,0.0,0.0,0.0,0.0,4.9923,4.9987,5.0177,5.0488,5.0693,5.0749,5.0707,5.0693,5.0749,5.0702,5.0707,5.0707,5.0707,5.0707,5.0707,5.0707,5.0707,5.0707,5.0707,5.0594,5.0341,5.0129,4.9857,4.9499,4.9268,4.904,4.889,4.8901,4.8864,4.889,4.8901,4.8803,4.8751,4.8642,4.8864,4.9257,4.8592,4.8085,4.7808,4.8025,4.7932,4.7619,4.6976,4.6895,4.7065,4.7065,4.7065,4.71,4.7341,4.741,4.7445,4.7651,4.7686,4.7686,4.7686,4.7726,4.7679,4.727,4.7132,4.6996,4.6597,4.6541,4.6618,4.6618,4.6456,4.6087,4.5253,4.4613,4.393,4.3118,4.2499,0.0,4.2092,4.2092,4.203,4.1806,4.1806,4.1275,3.9978,4.0071,3.9607,3.8292,3.8473,3.8541,3.8307,3.8644,3.9273,4.0159,4.0785,4.1101,0.0,0.0,0.0,0.0,0.0,0.0,0.0,0.0,0.0,0.0,0.0,0.0,0.0,0.0,0.0,0.0,0.0,0.0,0.0,0.0,0.0,0.0,4.981,4.9864,5.0019,5.0302,5.053,5.0697,5.0707,5.0707,5.0707,5.0707,5.0707,5.0707,5.0707,5.0707,5.0707,5.0584,5.0493,5.0493,5.0364,5.0239,5.0044,4.989,4.9651,4.9399,4.9209,4.9035,4.8927,4.9253,4.9401,0.0,4.9782,4.9887,4.976,4.9668,4.985,0.0,0.0,0.0,0.0,0.0,4.8336,4.7834,4.7561,4.7579,4.7686,4.7686,4.7686,4.7755,4.8065,4.8169,4.8238,4.8582,4.8509,4.8332,4.8332,4.8139,4.7845,4.7545,4.7408,4.7285,4.6978,4.691,4.691,4.691,4.6617,0.0,4.5332,4.4812,4.4109,4.2961,4.2392,4.2092,4.2092,4.2092,4.2051,4.1897,4.1877,4.1493,4.0503,4.0696,0.0,0.0,0.0,3.9585,3.9426,3.9956,0.0,0.0,0.0,4.1765,4.1877,0.0,0.0,0.0,4.09,4.083,0.0,0.0,0.0,0.0,0.0,0.0,0.0,0.0,0.0,0.0,0.0,0.0,0.0,0.0,0.0,0.0,4.9769,4.9728,4.9797,4.9987,5.0212,5.0573,5.0599,5.0599,5.0599,5.0599,5.0599,5.0599,5.0619,5.0634,5.0634,0.0,0.0,0.0,0.0,4.979,4.9756,4.9831,4.9752,4.9495,4.957,4.9454,4.9224,4.9921,5.0256,5.0293,5.1064,5.125,5.1117,5.1061,5.0988,5.0758,4.9874,5.0031,5.0581,4.9493,4.8588,4.7921,4.7921,0.0,0.0,4.7962,4.7962,4.8065,4.8755,4.8962,4.91,4.9789,4.9649,4.9271,4.9226,4.8497,4.777,4.7704,4.7302,4.691,4.691,4.691,4.691,4.691,4.6266,4.5442,4.4643,4.4415,4.3869,4.231,4.2092,4.2092,4.2092,4.2092,4.2092,4.2071,0.0,0.0,4.0795,4.131,4.1085,3.9607,4.0136,4.0509,4.0509,4.1296,4.1744,4.1744,4.1801,4.1963,4.2208,4.2266,4.2295,4.2295,4.1755,4.1585,0.0,0.0,0.0,0.0,0.0,0.0,0.0,0.0,0.0,0.0,0.0,0.0,0.0,0.0,0.0,5.0093,4.9512,4.9222,4.9742,4.9644,4.9674,4.9936,4.9974,4.9974,4.9974,4.9974,4.9974,4.9974,5.0165,5.0313,5.0313,5.023,5.0201,5.0201,4.9949,4.9686,4.9469,5.0131,5.0266,4.9952,0.0,0.0,5.0933,5.1082,5.1156,5.1147,5.1213,5.1185,5.1107,5.0974,5.102,5.1023,4.9762,4.9625,5.0006,4.8944,4.8824,4.9235,4.9235,4.9389,4.9548,4.9548,4.9548,4.9582,4.972,4.9769,0.0,4.9976,4.9938,4.9757,4.9316,4.8731,4.8161,4.7803,4.7302,4.691,4.691,4.691,4.691,4.691,4.6266,4.5442,4.4643,4.3955,4.32,4.2257,4.2092,4.2092,4.2092,4.2092,4.203,4.1785,4.1765,4.1702,4.1506,4.1611,4.166,4.1564,4.1668,4.1752,4.1752,4.1918,4.203,4.203,4.2494,4.2776,4.2818,4.3369,4.3631,4.3602,4.2473,4.1989,0.0,0.0,0.0,0.0,0.0,0.0,0.0,0.0,0.0,0.0,0.0,5.0209,5.0076,0.0,4.9629,4.9776,4.9446,4.9273,4.9566,4.9476,4.9491,4.9769,4.981,4.981,4.981,4.981,4.981,4.981,4.9936,5.0012,5.0012,5.025,5.0389,5.0389,5.0546,5.052,5.0422,5.0787,5.0925,5.0748,5.1193,5.1416,5.1416,5.177,5.174,5.1526,5.1832,5.1742,5.1373,5.1288,5.1316,5.1323,5.0368,5.0163,5.036,4.9792,4.9676,4.9813,4.9813,4.9894,5.0011,5.0011,5.0011,5.0011,5.0011,4.9816,4.959,4.959,4.9245,4.8798,4.8513,4.8032,4.7572,4.737,4.7098,4.7007,4.7378,4.7443,4.7417,4.7329,4.6634,4.5842,4.4967,4.4185,4.331,4.2241,4.2092,4.2208,4.2498,4.2557,4.2631,4.2815,4.2873,4.2873,4.2873,4.2873,4.2915,4.305,4.305,4.305,4.305,4.305,4.305,4.305,4.3362,4.3485,4.3485,4.3855,4.3979,4.3979,4.334,4.305,0.0,0.0,0.0,0.0,0.0,0.0,0.0,0.0,5.0006,4.9844,4.981,4.9735,4.9514,4.9453,4.943,4.9454,4.9399,4.9337,4.9399,4.9352,4.9377,4.9601,4.9637,4.9637,4.9637,4.9637,4.9705,4.9856,4.9913,5.0017,5.0168,5.059,5.0818,5.0818,5.1194,5.1416,5.1416,5.1565,5.1612,5.1547,5.1695,5.1741,5.1675,5.2168,5.2138,5.1744,5.2257,5.2194,5.1679,5.1638,5.1525,5.1386,5.0977,5.0721,5.0626,5.0626,5.0355,5.0011,5.0011,5.0011,5.0011,5.0011,5.0011,4.9982,4.986,4.9545,4.9195,4.9055,4.8566,4.8035,4.7919,4.7681,4.742,4.7316,4.7331,4.7475,4.8091,4.8045,4.79,4.7713,4.6924,4.6001,4.5297,4.4549,4.3631,4.2615,4.2469,4.2644,4.3137,4.3195,4.3398,4.3921,4.3979,4.3979,4.3979,4.3979,4.3979,4.3979,4.3979,4.3979,4.3979,4.3979,4.3979,4.3979,4.4117,4.4153,4.4182,4.432,4.4356,4.4356,4.4356,4.4262,4.9803,4.9629,4.9416,4.9163,4.909,4.9163,0.0,0.0,4.9551,4.9762,4.981,4.9797,4.9762,4.9566,4.9469,4.9714,4.9323,4.9061,4.9368,4.9144,4.8968,4.901,4.901,4.901,4.901,4.901,4.9308,5.0007,5.033,5.0836,5.1542,5.1614,5.1665,5.1665,5.1492,5.1416,5.1416,5.2122,5.2315,5.2032,5.2733,5.291,5.2649,5.2403,5.2268,5.22,5.1922,5.1728,5.1613,5.1601,5.1309,5.0884,5.0816,5.0509,5.0112,5.0112,5.0068,5.0011,5.0011,5.0011,5.0011,5.0011,5.0011,4.9889,4.9421,4.9256,4.9085,4.8621,4.8869,4.9209,4.8728,4.9052,4.9372,4.8878,4.8753,4.8785,4.8882,4.8285,4.7725,4.7694,4.6432,4.5297,4.5224,4.4549,4.395,4.3805,4.3776,4.3805,4.3863,4.3892,4.3921,4.3979,4.3979,4.3979,4.3979,4.3979,4.3979,4.3979,4.3979,4.3979,4.3979,4.3979,4.3979,4.3979,4.4552,4.4814,4.4814,4.5395,4.5685,4.5685,4.5685,4.5082,4.9634,4.9476,4.9385,0.0,4.9424,4.9409,4.9385,4.9407,4.9391,4.9307,4.9291,4.9291,4.9291,4.9171,4.916,0.0,4.9048,4.8942,4.9086,4.9394,4.9596,4.9596,5.0042,5.0153,4.9707,5.0079,5.0488,5.0822,5.1001,5.1192,5.1565,5.2004,5.2265,5.2265,5.2428,5.2513,5.2513,5.2655,5.2637,5.25,5.2866,5.2835,5.2484,5.2312,5.1946,5.1401,5.0929,5.0708,5.0688,5.0688,5.0537,5.0313,5.0313,5.0192,5.0011,5.0011,5.0011,5.0011,5.0011,5.0011,5.008,5.0479,5.0651,5.0632,5.0509,5.0268,4.9899,4.9393,4.9206,4.916,4.8933,4.9091,4.9266,4.9066,4.9012,4.9109,4.953,4.8965,4.8304,4.817,4.7189,4.619,4.5681,4.5347,4.5104,4.5104,4.4472,4.4146,4.4472,4.4501,4.4647,4.5053,4.5104,4.5104,4.5104,4.5104,4.5104,4.5104,4.5104,4.5104,4.5104,4.5104,4.5104,4.5104,4.5366,4.5482,4.5482,4.575,4.5917,4.5917,4.5917,4.5627,4.9487,0.0,0.0,4.9521,4.9557,4.9498,4.9329,4.9265,4.9201,4.8942,4.889,4.889,4.889,4.889,4.8964,4.9179,4.9224,4.929,4.9559,5.0079,5.045,5.045,5.1231,5.1491,5.0933,5.1193,5.1491,5.1714,5.1714,5.1788,5.1927,5.2558,5.2854,5.2644,5.3058,5.3266,5.3172,5.2926,5.275,5.2613,5.2613,5.2477,5.2137,5.1922,5.136,5.0564,5.0163,5.0011,5.0011,5.0218,5.0306,5.0306,5.0513,5.0617,5.0617,5.0617,5.0479,5.0306,5.0562,5.0617,5.0671,5.1073,5.1165,5.1146,5.0998,5.0693,5.0275,4.9709,4.9465,4.9303,4.9303,4.9432,4.9594,4.9594,4.9429,4.9392,4.9925,4.9168,4.8323,4.8171,4.7448,4.6631,4.6001,4.5917,4.5917,4.5917,4.5111,4.4676,4.5133,4.5191,4.5343,4.5859,4.5917,4.5917,4.5917,4.5917,4.5917,4.5917,4.5917,4.5917,4.5917,4.5917,4.5917,4.5917,4.5917,4.5917,4.5917,4.5917,4.5917,4.5917,4.6069,4.6156,4.9399,0.0,4.9329,4.9002,4.8925,4.8916,4.8907,4.8907,4.8899,4.889,4.889,4.889,4.889,4.889,4.9141,4.9921,5.007,5.0367,5.1193,5.1342,5.1342,5.1342,5.2085,5.2568,0.0,5.1825,5.1714,5.2494,5.2568,5.277,5.3228,5.3583,5.3474,5.2813,5.3104,5.3151,5.2817,5.2794,5.259,5.2208,5.2208,5.2042,5.1685,5.1096,5.0551,5.0025,5.0011,5.0011,5.008,5.0755,5.1065,5.1134,5.1858,5.2134,5.2134,5.2134,5.1686,5.1168,5.1892,5.2134,5.2043,5.1547,5.1374,5.1198,5.0156,4.9846,4.9724,4.9159,4.9515,5.0066,5.0066,5.0584,5.1121,5.1121,5.048,4.9864,4.9896,4.8512,4.7246,4.7233,4.655,4.594,4.5917,4.5917,4.5917,4.5917,4.5888,4.5859,4.5888,4.5888,4.5888,4.5917,4.5917,4.5917,4.5917,4.5917,4.5917,4.5917,4.5917,4.5917,4.5917,4.5917,4.5917,4.5917,4.5917,4.5917,4.5917,4.5917,4.5917,4.5917,4.6482,4.6772,4.9069,4.9069,4.9035,4.8916,4.889,4.889,4.889,4.889,4.889,4.889,4.9327,4.9699,4.9699,5.019,5.0636,5.0933,5.0971,5.1045,5.1342,5.1862,5.2113,5.1902,5.2584,0.0,0.0,0.0,0.0,5.3048,5.3065,5.3034,5.2955,5.3088,5.3034,5.2806,5.2658,5.2497,5.2408,5.2198,5.2005,5.1883,5.1697,5.1728,5.1882,5.1437,5.1356,5.1444,5.1444,5.1444,5.1479,5.172,5.1824,5.1828,5.1716,5.166,5.1681,5.1822,5.1708,5.1504,5.1636,5.1439,5.1186,5.1495,5.1597,5.1564,5.1327,5.1262,5.1137,5.0621,5.0617,5.083,5.083,5.1024,5.1054,5.0467,5.0104,4.973,4.9116,4.8033,4.7189,4.7189,4.6506,4.5917,4.5917,4.5917,4.604,4.6424,4.6156,4.5917,4.5917,4.5917,4.5917,4.5917,4.5917,4.5917,4.5917,4.5917,4.5917,4.5917,4.5917,4.5917,4.5917,4.6272,4.6482,4.6482,4.694,4.7166,4.7166,4.7166,4.7166,4.7166,4.7375,4.7462,4.889,4.889,4.889,4.889,4.889,4.889,4.889,4.9113,4.9336,4.9336,4.9996,5.0562,5.0562,5.1008,5.1491,5.1788,5.1825,5.19,5.2047,5.2509,5.2725,5.2391,5.28,5.3045,0.0,0.0,0.0,5.3151,5.313,5.2944,5.259,5.2728,5.2683,5.2421,5.228,5.2125,5.2018,5.1809,5.1765,5.1948,5.1945,5.2036,5.2235,5.2036,5.2017,5.2203,5.2203,5.2096,5.1943,5.2437,5.2401,5.2022,5.2185,5.2093,5.1914,5.2068,5.1962,5.181,5.1883,5.1664,5.1429,5.1726,5.179,5.1785,5.1729,5.1729,5.1637,5.1298,5.1218,5.1218,5.1218,5.0978,5.0583,5.0026,4.9598,4.912,4.8504,4.7881,4.74,4.74,4.6965,4.6585,4.6585,4.6585,4.6708,4.7114,4.6824,4.6585,4.6585,4.6585,4.6585,4.6585,4.6585,4.6585,4.6585,4.6585,4.6585,4.6585,4.6585,4.6585,4.6585,4.694,4.7149,4.7149,4.7579,4.7805,4.7805,4.7805,4.7805,4.7805,4.8014,4.813,4.889,4.889,4.889,4.889,4.8927,4.8956,4.8938,4.9578,5.0173,5.0109,5.0823,5.1426,0.0,0.0,5.1705,5.2484,5.2596,5.2787,5.3218,5.3287,5.3162,0.0,0.0,0.0,0.0,0.0,0.0,5.2812,0.0,5.2615,5.2185,5.2522,5.2432,5.1769,5.2078,5.2102,5.1828,5.1815,5.2032,5.2475,5.2895,5.3019,5.2749,5.2749,5.2607,5.2306,5.2306,5.2015,5.1609,5.2901,5.2759,5.1866,5.3145,5.3264,5.2767,5.2732,5.2398,5.2023,5.254,5.2715,5.2645,5.2131,5.1951,5.1842,5.1355,5.1218,5.1218,5.1251,5.1251,5.1251,5.1315,5.0672,4.9995,4.9923,4.9074,4.8222,4.8178,4.7962,4.7805,4.7805,4.7805,4.7805,4.7805,4.7805,4.7805,4.7834,4.7863,4.7834,4.7805,4.7805,4.7805,4.7805,4.7805,4.7805,4.7805,4.7805,4.7805,4.7805,4.7805,4.7805,4.7805,4.7834,4.7863,4.7863,4.7892,4.7892,4.7892,4.7892,4.7892,4.7921,4.8478,4.8745,4.889,4.889,4.889,4.889,4.9327,4.972,4.9483,5.0278,5.0907,5.0378,5.115,5.1838,0.0,0.0,0.0,5.2726,5.2763,0.0,5.29,5.2926,0.0,5.2408,0.0,5.2256,5.2005,5.1981,0.0,0.0,5.2534,5.2209,5.1859,5.192,5.217,5.259,5.2679,5.2929,5.3408,5.3408,5.3371,5.3303,5.3411,5.3479,5.3535,5.3535,5.3682,5.3892,5.3892,5.3608,5.3139,5.3474,5.3212,5.2517,5.2473,5.2345,5.2167,5.1765,5.154,5.1429,5.1577,5.16,5.1596,5.1466,5.141,5.1373,5.1223,5.1218,5.1315,5.1782,5.1963,5.2074,5.2624,5.2073,5.1233,5.0506,4.9613,4.87,4.8054,4.7852,4.7805,4.7805,4.7805,4.7805,4.7805,4.7805,4.795,4.842,4.8455,4.8304,4.7863,4.7805,4.7805,4.7805,4.7805,4.7805,4.7805,4.7805,4.7805,4.7805,4.7805,4.7805,4.7805,4.8217,4.8455,4.8455,4.8943,4.9228,4.9228,4.9228,4.9228,4.9228,4.9374,4.9461,4.889,4.9187,4.9485,4.9485,5.0079,5.0592,5.0227,5.0968,5.1548,5.0936,5.1683,0.0,0.0,0.0,0.0,0.0,0.0,0.0,5.2545,5.2534,5.2396,0.0,5.2305,0.0,5.2246,5.2529,5.2886,0.0,5.2851,5.2553,5.2707,5.2707,5.2921,5.3385,5.3385,5.3599,5.4001,5.4189,5.4177,5.3887,5.4112,5.4165,5.4087,5.387,5.3907,5.4127,0.0,5.3433,5.2957,5.3213,5.2819,5.2143,5.2368,5.2316,5.209,5.211,5.2106,5.2106,5.2106,5.2106,5.2074,5.1718,5.1847,5.2106,5.2106,5.2106,5.2203,5.2592,5.2689,5.2786,5.3188,5.2302,5.1193,5.0651,4.9681,4.8786,4.8306,4.8444,4.8647,4.8647,4.8647,4.8647,4.8647,4.8647,4.8764,4.9088,4.9146,4.903,4.8677,4.8647,4.8647,4.8647,4.8647,4.8647,4.8647,4.8647,4.8647,4.8647,4.8647,4.8647,4.8647,4.8943,4.9146,4.9146,4.9519,4.9693,4.9693,4.9693,4.9693,4.9693,4.9693,4.9693,4.9076,4.9681,5.0276,5.0276,5.0842,5.1323,5.0909,5.154,5.2056,5.1624,0.0,5.2717,5.266,5.2649,5.2649,5.2649,0.0,5.2511,5.2197,5.2222,5.2174,5.1901,5.2577,5.3041,5.3041,5.3622,5.4037,5.4157,5.3564,5.3421,5.3979,5.4001,5.4037,5.4157,5.4264,5.4335,5.4335,5.4638,5.4634,5.4382,5.4674,5.4652,5.4303,5.3782,5.3635,5.3703,5.3177,0.0,5.232,5.2804,5.2374,5.158,5.2707,5.2823,5.243,5.3058,5.3317,5.3317,5.3317,5.335,5.3317,5.2592,5.2786,5.3317,5.3317,5.3317,5.3317,5.3414,5.3447,5.3459,5.3405,5.2155,5.083,5.0616,4.9693,4.8832,4.8832,4.9291,4.9693,4.9693,4.9693,4.9693,4.9693,4.9693,4.9693,4.9693,4.9693,4.9693,4.9693,4.9693,4.9693,4.9693,4.9693,4.9693,4.9693,4.9693,4.9693,4.9693,4.9693,4.9693,4.9693,4.9693,4.9693,4.9693,4.9693,4.9693,4.9693,4.9693,4.9693,4.9693,4.9693,4.9693,4.9884,5.0296,5.0716,5.0716,5.1106,5.14,5.1051,5.1871,0.0,0.0,5.1994,5.2233,5.1945,5.1883,5.1883,5.1883,0.0,0.0,0.0,0.0,5.2773,0.0,0.0,0.0,0.0,0.0,0.0,0.0,0.0,5.455,5.4037,5.4001,5.4287,5.4978,5.5633,5.599,5.599,5.5518,5.5103,5.4774,5.4148,5.3665,5.3332,5.306,5.3275,5.3879,5.374,0.0,5.3729,5.3855,5.3498,5.2948,5.3175,5.3221,5.3123,5.3252,5.3317,5.3317,5.3317,5.3706,5.4082,5.335,5.3188,5.3317,5.3317,5.3317,5.3414,5.4049,5.4211,5.416,5.3923,5.3071,5.2035,5.1189,5.0242,4.9548,4.9548,4.9606,4.9693,4.9693,4.9693,4.9693,4.9693,4.9693,4.9693,4.9693,4.9693,4.9693,4.9693,4.9693,4.9693,4.9693,4.9693,4.9693,4.9693,4.9693,4.9693,4.9693,4.9693,4.9693,4.9693,4.9693,4.9693,4.9693,4.9693,4.9693,4.9693,4.9693,4.9693,4.9693,4.9693,4.9693,5.0093,5.0672,5.1146,5.1146,5.1688,5.2064,5.1713,0.0,0.0,0.0,5.1834,5.1908,5.171,0.0,0.0,0.0,0.0,0.0,0.0,0.0,0.0,0.0,0.0,0.0,0.0,0.0,0.0,0.0,0.0,5.5669,5.5263,5.5227,5.5419,5.5812,5.6204,5.6383,5.6383,5.607,5.5774,5.5467,5.5041,5.468,5.4394,5.4008,5.3977,5.4183,5.389,0.0,5.368,5.368,5.3539,5.335,5.3706,5.3867,5.39,5.4256,5.4385,5.4385,5.4385,5.4612,5.4839,5.4515,5.4385,5.4385,5.4385,5.4031,5.3748,5.4088,5.3829,5.3427,5.3309,5.2553,5.1689,5.1203,5.0359,4.9693,4.9693,4.9693,4.9693,4.9693,4.9693,4.9693,4.9693,4.9693,4.9693,4.9693,4.9693,4.9693,4.9693,4.9693,4.9693,4.9693,4.9693,4.9693,4.9693,4.9693,4.9693,4.9693,4.9693,4.9693,4.9693,4.9693,4.9693,4.9693,4.9693,4.9693,4.9693,5.0042,5.0216,5.0245,5.054,5.0685,5.0382,5.1093,5.1642,5.1642,5.2107,5.249,5.2173,5.2102,0.0,0.0,5.1721,5.1721,5.1721,0.0,5.1756,0.0,5.247,0.0,0.0,0.0,0.0,0.0,0.0,0.0,0.0,0.0,0.0,0.0,0.0,0.0,5.6418,5.6561,5.6668,5.6668,5.6686,5.6687,5.6687,5.6382,5.61,5.5883,5.5706,5.5468,5.5208,5.4807,5.4574,5.4515,5.4038,0.0,0.0,5.3758,5.3738,5.3803,5.4385,5.4632,5.4697,5.5215,5.5389,5.5389,5.5389,5.5389,5.5389,5.5389,5.5389,5.5389,5.5389,5.4883,5.4264,5.4041,5.3459,5.2807,5.2403,5.1689,5.1039,5.0828,5.0244,4.9693,4.9693,4.9693,4.9693,4.9693,4.9693,4.9693,4.9693,4.9693,4.9751,4.9896,4.9896,4.9954,5.01,5.0129,5.0129,5.0129,4.9867,4.9693,4.9693,4.9693,4.9751,4.9896,4.9896,4.9983,5.01,5.0129,5.0129,5.0129,5.0129,5.0129,5.0129,5.0651,5.0913,5.0913,5.1381,5.1588,5.1377,5.1737,5.2135,5.2135,5.1982,5.1785,5.1747,0.0,0.0,5.1721,5.1721,5.1721,5.1721,5.1721,0.0,0.0,0.0,5.3148,0.0,0.0,0.0,0.0,0.0,0.0,0.0,0.0,0.0,0.0,0.0,0.0,5.6454,5.711,5.7503,5.7503,5.7532,5.757,5.757,5.6245,5.5569,5.5549,5.4731,5.4245,5.4043,5.4005,5.4246,5.4672,5.4613,0.0,0.0,5.5329,5.5195,5.5195,5.5259,5.5292,5.5324,5.5357,5.5389,5.5389,5.5389,5.5389,5.5389,5.5389,5.5389,5.5389,5.5389,5.5348,5.509,5.4264,5.3934,5.348,5.1712,5.1156,5.0905,5.0028,4.9766,4.9693,4.9693,4.9693,4.9693,4.9693,4.9693,4.9693,4.9693,4.9693,4.9896,5.0506,5.0622,5.0826,5.1352,5.1439,5.1439,5.1439,5.0365,4.9693,4.9693,4.9693,4.9954,5.0564,5.0622,5.0855,5.1385,5.1439,5.1439,5.1439,5.1439,5.1439,5.1439,5.1472,5.1501,5.1501,5.1559,5.1588,5.1502,5.1766,5.192,5.192,5.1797,5.1721,5.1721,0.0,5.1721,5.1721,5.1721,5.1721,5.1721,5.2113,5.2541,0.0,0.0,0.0,5.4692,0.0,0.0,0.0,0.0,0.0,0.0,0.0,0.0,0.0,0.0,0.0,5.7214,5.7497,5.7444,5.7032,5.7029,5.7025,5.7025,5.6452,5.6149,5.6169,5.581,5.5636,5.5589,5.5454,5.5444,5.5541,5.5541,0.0,0.0,5.5826,5.5766,5.5645,5.5645,5.5564,5.5389,5.5389,5.5389,5.5389,5.5389,5.5389,5.5389,5.5389,5.5389,5.5389,5.5389,5.5008,5.437,5.3415,5.2731,5.1934,5.0597,5.0562,5.0764,5.0402,5.0569,5.083,5.083,5.083,5.083,5.083,5.083,5.083,5.083,5.083,5.0917,5.1207,5.1236,5.1323,5.1559,5.1588,5.1588,5.1588,5.1149,5.083,5.083,5.083,5.0975,5.1236,5.1236,5.1352,5.1588,5.1588,5.1588,5.1588,5.1588,5.1588,5.1588,5.1991,5.2194,5.2194,5.2572,5.272,5.153,5.1721,5.1721,5.1721,5.1721,5.1721,0.0,5.1721,5.1792,5.2006,5.2042,5.2113,5.235,5.285,5.3291,5.3541,5.4491,5.5277,5.5526,0.0,0.0,0.0,0.0,0.0,0.0,0.0,0.0,0.0,0.0,0.0,5.7749,5.7717,5.7466,5.6946,5.6934,5.697,5.697,5.6747,5.6619,5.6618,5.6618,5.6623,5.6603,5.6505,5.6382,5.6205,5.6205,0.0,0.0,5.6066,5.6006,5.5886,5.5886,5.5726,5.5523,5.575,5.5774,5.5766,5.5992,5.6057,5.6057,5.6057,5.5839,5.5588,5.5588,5.4974,5.4161,5.34,5.2248,5.1093,5.0417,5.0598,5.0946,5.0946,5.1294,5.1588,5.1588,5.1588,5.1588,5.1588,5.1588,5.1588,5.1588,5.1588,5.1646,5.1875,5.1904,5.1962,5.214,5.214,5.214,5.214,5.214,5.1994,5.1617,5.1588,5.1675,5.1875,5.1904,5.1991,5.214,5.214,5.214,5.214,5.214,5.214,5.214,5.263,5.2888,5.2888,5.3297,5.3316,5.1721,5.1721,5.1721,5.1721,5.1721,5.1721,0.0,5.1721,5.1935,5.272,5.2911,5.3113,5.3836,5.3966,5.4264,5.5049,5.5192,0.0,5.6276,5.6383,0.0,0.0,0.0,0.0,0.0,0.0,0.0,0.0,0.0,0.0,5.7801,5.778,5.7782,5.7704,5.775,5.778,5.778,5.7053,5.6719,5.6699,5.6699,5.6603,5.6388,5.6603,5.6583,0.0,0.0,0.0,0.0,5.6185,5.6106,5.6106,5.6106,5.5966,5.5884,5.6548,5.6664,5.6575,5.7309,5.7568,5.7568,5.7568,5.6862,5.5986,5.5986,5.5544,5.4914,5.4676,5.3163,5.1585,5.1559,5.1588,5.1588,5.1588,5.1588,5.1588,5.1588,5.1588,5.1588,5.1588,5.1588,5.1588,5.1588,5.1588,5.1846,5.2481,5.2597,5.283,5.3387,5.35,5.35,5.35,5.35,5.2952,5.1704,5.1588,5.1875,5.2539,5.2597,5.2859,5.3471,5.35,5.35,5.35,5.35,5.35,5.35,5.3474,5.3474,5.3474,5.3474,5.2863,5.1721,5.2113,5.2506,5.2506,5.2886,5.3265,5.3265,5.3265,5.3337,5.3586,5.3658,5.3729,5.3966,5.4443,5.4906,5.5156,5.5669,5.6311,0.0,0.0,0.0,0.0,0.0,0.0,0.0,0.0,0.0,0.0,0.0,0.0,5.7835,5.7796,5.7566,5.7036,5.7028,5.703,5.703,5.6815,5.6699,5.6699,5.6699,5.6661,5.6603,5.6505,5.6447,0.0,0.0,0.0,0.0,5.7787,5.7924,5.7804,5.7804,5.7695,5.7511,5.774,5.7797,5.7768,5.7996,5.7958,5.7832,5.7832,5.697,5.6112,5.6609,5.5766,5.4491,5.3715,5.2576,5.1588,5.1588,5.1933,5.2281,5.2281,5.2601,5.2894,5.2894,5.2894,5.2894,5.2894,5.2894,5.2894,5.2894,5.2894,5.2978,5.3181,5.321,5.3297,5.35,5.3474,5.3474,5.3474,5.3474,5.3355,5.2923,5.2894,5.3007,5.321,5.321,5.3297,5.3474,5.3474,5.3474,5.3474,5.3474,5.3474,5.3474,5.3474,5.3474,5.3474,5.3474,5.2863,0.0,5.2506,5.297,5.3255,5.3658,5.4001,5.4001,5.4001,5.4073,5.4407,5.4443,5.455,5.4835,5.5299,5.5669,5.5669,5.6311,5.7039,0.0,0.0,0.0,0.0,0.0,0.0,0.0,0.0,0.0,0.0,0.0,0.0,5.7428,5.7372,5.7315,5.7097,5.6865,5.6699,5.6699,5.6699,5.6832,5.713,5.713,5.7243,5.7541,5.739,5.7364,0.0,0.0,0.0,0.0,5.8641,5.8819,5.8718,5.8718,5.8535,5.8302,5.8564,5.8591,5.8456,5.8717,5.873,5.857,5.857,5.753,5.6223,5.631,5.5589,5.4516,5.3486,5.2766,5.2314,5.2314,5.263,5.2946,5.2946,5.3239,5.3474,5.3474,5.3474,5.3474,5.3474,5.3474,5.3474,5.3474,5.3474,5.3474,5.3474,5.3474,5.3474,5.3474,5.3474,5.3474,5.3474,5.3474,5.3474,5.3474,5.3474,5.3474,5.3474,5.3474,5.3474,5.3474,5.3474,5.3474,5.3474,5.3474,5.3474,5.3474,5.3474,5.3263,5.2837,5.329,5.238,0.0,5.3041,5.322,5.3907,5.4121,5.4193,5.4193,5.4193,0.0,5.512,5.5299,5.5526,5.624,5.6454,5.649,5.649,5.7146,5.7681,0.0,5.8374,0.0,0.0,0.0,0.0,0.0,0.0,0.0,0.0,0.0,0.0,5.6766,5.6832,5.7163,5.7839,5.721,5.6865,5.6865,5.6865,5.7196,5.7873,5.7873,5.8237,5.8899,5.8899,5.8899,0.0,0.0,0.0,0.0,5.9032,5.9065,5.9065,5.9065,5.8789,5.8486,5.9175,5.913,5.8875,5.9577,5.9782,5.9738,5.9552,5.8148,5.6341,5.5285,5.4988,5.4786,5.3789,5.3474,5.3474,5.3474,5.3474,5.3474,5.3474,5.3474,5.3474,5.3474,5.3474,5.3474,5.3474,5.3474,5.3474,5.3474,5.3474,5.3474,5.3474,5.3474,5.3474,5.3474,5.3474,5.3474,5.3474,5.3474,5.3474,5.3474,5.3474,5.3474,5.3474,5.3474,5.3474,5.3474,5.3474,5.3474,5.3474,5.3474,5.3474,5.3474,5.3474,5.2917,5.1866,5.289,5.1539,5.4349,0.0,5.4706,5.4871,5.537,5.5847,0.0,5.5847,0.0,0.0,0.0,5.6169,5.6383,5.6896,5.7324,5.7324,5.7953,5.8652,5.9259,0.0,0.0,0.0,0.0,0.0,0.0,0.0,0.0,0.0,0.0,5.8131,5.758,5.8071,5.8469,5.8634,5.8469,5.8369,5.8369,5.8369,5.8469,5.8634,5.8634,5.8734,5.8899,5.8899,5.8899,0.0,0.0,0.0,5.9794,6.0357,6.0589,6.0589,6.0589,6.0527,6.0423,6.0588,6.0625,6.0541,6.0717,6.0645,6.0152,5.8231,5.6776,5.551,5.4252,5.3893,5.3815,5.3553,5.3474,5.3474,5.3474,5.3474,5.3474,5.3474,5.3474,5.3474,5.3474,5.3474,5.3474,5.3474,5.3474,5.3474,5.3474,5.3474,5.3474,5.3474,5.3474,5.3474,5.3474,5.3474,5.3474,5.3474,5.3474,5.3474,5.3474,5.3474,5.3474,5.3474,5.3474,5.3474,5.3474,5.3474,5.3474,5.3474,5.3474,5.3474,5.3474,5.3474,5.3343,5.3049,5.2434,5.1154,5.4871,5.5192,5.5299,5.5669,5.6097,5.6383,5.6383,0.0,0.0,0.0,0.0,5.6968,5.6968,5.756,5.8096,5.8096,5.8493,0.0,0.0,0.0,0.0,0.0,0.0,0.0,0.0,0.0,0.0,0.0,0.0,5.8742,5.8343,5.8668,5.9065,5.9396,5.9396,5.9231,5.8899,5.8899,5.9065,5.9396,5.9396,5.9595,5.9926,5.9926,5.9926,0.0,0.0,0.0,6.0556,6.0953,6.1119,6.1119,6.1119,6.1023,6.0919,6.0919,6.0856,6.0771,6.0771,6.0687,6.0259,5.8469,5.7181,5.6152,5.4938,5.4252,5.3815,5.3553,5.3474,5.3474,5.3474,5.3474,5.3474,5.3474,5.3474,5.3474,5.3474,5.3474,5.3474,5.3474,5.3474,5.3474,5.3474,5.3474,5.3474,5.3474,5.3474,5.3474,5.3474,5.3474,5.3474,5.3474,5.3474,5.3474,5.3474,5.3474,5.3474,5.3474,5.3474,5.3474,5.3474,5.3474,5.3474,5.3474,5.3474,5.3474,5.3474,5.3474,5.3237,5.2675,5.2568,5.1292,5.5156,5.537,5.5562,5.624,5.6383,5.6383,5.6383,0.0,0.0,0.0,0.0,0.0,0.0,5.831,0.0,0.0,0.0,0.0,5.988,6.0352,0.0,0.0,0.0,0.0,0.0,0.0,0.0,0.0,0.0,5.9065,5.9065,5.9164,5.9529,6.0158,6.0191,5.986,5.9231,5.9231,5.9562,6.0191,6.0191,6.0523,6.1119,6.1119,6.1119,6.1119,0.0,0.0,6.1119,6.1119,6.1119,6.1119,6.1119,6.0961,6.076,6.076,6.0654,6.0463,6.0335,6.0184,5.987,5.8841,5.78,5.6752,5.5863,5.4942,5.4071,5.3632,5.3527,5.3527,5.35,5.3474,5.3474,5.3474,5.3474,5.3474,5.3474,5.3474,5.3474,5.3474,5.3474,5.3474,5.3474,5.3474,5.3474,5.3474,5.3474,5.3474,5.3474,5.3474,5.3474,5.3474,5.3474,5.3474,5.3474,5.3474,5.3474,5.3474,5.3474,5.3474,5.3474,5.3474,5.3474,5.3474,5.3474,5.3474,5.3474,5.3474,5.289,5.1702,5.2541,5.121,5.599,5.6204,5.624,5.6383,5.6383,5.6383,5.6383,0.0,0.0,0.0,0.0,0.0,0.0,5.8802,5.9512,0.0,0.0,5.9845,0.0,0.0,0.0,0.0,0.0,0.0,0.0,0.0,0.0,0.0,0.0,5.9827,5.9827,6.0423,6.0821,6.0953,6.0953,6.0887,6.0755,6.0755,6.0821,6.0953,6.0953,6.0986,6.1119,6.1119,6.1119,6.1119,0.0,6.1119,6.1119,6.1119,6.1119,6.1119,6.1119,6.1065,6.1023,6.1023,6.1002,6.0877,6.0044,5.9167,5.8254,5.7008,5.5778,5.4709,5.4329,5.3945,5.3605,5.35,5.3658,5.3789,5.3553,5.3474,5.3474,5.3474,5.3474,5.3474,5.3474,5.3474,5.3474,5.3474,5.3474,5.3474,5.3474,5.3474,5.3474,5.3474,5.3474,5.3474,5.3474,5.3474,5.3474,5.3474,5.3474,5.3474,5.3474,5.3474,5.3474,5.3474,5.3474,5.3474,5.3474,5.3474,5.3474,5.3474,5.3474,5.3474,5.3474,5.3474,5.289,5.1674,5.0823,4.959,5.6169,5.6383,5.6383,5.6383,5.6383,5.649,5.6968,0.0,0.0,0.0,0.0,0.0,0.0,0.0,6.0195,5.9055,0.0,5.9855,0.0,0.0,0.0,0.0,0.0,0.0,0.0,0.0,0.0,0.0,0.0,0.0,6.0589,6.092,6.1119,6.1119,6.1119,6.1119,6.1119,6.1119,6.1119,6.1119,6.1119,6.1119,6.1119,6.1119,6.1119,6.1119,0.0,6.1119,6.1119,6.1119,6.1119,6.1119,6.1119,6.1119,6.1119,6.1119,6.1119,6.1023,6.0569,6.013,5.9455,5.7761,5.6841,5.6146,5.4942,5.4543,5.4388,5.4233,5.3974,5.3658,5.3527,5.3474,5.3474,5.3474,5.3474,5.3474,5.3474,5.3474,5.3474,5.3474,5.3474,5.3474,5.3474,5.3474,5.3474,5.3474,5.3474,5.3474,5.3474,5.3474,5.3474,5.3474,5.3474,5.3474,5.3474,5.3474,5.3474,5.3474,5.3474,5.3474,5.3474,5.3474,5.3474,5.3474,5.3474,5.3474,5.3474,5.3474,5.289,5.1674,5.1127,4.9873,5.624,5.6383,5.6454,5.6633,5.6668,5.686,5.7467,0.0,0.0,0.0,0.0,0.0,0.0,6.0271,0.0,5.9303,5.9494,5.9603,0.0,0.0,0.0,0.0,0.0,0.0,0.0,0.0,0.0,0.0,0.0,0.0,6.1119,6.1119,6.1119,6.1119,6.1119,6.1119,6.1119,6.1119,6.1119,6.1119,6.1119,6.1119,6.1119,6.1119,6.1119,6.1119,6.1119,6.1119,6.1119,6.1119,6.1119,6.1119,6.1119,6.1119,6.1119,6.1119,6.1119,6.1023,6.0569,6.042,6.0087,5.807,5.7394,5.7039,5.5551,5.5053,5.4951,5.4747,5.4178,5.3684,5.3605,5.3527,5.3474,5.3474,5.3474,5.3474,5.3474,5.3474,5.3474,5.3474,5.3474,5.3474,5.3474,5.3474,5.3474,5.3474,5.3474,5.3474,5.3474,5.3474,5.3474,5.3474,5.3474,5.3474,5.3474,5.3474,5.3474,5.3474,5.3474,5.3474,5.3474,5.3474,5.3474,5.3474,5.3474,5.3474,5.3474,5.3474,5.289,5.1674,5.1674,5.0406,5.6383,5.6383,5.6575,5.7324,5.7503,0.0,5.7574,5.8702,0.0,0.0,0.0,0.0,0.0,5.9478,5.9236,5.9823,5.9375,5.9204,5.9825,0.0,0.0,0.0,0.0,0.0,0.0,0.0,0.0,0.0,0.0,0.0,6.1119,6.1119,6.1119,6.1119,6.1119,6.1119,6.1119,6.1119,6.1119,6.1119,6.1119,6.1119,6.1119,6.1119,6.1119,6.1119,6.1119,6.1119,6.1119,6.1119,6.1119,6.1119,6.1119,6.1119,6.1119,6.1119,6.1119,6.0835,5.8957,5.8346,5.7969,5.6041,5.5255,5.5002,5.4879,5.459,5.4355,5.4329,5.4278,5.42,5.3945,5.3684,5.3474,5.3474,5.3474,5.3474,5.3474,5.3474,5.3474,5.3474,5.3474,5.3474,5.3474,5.3474,5.3474,5.3474,5.3474,5.3474,5.3474,5.3474,5.3474,5.3474,5.3474,5.3474,5.3474,5.3474,5.3474,5.3474,5.3474,5.3474,5.3474,5.3474,5.3474,5.3474,5.3474,5.3474,5.3474,5.3474,5.289,5.1674,5.1674,5.0406,5.6383,5.6789,5.7217,5.7503,0.0,0.0,0.0,0.0,0.0,0.0,0.0,0.0,0.0,0.0,5.9823,6.0634,6.0088,5.969,5.9957,0.0,0.0,0.0,0.0,0.0,0.0,0.0,0.0,0.0,0.0,0.0,6.1119,6.1119,6.1119,6.1119,6.1119,6.1119,6.1119,6.1119,6.1119,6.1119,6.1119,6.1119,6.1119,6.1119,6.1119,6.1119,6.1119,6.1119,6.1119,6.1119,6.1119,6.1119,6.1119,6.1119,6.1119,6.1119,6.1119,6.0981,6.0238,5.9543,5.8799,5.7441,5.6493,5.5819,5.5229,5.4951,5.4845,5.4845,5.4747,5.4539,5.4226,5.4071,5.3971,5.3789,5.3893,5.3971,5.3789,5.3762,5.3762,5.3762,5.3605,5.3474,5.3474,5.3474,5.3474,5.3474,5.3474,5.3474,5.3474,5.3474,5.3474,5.3474,5.3474,5.3474,5.3474,5.3474,5.3474,5.3474,5.3474,5.3474,5.3474,5.3474,5.3474,5.3474,5.3474,5.3474,5.3474,5.3474,5.2487,5.0573,5.0573,4.9278,5.6718,5.7182,5.7717,0.0,0.0,0.0,0.0,0.0,0.0,0.0,0.0,0.0,0.0,0.0,0.0,0.0,6.0354,6.0092,6.0324,0.0,0.0,0.0,0.0,0.0,0.0,0.0,0.0,0.0,0.0,0.0,0.0,6.1119,6.1119,6.1119,6.1119,6.1119,6.1119,6.1119,6.1119,6.1119,6.1119,6.1119,6.1119,6.1119,6.1119,6.1119,6.1119,6.1119,6.1119,6.1119,6.1119,6.1119,6.1119,6.1119,6.1119,6.1119,6.0898,6.0591,6.0259,5.9477,5.8483,5.7488,5.671,5.6066,5.5406,5.5179,5.5179,5.5179,5.5082,5.4875,5.4641,5.4381,5.4123,5.3916,5.3997,5.3993,5.3815,5.3789,5.3789,5.3789,5.3632,5.3474,5.3474,5.3474,5.3474,5.3474,5.3474,5.3474,5.3474,5.3474,5.3474,5.3474,5.3474,5.3474,5.3474,5.3474,5.3474,5.3474,5.3474,5.3474,5.3474,5.3474,5.3474,5.3474,5.3474,5.3474,5.3474,5.3474,5.265,5.1044,5.1044,4.9732,5.7396,5.761,5.8003,0.0,0.0,0.0,0.0,0.0,0.0,0.0,0.0,0.0,0.0,0.0,0.0,0.0,0.0,0.0,0.0,0.0,0.0,0.0,0.0,0.0,0.0,0.0,0.0,0.0,0.0,0.0,0.0,6.1119,6.1119,6.1119,6.1119,6.1119,6.1119,6.1119,6.1119,6.1119,6.1119,6.1119,6.1119,6.1119,6.1119,6.1119,6.1119,6.1119,6.1119,6.1119,6.1119,6.1119,6.1119,6.1119,6.1119,6.1119,6.0484,5.9477,5.8483,5.7465,5.6445,5.5526,5.5204,5.5179,5.5179,5.5179,5.5179,5.5179,5.5179,5.5179,5.5179,5.4539,5.3919,5.3919,5.371,5.353,5.35,5.35,5.35,5.35,5.35,5.3474,5.3474,5.3474,5.3474,5.3474,5.3474,5.3474,5.3474,5.3474,5.3474,5.3474,5.3474,5.3474,5.3474,5.3474,5.3474,5.3474,5.3474,5.3474,5.3474,5.3474,5.3474,5.3474,5.3474,5.3474,5.3474,5.3474,5.3474,5.3474,5.3474,5.2191,5.7539,5.8381,0.0,5.9794,0.0,0.0,0.0,0.0,0.0,0.0,0.0,0.0,0.0,0.0,0.0,0.0,0.0,0.0,0.0,0.0,0.0,0.0,0.0,0.0,0.0,0.0,0.0,0.0,0.0,0.0,0.0,6.1119,6.1119,6.1119,6.1119,6.1119,6.1119,6.1119,6.1119,6.1119,6.1119,6.1119,6.1119,6.1119,6.1119,6.1119,6.1119,6.1119,6.1119,6.1119,6.1119,6.1119,6.1119,6.1119,6.1119,6.1119,6.0919,6.0612,6.0302,5.91,5.7629,5.7323,5.6305,5.5179,5.5179,5.5179,5.5179,5.5179,5.5179,5.5179,5.5179,5.4875,5.4517,5.4517,5.4619,5.4645,5.444,5.4388,5.4388,5.4388,5.4049,5.3789,5.3789,5.3632,5.3474,5.3474,5.3474,5.3474,5.3474,5.3474,5.3474,5.3474,5.3474,5.3474,5.3474,5.3474,5.3474,5.3474,5.3474,5.3474,5.3474,5.3474,5.3474,5.3474,5.3474,5.3474,5.3474,5.3474,5.3049,5.2217,5.2217,5.0934,5.836,5.9202,0.0,6.0293,6.0736,6.1093,6.1093,0.0,0.0,0.0,0.0,0.0,0.0,0.0,0.0,0.0,0.0,0.0,0.0,0.0,0.0,0.0,0.0,0.0,0.0,0.0,0.0,0.0,0.0,0.0,0.0,6.1119,6.1119,6.1119,6.1119,6.1119,6.1119,6.1119,6.1119,6.1119,6.1119,6.1119,6.1119,6.1119,6.1119,6.1119,6.1119,6.1119,6.1119,6.1119,6.1119,6.1119,6.1119,6.1119,6.1119,6.1119,6.0856,6.0506,6.0506,5.9189,5.7512,5.7512,5.6475,5.5179,5.5179,5.5179,5.5179,5.5179,5.5179,5.5179,5.5179,5.5082,5.4955,5.4828,5.4722,5.4645,5.4491,5.4363,5.4285,5.4285,5.3971,5.3736,5.3736,5.3605,5.3474,5.3474,5.3474,5.3474,5.3474,5.3474,5.3474,5.3474,5.3474,5.3474,5.3474,5.3474,5.3474,5.3474,5.3474,5.3474,5.3474,5.3474,5.3474,5.3474,5.3474,5.3474,5.3474,5.3474,5.3129,5.2434,5.2434,5.1374,5.9509,5.9937,0.0,6.0915,6.1165,0.0,6.1126,6.1146,6.1163,6.1036,0.0,6.1081,0.0,0.0,0.0,0.0,0.0,0.0,0.0,0.0,0.0,0.0,0.0,0.0,0.0,0.0,0.0,0.0,0.0,0.0,0.0,6.1119,6.1119,6.1119,6.1119,6.1119,6.1119,6.1119,6.1119,6.1119,6.1119,6.1119,6.1119,6.1119,6.1119,6.1119,6.1119,6.1119,6.1119,6.1119,6.1119,6.1119,6.1119,6.1119,6.1119,6.1119,6.0527,5.9751,5.9751,5.8414,5.6735,5.6735,5.6066,5.5179,5.5179,5.5179,5.5179,5.5179,5.5179,5.5179,5.5179,5.5179,5.5158,5.4905,5.444,5.4023,5.4023,5.3815,5.3661,5.3635,5.3579,5.3553,5.3527,5.353,5.3474,5.3474,5.3474,5.3474,5.3474,5.3474,5.3474,5.3474,5.3474,5.3474,5.3474,5.3474,5.3474,5.3474,5.3474,5.3474,5.3474,5.3474,5.3474,5.3474,5.3474,5.3474,5.3474,5.3474,5.3474,5.3474,5.3474,5.2863,5.9794,6.038,0.0,0.0,6.1557,6.1885,6.1235,6.16,6.1705,6.0496,6.0756,6.0994,6.0351,6.0712,6.1119,0.0,0.0,0.0,0.0,0.0,0.0,0.0,0.0,0.0,0.0,0.0,0.0,0.0,0.0,0.0,6.1119,6.1119,6.1119,6.1119,6.1119,6.1119,6.1119,6.1119,6.1119,0.0,6.1119,6.1119,6.1119,6.1119,6.1119,6.1119,6.1119,6.1119,6.1119,6.1119,6.1119,6.1119,6.1119,6.1119,6.1119,6.1119,6.0961,6.0793,6.0793,5.9455,5.7761,5.7761,5.659,5.5179,5.5179,5.5179,5.5179,5.5179,5.5179,5.5179,5.5179,5.5179,5.5209,5.5133,5.5002,5.4926,5.4926,5.4875,5.4773,5.4543,5.4307,5.4045,5.3867,5.3632,5.3474,5.3474,5.3474,5.3474,5.3474,5.3474,5.3474,5.3474,5.3474,5.3474,5.3474,5.3474,5.3474,5.3474,5.3474,5.3474,5.3474,5.3474,5.3474,5.3474,5.3474,5.3474,5.3474,5.3474,5.3474,5.3474,5.3474,5.2863,6.0365,0.0,0.0,6.1557,0.0,6.1718,6.1701,6.2,6.197,6.077,6.0868,6.1026,6.06,6.0854,6.1119,0.0,0.0,0.0,0.0,0.0,0.0,0.0,0.0,0.0,0.0,0.0,0.0,0.0,0.0,6.1119,6.1119,6.1119,6.1119,6.1119,6.1119,6.1119,6.1119,6.1119,6.1119,6.1119,6.1119,6.1119,6.1119,6.1119,6.1119,6.1119,6.1119,6.1119,6.1119,6.1119,6.1119,6.1119,6.1119,6.1119,6.1119,6.1119,6.0814,6.0366,6.0366,5.9078,5.7394,5.7394,5.6402,5.5179,5.5179,5.5179,5.5179,5.5179,5.5179,5.5179,5.5179,5.5179,5.5179,5.5179,5.5078,5.5032,5.5032,5.4773,5.4539,5.4414,5.4126,5.3893,5.3736,5.3579,5.3474,5.3474,5.3474,5.3474,5.3474,5.3474,5.3474,5.3474,5.3764,5.3994,5.3994,5.4229,5.4429,5.4429,5.4429,5.4429,5.4429,5.4429,5.4284,5.3967,5.3994,5.4113,5.4429,5.4429,5.4429,5.4429,5.4429,5.4079,6.0915,0.0,6.1435,6.1956,6.1773,0.0,6.1984,6.2193,6.2071,6.1269,6.123,6.1276,6.1131,6.1119,6.1119,6.1119,0.0,0.0,0.0,0.0,0.0,0.0,0.0,0.0,0.0,0.0,0.0,0.0,0.0,6.1119,6.1119,6.1119,6.1119,6.1119,6.1119,6.1119,6.1119,6.1119,6.1119,6.1119,6.1119,6.1119,6.1119,6.1119,6.1119,6.1119,6.1119,6.1119,6.1119,6.1119,6.1119,6.1119,6.1119,6.1119,6.1098,6.0898,6.0302,5.9565,5.9411,5.8139,5.659,5.659,5.5967,5.5179,5.5179,5.5269,5.5359,5.5359,5.5474,5.5508,5.5508,5.5508,5.5508,5.5508,5.536,5.5147,5.4909,5.4491,5.4101,5.4075,5.3876,5.3727,5.3727,5.3788,5.3849,5.3849,5.3849,5.3849,5.3849,5.3849,5.3849,5.3849,5.4316,5.4662,5.4662,5.5126,5.5416,5.5416,5.5416,5.5416,5.5416,5.5416,5.5242,5.4865,5.4693,5.4896,5.5416,5.5416,5.5416,5.5416,5.5416,5.5416,6.1058,0.0,6.1992,0.0,6.2176,6.2752,0.0,0.0,6.2085,0.0,6.1662,6.1941,6.1252,6.1119,6.1119,6.1119,0.0,0.0,0.0,0.0,0.0,0.0,0.0,0.0,0.0,0.0,0.0,0.0,6.1119,6.1119,6.1119,6.1119,6.1119,6.1119,6.1119,6.1119,6.1119,6.1119,6.1119,6.1119,6.1119,6.1119,6.1119,6.1119,6.1119,6.1119,6.1119,6.1119,6.1119,6.1119,6.1119,6.1119,6.1119,6.1119,6.0981,6.013,5.9729,5.9477,5.8619,5.7559,5.659,5.659,5.5967,5.5179,5.5179,5.5623,5.6072,5.6072,5.6462,5.6855,5.6855,5.6855,5.6855,5.6855,5.6829,5.6474,5.5368,5.5078,5.4951,5.4722,5.4704,5.4717,5.4717,5.4968,5.5155,5.5155,5.5155,5.5155,5.5155,5.5155,5.5155,5.5155,5.5242,5.53,5.53,5.5358,5.5416,5.5416,5.5416,5.5416,5.5416,5.5416,5.5649,5.6142,5.5591,5.5329,5.5416,5.5416,5.5416,5.5416,5.5416,5.5416,6.1085,6.1345,6.163,0.0,6.1931,6.2027,6.1825,0.0,6.1526,6.1169,6.1396,6.1526,6.1181,6.1119,6.1119,6.1119,0.0,0.0,0.0,0.0,0.0,0.0,0.0,0.0,0.0,0.0,0.0,0.0,6.1119,6.1119,6.1119,6.1119,6.1119,6.1119,6.1119,6.1119,6.1119,6.1119,6.1119,6.1119,6.1119,6.1119,6.1119,6.1119,6.1119,6.1119,6.1119,6.1119,6.1119,6.1119,6.1119,6.1119,6.1119,6.1119,6.1056,6.0612,6.037,6.0158,5.9701,5.8782,5.7777,5.7777,5.7086,5.6256,5.6256,5.6466,5.6701,5.6701,5.6885,5.7094,5.7094,5.7094,5.7094,5.7094,5.7094,5.6944,5.6376,5.6153,5.5894,5.5506,5.5451,5.5387,5.5226,5.5324,5.5416,5.5416,5.5416,5.5416,5.5416,5.5416,5.5416,5.5416,5.5736,5.5968,5.5968,5.6287,5.6461,5.6461,5.6461,5.6461,5.6461,5.6461,5.6607,5.6897,5.6287,5.6142,5.6461,5.6461,5.6461,5.6461,5.6461,5.6461,0.0,0.0,6.1517,6.1903,6.1718,6.1525,0.0,0.0,6.1119,0.0,6.1119,6.1119,6.1119,6.1119,6.1119,6.1119,6.1119,0.0,0.0,0.0,0.0,0.0,0.0,0.0,0.0,0.0,0.0,0.0,6.1119,6.1119,6.1119,6.1119,6.1119,6.1119,6.1119,6.1119,6.1119,6.1119,6.1119,6.1119,6.1119,6.1218,6.1384,6.1384,6.1483,6.1649,6.1285,6.1119,6.1098,6.1318,6.1384,6.1384,6.1583,6.1649,6.1628,6.1396,6.1142,6.0902,6.0372,5.9522,5.8645,5.8368,5.7763,5.7094,5.7094,5.7214,5.7363,5.7363,5.7483,5.7603,5.7603,5.7603,5.7603,5.7603,5.7603,5.7487,5.7105,5.6862,5.6571,5.6094,5.605,5.6059,5.5785,5.5821,5.5881,5.5881,5.5881,5.5881,5.5881,5.5881,5.5881,5.5881,5.6345,5.6636,5.6636,5.7042,5.7303,5.7303,5.7303,5.7303,5.7303,5.7303,5.7303,5.7303,5.6868,5.6868,5.7303,5.7303,5.7303,5.7303,5.7303,5.7303,0.0,6.1674,0.0,6.134,6.169,6.2048,0.0,0.0,6.1119,6.1119,6.1119,6.1119,6.1119,6.1119,6.1119,6.1119,6.1119,0.0,0.0,0.0,0.0,0.0,0.0,0.0,0.0,0.0,0.0,0.0,6.1119,6.1119,6.1119,6.1119,6.1119,6.1119,6.1119,6.1119,6.1119,6.1119,6.1119,6.1119,6.1119,6.145,6.2134,6.2134,6.2532,6.3095,6.1715,6.1119,6.1152,6.1869,6.2134,6.22,6.2896,6.3194,6.3053,6.211,6.1727,6.1464,5.9496,5.8764,5.8519,5.7506,5.7146,5.7094,5.7094,5.7543,5.8055,5.8055,5.853,5.9009,5.9009,5.9009,5.9009,5.9009,5.9009,5.857,5.7054,5.6707,5.6601,5.6308,5.6539,5.6759,5.6731,5.6977,5.7216,5.7216,5.7216,5.7216,5.7216,5.7216,5.7216,5.7216,5.7245,5.7245,5.7245,5.7274,5.7303,5.7303,5.7303,5.7303,5.7303,5.7303,5.7303,5.7303,5.7274,5.7274,5.7303,5.7303,5.7303,5.7303,5.7303,5.7303,0.0,0.0,0.0,6.1173,6.1306,6.1445,6.1148,6.1119,6.1119,6.1119,6.1119,6.1119,6.1119,6.1119,6.1119,6.1119,6.1119,0.0,0.0,0.0,0.0,0.0,0.0,0.0,0.0,0.0,0.0,0.0,0.0,6.1119,6.1119,6.1119,6.1119,6.1119,6.1119,6.1119,6.1119,6.1119,6.1351,6.1803,6.1803,6.22,6.2896,6.2896,6.3062,6.3261,6.273,6.2532,6.251,6.2797,6.2896,6.2929,6.3194,6.3294,6.3251,6.2892,6.3078,6.3362,6.262,6.2207,6.1877,6.079,5.9988,5.9297,5.8591,5.856,5.874,5.874,5.8919,5.9099,5.9099,5.9099,5.9099,5.9099,5.9099,5.8898,5.8154,5.8116,5.8116,5.7599,5.7641,5.7596,5.7207,5.7214,5.7303,5.7303,5.7303,5.7303,5.7303,5.7303,5.7303,5.7303,5.7303,5.7303,5.7303,5.7303,5.7303,5.7303,5.7303,5.7303,5.7303,5.7303,5.7303,5.7303,5.7303,5.7303,5.7303,5.7303,5.7303,5.7303,5.7303,5.7303,6.1318,0.0,0.0,0.0,6.1119,6.1119,6.1119,0.0,6.1119,6.1119,6.1119,6.1119,6.1119,6.1119,6.1119,6.1119,6.1119,6.1119,0.0,0.0,0.0,0.0,0.0,0.0,0.0,0.0,0.0,0.0,0.0,0.0,6.1119,6.1119,6.1119,6.1119,6.1119,6.1218,6.145,6.145,6.1836,6.2565,6.2565,6.2962,6.3658,6.3658,6.3791,6.4001,6.4001,6.3758,6.3327,6.3559,6.3658,6.3691,6.3923,6.4001,6.4001,6.4001,6.4299,6.4686,6.4341,6.3854,6.3196,6.2115,6.1031,6.0027,5.9342,5.9099,5.9099,5.9099,5.9099,5.9099,5.9099,5.9099,5.9099,5.9099,5.9099,5.9045,5.8855,5.8828,5.8664,5.8169,5.7974,5.7779,5.736,5.7303,5.7303,5.7303,5.7303,5.7303,5.7303,5.7303,5.7303,5.7303,5.7303,5.7303,5.7303,5.7303,5.7303,5.7303,5.7303,5.7303,5.7303,5.7303,5.7303,5.7303,5.7303,5.7303,5.7303,5.7303,5.7303,5.7303,5.7303,5.7303,0.0,0.0,0.0,0.0,0.0,0.0,6.1119,0.0,6.1119,6.1119,6.1119,6.1119,6.1119,6.1119,6.1119,6.1119,6.1119,6.1119,6.1119,0.0,0.0,0.0,0.0,0.0,0.0,0.0,0.0,0.0,6.1119,6.1119,6.1119,6.1119,6.1098,6.1152,6.1152,6.1483,6.2233,6.2233,6.2598,6.3327,6.3327,6.3725,6.442,6.442,6.4763,6.5403,6.5403,6.463,6.3426,6.4122,6.442,6.4487,6.516,6.5403,6.5403,6.5403,6.5381,6.5213,6.4221,6.322,6.2108,6.1056,6.0,5.9153,5.9099,5.9099,5.9099,5.9099,5.9099,5.9099,5.9099,5.9099,5.9099,5.9099,5.9072,5.9072,5.9072,5.8637,5.8085,5.7864,5.7528,5.7303,5.7303,5.7303,5.7303,5.7303,5.7303,5.7303,5.7303,5.7303,5.7303,5.7303,5.7303,5.7303,5.7303,5.7303,5.7303,5.7303,5.7303,5.7303,5.7303,5.7303,5.7303,5.7303,5.7303,5.7303,5.7303,5.7303,5.7303,5.7303,5.7303,5.7303,6.1327,0.0,0.0,0.0,0.0,0.0,0.0,0.0,6.1119,6.1119,6.1119,6.1119,6.1119,6.1119,6.1119,6.1119,6.1119,6.1119,6.1119,0.0,0.0,0.0,0.0,0.0,0.0,0.0,0.0,0.0,6.1119,6.1119,6.1119,6.1119,6.1351,6.1869,6.1902,6.2233,6.2996,6.2996,6.336,6.4089,6.4089,6.4454,6.5127,6.5127,6.5204,6.5403,6.5403,6.5194,6.4829,6.5028,6.5127,6.516,6.5304,6.5403,6.5403,6.5403,6.4943,6.4268,6.3988,6.322,6.2108,6.1056,6.0494,6.0132,5.9342,5.9099,5.9099,5.9099,5.9099,5.9099,5.9099,5.9099,5.9099,5.9099,5.8936,5.88,5.88,5.8335,5.7948,5.8086,5.7864,5.7585,5.7331,5.7303,5.7303,5.7303,5.7303,5.7303,5.7303,5.7303,5.7303,5.7303,5.7303,5.7303,5.7303,5.7303,5.7303,5.7303,5.7303,5.7303,5.7303,5.7303,5.7303,5.7303,5.7303,5.7303,5.7303,5.7303,5.7303,5.7303,5.7303,5.7303,0.0,0.0,0.0,0.0,0.0,0.0,6.1119,6.1119,6.1119,0.0,6.1119,6.1119,6.1119,6.1119,6.1119,6.1119,6.1119,6.1119,6.1119,6.1119,0.0,0.0,0.0,0.0,0.0,6.1119,6.1119,6.1119,6.1119,6.1119,6.1119,6.1384,6.1769,6.2167,6.2498,6.2996,6.3758,6.3725,6.4067,6.4829,6.4829,6.5028,6.5403,6.5403,6.5403,6.5403,6.5403,6.5403,6.5403,6.5403,6.5403,6.5403,6.5403,6.5123,6.4783,6.4783,6.4128,6.3244,6.3244,6.2534,6.1539,6.0902,6.039,5.9921,5.9288,5.9099,5.9099,5.9099,5.9099,5.9099,5.9099,5.9099,5.9099,5.9099,5.8964,5.8855,5.8855,5.85,5.8142,5.8059,5.7779,5.7528,5.7331,5.7303,5.7303,5.7303,5.7303,5.7303,5.7303,5.7303,5.7303,5.7303,5.7303,5.7303,5.7303,5.7303,5.7303,5.7303,5.7303,5.7303,5.7303,5.7303,5.7303,5.7303,5.7303,5.7303,5.7303,5.7303,5.7303,5.7303,5.7303,5.7303,0.0,0.0,0.0,0.0,0.0,0.0,6.1119,6.1119,6.1119,0.0,6.1119,6.1119,6.1119,6.1119,6.1119,6.1119,6.1119,6.1119,6.1119,6.1119,0.0,0.0,0.0,0.0,6.1119,6.1119,6.1119,6.1119,6.1119,6.1152,6.1218,6.1836,6.2266,6.2432,6.3062,6.3758,6.452,6.4465,6.4741,6.5403,6.5403,6.5403,6.5403,6.5403,6.5403,6.5403,6.5403,6.5403,6.5403,6.5403,6.5403,6.5403,6.5403,6.4852,6.4058,6.4058,6.3388,6.2485,6.2485,6.1715,6.0701,6.0701,5.9974,5.9099,5.9099,5.9099,5.9099,5.9099,5.9099,5.9099,5.9099,5.9099,5.9099,5.9099,5.9072,5.9045,5.9045,5.88,5.8417,5.7892,5.7585,5.7331,5.7303,5.7303,5.7303,5.7303,5.7303,5.7303,5.7303,5.7303,5.7303,5.7303,5.7303,5.7303,5.7303,5.7303,5.7303,5.7303,5.7303,5.7303,5.7303,5.7303,5.7303,5.7303,5.7303,5.7303,5.7303,5.7303,5.7303,5.7303,5.7303,5.7303,0.0,0.0,0.0,0.0,0.0,0.0,6.1119,6.1119,6.1119,0.0,6.1119,6.1119,6.1119,6.1119,6.1119,6.1119,6.1119,6.1119,6.1119,6.1119,6.1119,0.0,0.0,0.0,6.1119,6.1119,6.1119,6.1119,6.1119,6.1351,6.1968,6.2101,6.273,6.3923,6.4122,6.4498,6.5194,6.5171,6.5238,6.5403,6.5403,6.5403,6.5403,6.5403,6.5403,6.5403,6.5403,6.5403,6.5403,6.5403,6.5403,6.5403,6.5403,6.5291,6.5101,6.5101,6.4453,6.3578,6.3578,6.2313,6.0701,6.0701,5.9974,5.9099,5.9099,5.9099,5.9099,5.9099,5.9099,5.9099,5.9099,5.9099,5.9099,5.9099,5.8966,5.8803,5.8803,5.8362,5.7948,5.7836,5.7753,5.7641,5.736,5.7303,5.7303,5.7303,5.7303,5.7303,5.7303,5.7303,5.7303,5.7303,5.7303,5.7303,5.7303,5.7303,5.7303,5.7303,5.7303,5.7303,5.7303,5.7303,5.7303,5.7303,5.7303,5.7303,5.7303,5.7303,5.7303,5.7303,5.7303,5.7303,0.0,0.0,0.0,6.1119,0.0,0.0,0.0,6.1119,6.1119,6.1119,6.1119,6.1119,6.1119,6.1119,6.1119,6.1119,6.1119,6.1119,6.1119,6.1119,6.1119,6.1119,0.0,0.0,6.1119,6.1119,6.1119,6.1119,6.145,6.1803,6.2167,6.2896,6.3625,6.4387,6.473,6.5061,6.5403,6.5403,6.5403,6.5403,6.5403,6.5403,6.5403,6.5403,6.5403,6.5403,6.5403,6.5403,6.5403,6.5403,6.5403,6.5403,6.5403,6.5078,6.4669,6.4669,6.3649,6.2288,6.2288,6.1235,5.9895,5.9895,5.9526,5.9099,5.9099,5.9099,5.9099,5.9099,5.9099,5.9099,5.9099,5.9099,5.9099,5.9099,5.8912,5.8721,5.8721,5.8335,5.7975,5.7836,5.7809,5.7697,5.736,5.7303,5.7303,5.7303,5.7303,5.7303,5.7303,5.7303,5.7303,5.7303,5.7303,5.7303,5.7303,5.7303,5.7303,5.7303,5.7303,5.7303,5.7303,5.7303,5.7303,5.7303,5.7303,5.7303,5.7303,5.7303,5.7303,5.7303,5.7303,5.7303,0.0,0.0,0.0,0.0,0.0,6.1119,0.0,0.0,0.0,6.1119,6.1119,0.0,0.0,0.0,0.0,0.0,0.0,0.0,0.0,6.1119,0.0,6.1119,0.0,0.0,6.1119,6.1119,6.1152,6.1318,6.1869,6.23,6.2598,6.3758,6.4454,6.4586,6.5127,6.5403,6.5403,6.5403,6.5403,6.5403,6.5403,6.5403,6.5403,6.5403,6.5403,6.5403,6.5403,6.5403,6.5403,6.5403,6.5403,6.5403,6.5403,6.4897,6.4175,6.4175,6.2947,6.1337,6.1539,6.0774,5.9739,5.9739,5.9419,5.9099,5.9099,5.9099,5.9099,5.9099,5.9099,5.9099,5.9099,5.9099,5.9099,5.9099,5.8912,5.8721,5.8721,5.839,5.8059,5.7836,5.7753,5.7641,5.736,5.7303,5.7303,5.7303,5.7303,5.7303,5.7303,5.7303,5.7303,5.7303,5.7303,5.7303,5.7303,5.7303,5.7303,5.7303,5.7303,5.7303,5.7303,5.7303,5.7303,5.7303,5.7303,5.7303,5.7303,5.7303,5.7303,5.7303,5.7303,5.7303,0.0,0.0,0.0,0.0,6.1119,0.0,0.0,0.0,6.1119,6.1119,0.0,0.0,0.0,0.0,0.0,0.0,0.0,0.0,6.1119,6.1119,6.1119,6.1119,6.1119,0.0,0.0,6.1119,6.1384,6.2034,6.2134,6.2764,6.4089,6.4321,6.4664,6.5271,6.5337,6.5403,6.5403,6.5403,6.5403,6.5403,6.5403,6.5403,6.5403,6.5403,6.5403,6.5403,6.5403,6.5403,6.5403,6.5403,6.5403,6.5403,6.5403,6.5336,6.5213,6.5213,6.4499,6.3649,6.4568,6.357,6.1965,6.1965,6.065,5.9099,5.9099,5.9099,5.9099,5.9099,5.9099,5.9099,5.9099,5.9099,5.9099,5.9099,5.8912,5.8721,5.8721,5.8252,5.7836,5.7809,5.7585,5.7331,5.7303,5.7303,5.7303,5.7303,5.7303,5.7303,5.7303,5.7303,5.7303,5.7303,5.7303,5.7303,5.7303,5.7303,5.7303,5.7303,5.7303,5.7303,5.7303,5.7303,5.7303,5.7303,5.7303,5.7303,5.7303,5.7303,5.7303,5.7303,5.7303,5.7303,0.0,0.0,0.0,0.0,0.0,0.0,0.0,0.0,6.1119,0.0,0.0,0.0,0.0,0.0,0.0,0.0,6.1119,0.0,0.0,0.0,6.1119,0.0,0.0,0.0,0.0,0.0,0.0,0.0,6.2598,6.3294,6.4299,6.4763,6.5127,6.537,6.5403,6.5403,6.5403,6.5403,6.5403,6.5403,6.5403,6.5403,6.5403,6.5403,6.5403,6.5403,6.5403,6.5403,6.5403,6.5403,6.5403,6.5403,6.5403,6.5403,6.5403,6.5403,6.4783,6.3964,6.436,6.314,6.126,6.065,5.9815,5.9099,5.9099,5.9099,5.9099,5.9099,5.9099,5.9099,5.9099,5.9099,5.9099,5.9099,5.8746,5.8417,5.8417,5.7948,5.75,5.75,5.7388,5.7303,5.7303,5.7303,5.7303,5.7303,5.7303,5.7303,5.7303,5.7303,5.7303,5.7303,5.7303,5.7303,5.7303,5.7303,5.7303,5.7303,5.7303,5.7303,5.7303,5.7303,5.7303,5.7303,5.7303,5.7303,5.7303,5.7303,5.7303,5.7303,5.7303,5.7303,6.1119,0.0,0.0,0.0,0.0,0.0,0.0,0.0,0.0,0.0,0.0,0.0,0.0,0.0,0.0,0.0,0.0,6.1119,0.0,6.1119,0.0,0.0,0.0,0.0,0.0,0.0,0.0,6.2432,6.2996,6.3691,6.4542,6.5105,6.5403,6.5403,6.5403,6.5403,6.5403,6.5403,6.5403,6.5403,6.5403,6.5403,6.5403,6.5403,6.5403,6.5403,6.5403,6.5403,6.5403,6.5403,6.5403,6.5403,6.5403,6.5403,6.5403,6.5403,6.4568,6.3483,6.38,6.2485,6.0572,5.9789,5.9339,5.9099,5.9099,5.9099,5.9099,5.9099,5.9099,5.9099,5.9099,5.9099,5.9099,5.9099,5.8664,5.8195,5.8195,5.7723,5.7303,5.7303,5.7303,5.7303,5.7303,5.7303,5.7303,5.7303,5.7303,5.7303,5.7303,5.7303,5.7303,5.7303,5.7303,5.7303,5.7303,5.7303,5.7303,5.7303,5.7303,5.7303,5.7303,5.7303,5.739,5.7565,5.7565,5.7681,5.7855,5.7855,5.7855,5.7855,5.7477,5.7303,0.0,0.0,0.0,6.1119,0.0,0.0,0.0,0.0,6.1119,0.0,0.0,0.0,0.0,0.0,0.0,0.0,0.0,0.0,0.0,0.0,0.0,0.0,0.0,0.0,0.0,0.0,6.1715,6.3161,6.3294,6.3923,6.5271,6.537,6.5403,6.5403,6.5403,6.5403,6.5403,6.5403,6.5403,6.5403,6.5403,6.5403,6.5403,6.5403,6.5403,6.5403,6.5403,6.5403,6.5403,6.5403,6.5403,6.5403,6.5403,6.5403,6.5403,6.5403,6.4119,6.2509,6.3531,6.2485,6.0701,6.0675,5.9948,5.9099,5.9099,5.9099,5.9099,5.9099,5.9099,5.9099,5.9099,5.9099,5.9099,5.9099,5.8664,5.8195,5.8195,5.7723,5.7303,5.7303,5.7303,5.7303,5.7303,5.7303,5.7303,5.7303,5.7303,5.7303,5.7303,5.7303,5.7303,5.7303,5.7303,5.7303,5.7303,5.7303,5.7303,5.7303,5.7303,5.7303,5.7303,5.7303,5.7623,5.8261,5.8261,5.8581,5.9248,5.9248,5.9248,5.919,5.7913,5.7303,0.0,0.0,6.1119,6.1119,0.0,0.0,0.0,0.0,0.0,0.0,0.0,0.0,0.0,0.0,0.0,0.0,0.0,0.0,0.0,0.0,0.0,0.0,0.0,0.0,0.0,0.0,0.0,6.3227,6.3758,6.4432,6.5337,6.5403,6.5403,6.5403,6.5403,6.5403,6.5403,6.5403,6.5403,6.5403,6.5403,6.5403,6.5403,6.5403,6.5403,6.5403,6.5403,6.5403,6.5403,6.5403,6.5403,6.5403,6.5403,6.5403,6.5403,6.5403,6.4965,6.4305,6.4011,6.2979,6.1634,6.0928,5.9974,5.9099,5.9099,5.9099,5.9099,5.9099,5.9099,5.9099,5.9099,5.8964,5.8857,5.8857,5.8362,5.7948,5.7948,5.7584,5.7303,5.7303,5.7303,5.7303,5.7303,5.7303,5.7303,5.7303,5.7303,5.7303,5.7303,5.7303,5.7303,5.7303,5.7303,5.7303,5.7303,5.771,5.7971,5.7971,5.8377,5.861,5.861,5.861,5.8726,5.8958,5.8958,5.9074,5.9306,5.9306,5.9306,5.9306,5.8842,5.861,6.1119,6.1119,0.0,6.1119,6.1119,0.0,6.1119,0.0,0.0,0.0,0.0,0.0,0.0,0.0,0.0,0.0,0.0,0.0,0.0,6.1119,0.0,0.0,0.0,0.0,0.0,0.0,6.2333,6.3592,6.389,6.4399,0.0,0.0,6.5403,6.5403,6.5403,6.5403,6.5403,6.5403,6.5403,6.5403,6.5403,6.5403,6.5403,6.5403,6.5403,6.5403,6.5403,6.5403,6.5403,6.5403,6.5403,6.5403,6.5403,6.5403,6.5403,6.5403,6.491,6.4142,6.3116,6.2065,6.1056,6.0364,5.966,5.9099,5.9099,5.9099,5.9069,5.883,5.8919,5.9012,5.8695,5.8652,5.8753,5.8853,5.8495,5.819,5.8395,5.8227,5.8,5.8,5.8,5.8,5.8,5.8,5.7855,5.7361,5.7303,5.739,5.7623,5.7652,5.7739,5.8,5.8,5.8,5.8,5.8406,5.8668,5.8668,5.9074,5.9306,5.9306,5.9306,5.9393,5.9626,5.9626,5.9742,5.9974,5.9974,5.9974,5.9974,5.9974,5.9974]}]]